[[{"header":{"parameterUnit":"m.s-1","parameterCategory":1,"la1":31.0,"la2":29.5877,"lo1":-88.7671,"lo2":-86.6584,"dx":0.0162,"dy":0.0185,"nx":115,"ny":88,"refTime":"2023-01-21T06:00:00:Z","depth":0,"parameterNumber":2,"parameterNumberName":"U-component_of_WINDS"},"data":[0.0,0.0,0.0,0.0,0.0,0.0,0.0,0.0,0.0,0.0,0.0,0.0,0.0,0.0,0.0,0.0,0.0,0.0,0.0,0.0,0.0,0.0,0.0,0.0,0.0,0.0,0.0,0.0,0.0,0.0,0.0,0.0,0.0,0.0,0.0,0.0,0.0,0.0,0.0,0.0,0.0,0.0,0.0,0.0,0.0,0.0,0.0,0.0,0.0,0.0,0.0,0.0,0.0,0.0,0.0,0.0,0.0,0.0,0.0,0.0,0.0,0.0,0.0,0.0,0.0,0.0,0.0,0.0,0.0,0.0,0.0,0.0,0.0,0.0,0.0,0.0,0.0,0.0,0.0,0.0,0.0,0.0,0.0,0.0,0.0,0.0,0.0,0.0,0.0,0.0,0.0,0.0,0.0,0.0,0.0,0.0,0.0,0.0,0.0,0.0,0.0,0.0,0.0,0.0,0.0,0.0,0.0,0.0,0.0,0.0,0.0,0.0,0.0,0.0,0.0,0.0,0.0,0.0,0.0,0.0,0.0,0.0,0.0,0.0,0.0,0.0,0.0,0.0,0.0,0.0,0.0,0.0,0.0,0.0,0.0,0.0,0.0,0.0,0.0,0.0,0.0,0.0,0.0,0.0,0.0,0.0,0.0,0.0,0.0,0.0,0.0,0.0,0.0,0.0,0.0,0.0,0.0,0.0,0.0,0.0,0.0,0.0,0.0,0.0,0.0,0.0,0.0,0.0,0.0,0.0,0.0,0.0,0.0,0.0,0.0,0.0,0.0,0.0,0.0,0.0,0.0,0.0,0.0,0.0,0.0,0.0,0.0,0.0,0.0,0.0,0.0,0.0,0.0,0.0,0.0,0.0,0.0,0.0,0.0,0.0,0.0,0.0,0.0,0.0,0.0,0.0,0.0,0.0,0.0,0.0,0.0,0.0,0.0,0.0,0.0,0.0,0.0,0.0,0.0,0.0,0.0,0.0,0.0,0.0,0.0,0.0,0.0,0.0,0.0,0.0,0.0,0.0,0.0,0.0,0.0,0.0,0.0,0.0,0.0,0.0,0.0,0.0,0.0,0.0,0.0,0.0,0.0,0.0,0.0,0.0,0.0,0.0,0.0,0.0,0.0,0.0,0.0,0.0,0.0,0.0,0.0,0.0,0.0,0.0,0.0,0.0,0.0,0.0,0.0,0.0,0.0,0.0,0.0,0.0,0.0,0.0,0.0,0.0,0.0,0.0,0.0,0.0,0.0,0.0,0.0,0.0,0.0,0.0,0.0,0.0,0.0,0.0,0.0,0.0,0.0,0.0,0.0,0.0,0.0,0.0,0.0,0.0,0.0,0.0,0.0,0.0,0.0,0.0,0.0,0.0,0.0,0.0,0.0,0.0,0.0,0.0,0.0,0.0,0.0,0.0,0.0,0.0,0.0,0.0,0.0,0.0,0.0,0.0,0.0,0.0,0.0,0.0,0.0,0.0,0.0,0.0,0.0,0.0,0.0,0.0,0.0,0.0,0.0,0.0,0.0,0.0,0.0,0.0,0.0,0.0,0.0,0.0,0.0,0.0,0.0,0.0,0.0,0.0,0.0,0.0,0.0,0.0,0.0,0.0,0.0,0.0,0.0,0.0,0.0,0.0,0.0,0.0,0.0,0.0,0.0,0.0,0.0,0.0,0.0,0.0,0.0,0.0,0.0,0.0,0.0,0.0,0.0,0.0,0.0,0.0,0.0,0.0,0.0,0.0,0.0,0.0,0.0,0.0,0.0,0.0,0.0,0.0,0.0,0.0,0.0,0.0,0.0,0.0,0.0,0.0,0.0,0.0,0.0,0.0,0.0,0.0,0.0,0.0,0.0,0.0,0.0,0.0,0.0,0.0,0.0,0.0,0.0,0.0,0.0,0.0,0.0,0.0,0.0,0.0,0.0,0.0,0.0,0.0,0.0,0.0,0.0,0.0,0.0,0.0,0.0,0.0,0.0,0.0,0.0,0.0,0.0,0.0,0.0,0.0,0.0,0.0,0.0,0.0,0.0,0.0,0.0,0.0,0.0,0.0,0.0,0.0,0.0,0.0,0.0,0.0,0.0,0.0,0.0,0.0,0.0,0.0,0.0,0.0,0.0,0.0,0.0,0.0,0.0,0.0,0.0,0.0,0.0,0.0,0.0,0.0,0.0,0.0,0.0,0.0,0.0,0.0,0.0,0.0,0.0,0.0,0.0,0.0,0.0,0.0,0.0,0.0,0.0,0.0,0.0,0.0,0.0,0.0,0.0,0.0,0.0,0.0,0.0,0.0,0.0,0.0,0.0,0.0,0.0,0.0,0.0,0.0,0.0,0.0,0.0,0.0,0.0,0.0,0.0,0.0,0.0,0.0,0.0,0.0,0.0,0.0,0.0,0.0,0.0,0.0,0.0,0.0,0.0,0.0,0.0,0.0,0.0,0.0,0.0,0.0,0.0,0.0,0.0,0.0,0.0,0.0,0.0,0.0,0.0,0.0,0.0,0.0,0.0,0.0,0.0,0.0,0.0,0.0,0.0,0.0,0.0,0.0,0.0,0.0,0.0,0.0,0.0,0.0,0.0,0.0,0.0,0.0,0.0,0.0,0.0,0.0,0.0,0.0,0.0,0.0,0.0,0.0,0.0,0.0,0.0,0.0,0.0,0.0,0.0,0.0,0.0,0.0,0.0,0.0,0.0,0.0,0.0,0.0,0.0,0.0,0.0,0.0,0.0,0.0,0.0,0.0,0.0,0.0,0.0,0.0,0.0,0.0,0.0,0.0,0.0,0.0,0.0,0.0,0.0,0.0,0.0,0.0,0.0,0.0,0.0,0.0,0.0,0.0,0.0,0.0,0.0,0.0,0.0,0.0,0.0,0.0,0.0,0.0,0.0,0.0,0.0,0.0,0.0,0.0,0.0,0.0,0.0,0.0,0.0,0.0,0.0,0.0,0.0,0.0,0.0,0.0,0.0,0.0,0.0,0.0,0.0,0.0,0.0,0.0,0.0,0.0,0.0,0.0,0.0,0.0,0.0,0.0,0.0,0.0,0.0,0.0,0.0,0.0,0.0,0.0,0.0,0.0,0.0,0.0,0.0,0.0,0.0,0.0,0.0,0.0,0.0,0.0,0.0,0.0,0.0,0.0,0.0,0.0,0.0,0.0,0.0,0.0,0.0,0.0,0.0,0.0,0.0,0.0,0.0,0.0,0.0,0.0,0.0,0.0,0.0,0.0,0.0,0.0,0.0,0.0,0.0,0.0,0.0,0.0,0.0,0.0,0.0,0.0,0.0,0.0,0.0,0.0,0.0,0.0,0.0,0.0,0.0,0.0,0.0,0.0,0.0,0.0,0.0,0.0,0.0,0.0,0.0,0.0,0.0,0.0,0.0,0.0,0.0,0.0,0.0,0.0,0.0,0.0,0.0,0.0,0.0,0.0,0.0,0.0,0.0,0.0,0.0,0.0,0.0,0.0,0.0,0.0,0.0,0.0,0.0,0.0,0.0,0.0,0.0,0.0,0.0,0.0,0.0,0.0,0.0,0.0,0.0,0.0,0.0,0.0,0.0,0.0,0.0,0.0,0.0,0.0,0.0,0.0,0.0,0.0,0.0,0.0,0.0,0.0,0.0,0.0,0.0,0.0,0.0,0.0,0.0,0.0,0.0,0.0,0.0,0.0,0.0,0.0,0.0,0.0,0.0,0.0,0.0,0.0,0.0,0.0,0.0,0.0,0.0,0.0,0.0,0.0,0.0,0.0,0.0,0.0,0.0,0.0,0.0,0.0,0.0,0.0,0.0,0.0,0.0,0.0,0.0,0.0,0.0,0.0,0.0,0.0,0.0,0.0,0.0,0.0,0.0,0.0,0.0,0.0,0.0,0.0,0.0,0.0,0.0,0.0,0.0,0.0,0.0,0.0,0.0,0.0,0.0,0.0,0.0,0.0,0.0,0.0,0.0,0.0,0.0,0.0,0.0,0.0,0.0,0.0,0.0,0.0,0.0,0.0,0.0,0.0,0.0,0.0,0.0,0.0,0.0,0.0,0.0,0.0,0.0,0.0,0.0,0.0,0.0,0.0,0.0,0.0,0.0,0.0,0.0,0.0,0.0,0.0,0.0,0.0,0.0,0.0,0.0,0.0,0.0,0.0,0.0,0.0,0.0,0.0,0.0,0.0,0.0,0.0,0.0,0.0,0.0,0.0,0.0,0.0,0.0,0.0,0.0,0.0,0.0,0.0,0.0,0.0,0.0,0.0,0.0,0.0,0.0,0.0,0.0,0.0,3.7808,0.0,0.0,0.0,0.0,0.0,0.0,0.0,0.0,0.0,0.0,0.0,0.0,0.0,0.0,0.0,0.0,0.0,0.0,0.0,0.0,0.0,0.0,0.0,0.0,0.0,0.0,0.0,0.0,0.0,0.0,0.0,0.0,0.0,0.0,0.0,0.0,0.0,0.0,0.0,0.0,0.0,0.0,0.0,0.0,0.0,0.0,0.0,0.0,0.0,0.0,0.0,0.0,0.0,0.0,0.0,0.0,0.0,0.0,0.0,0.0,0.0,0.0,0.0,0.0,0.0,0.0,0.0,0.0,0.0,0.0,0.0,0.0,0.0,0.0,0.0,0.0,0.0,0.0,0.0,0.0,0.0,0.0,0.0,0.0,0.0,0.0,0.0,0.0,0.0,0.0,0.0,0.0,0.0,0.0,0.0,0.0,0.0,0.0,0.0,0.0,0.0,0.0,0.0,0.0,0.0,0.0,0.0,0.0,0.0,0.0,3.7457,3.8343,3.6464,3.6217,3.7807,0.0,0.0,0.0,0.0,0.0,0.0,0.0,0.0,0.0,0.0,0.0,0.0,0.0,0.0,0.0,0.0,0.0,0.0,0.0,0.0,0.0,0.0,0.0,0.0,0.0,0.0,0.0,0.0,0.0,0.0,0.0,0.0,0.0,0.0,0.0,0.0,0.0,0.0,0.0,0.0,0.0,0.0,0.0,0.0,0.0,0.0,0.0,0.0,0.0,0.0,0.0,0.0,0.0,0.0,0.0,0.0,0.0,0.0,0.0,0.0,0.0,0.0,0.0,0.0,0.0,0.0,0.0,0.0,0.0,0.0,0.0,0.0,0.0,0.0,0.0,0.0,0.0,0.0,0.0,0.0,0.0,0.0,0.0,0.0,0.0,0.0,0.0,0.0,0.0,0.0,0.0,0.0,0.0,0.0,0.0,0.0,0.0,0.0,0.0,0.0,0.0,0.0,0.0,0.0,0.0,0.0,0.0,0.0,0.0,0.0,0.0,0.0,3.6373,3.6002,3.7308,0.0,0.0,0.0,0.0,0.0,0.0,0.0,0.0,0.0,0.0,0.0,0.0,0.0,0.0,0.0,0.0,0.0,0.0,0.0,0.0,0.0,0.0,0.0,0.0,0.0,0.0,0.0,0.0,0.0,0.0,0.0,0.0,0.0,0.0,0.0,0.0,0.0,0.0,0.0,0.0,0.0,0.0,0.0,0.0,0.0,0.0,0.0,0.0,0.0,0.0,0.0,0.0,0.0,0.0,0.0,0.0,0.0,0.0,0.0,0.0,0.0,0.0,0.0,0.0,0.0,0.0,0.0,0.0,0.0,0.0,0.0,0.0,0.0,0.0,0.0,0.0,0.0,0.0,0.0,0.0,0.0,0.0,0.0,0.0,0.0,0.0,0.0,0.0,0.0,0.0,0.0,0.0,0.0,0.0,0.0,0.0,0.0,0.0,0.0,0.0,0.0,0.0,0.0,0.0,0.0,0.0,0.0,0.0,0.0,0.0,3.8173,3.8177,3.7057,0.0,3.6547,0.0,0.0,0.0,0.0,0.0,0.0,0.0,0.0,0.0,0.0,0.0,0.0,0.0,0.0,0.0,0.0,0.0,0.0,0.0,0.0,0.0,0.0,0.0,0.0,0.0,0.0,0.0,0.0,0.0,0.0,0.0,0.0,0.0,0.0,0.0,0.0,0.0,0.0,0.0,0.0,0.0,0.0,0.0,0.0,0.0,0.0,0.0,0.0,0.0,0.0,0.0,0.0,0.0,0.0,0.0,0.0,0.0,0.0,0.0,0.0,0.0,0.0,0.0,0.0,0.0,0.0,0.0,0.0,0.0,0.0,0.0,0.0,0.0,0.0,0.0,0.0,0.0,0.0,0.0,0.0,0.0,0.0,0.0,0.0,0.0,0.0,0.0,0.0,0.0,0.0,0.0,0.0,0.0,0.0,0.0,0.0,0.0,0.0,0.0,0.0,0.0,0.0,0.0,0.0,0.0,0.0,0.0,0.0,0.0,0.0,3.7898,3.7249,3.6734,3.6552,0.0,0.0,0.0,0.0,0.0,0.0,0.0,0.0,0.0,0.0,0.0,0.0,0.0,0.0,0.0,0.0,0.0,0.0,0.0,0.0,0.0,0.0,0.0,0.0,0.0,0.0,0.0,0.0,0.0,0.0,0.0,0.0,0.0,0.0,0.0,0.0,0.0,0.0,0.0,0.0,0.0,0.0,0.0,0.0,0.0,0.0,0.0,0.0,0.0,0.0,0.0,0.0,0.0,0.0,0.0,0.0,0.0,0.0,0.0,0.0,0.0,0.0,0.0,0.0,0.0,0.0,0.0,0.0,0.0,0.0,0.0,0.0,0.0,0.0,0.0,0.0,0.0,0.0,0.0,0.0,0.0,0.0,0.0,0.0,0.0,0.0,0.0,0.0,0.0,0.0,0.0,0.0,0.0,0.0,0.0,0.0,0.0,0.0,0.0,0.0,0.0,0.0,0.0,0.0,0.0,0.0,0.0,0.0,0.0,0.0,3.7787,3.7278,3.637,3.6558,3.6718,3.6687,0.0,0.0,0.0,0.0,0.0,0.0,0.0,0.0,0.0,0.0,0.0,0.0,0.0,0.0,0.0,0.0,0.0,0.0,0.0,0.0,0.0,0.0,0.0,0.0,0.0,0.0,0.0,0.0,0.0,0.0,0.0,0.0,0.0,0.0,0.0,0.0,0.0,0.0,0.0,0.0,0.0,0.0,0.0,0.0,0.0,0.0,0.0,0.0,0.0,0.0,0.0,0.0,0.0,0.0,0.0,0.0,0.0,0.0,0.0,0.0,0.0,0.0,0.0,0.0,0.0,0.0,0.0,0.0,0.0,0.0,0.0,0.0,0.0,0.0,0.0,0.0,0.0,0.0,0.0,0.0,0.0,0.0,0.0,0.0,0.0,0.0,0.0,0.0,0.0,0.0,0.0,0.0,0.0,0.0,0.0,0.0,0.0,0.0,0.0,0.0,0.0,0.0,0.0,0.0,0.0,0.0,0.0,0.0,0.0,3.6798,3.6306,3.5549,3.6736,3.7,0.0,0.0,0.0,0.0,0.0,0.0,0.0,0.0,0.0,0.0,0.0,0.0,0.0,0.0,0.0,0.0,0.0,0.0,0.0,0.0,0.0,0.0,0.0,0.0,0.0,0.0,0.0,0.0,0.0,0.0,0.0,0.0,0.0,0.0,0.0,0.0,0.0,0.0,0.0,0.0,0.0,0.0,0.0,0.0,0.0,0.0,0.0,0.0,0.0,0.0,0.0,0.0,0.0,0.0,0.0,0.0,0.0,0.0,0.0,0.0,0.0,0.0,0.0,0.0,0.0,0.0,0.0,0.0,0.0,0.0,0.0,0.0,0.0,0.0,0.0,0.0,0.0,0.0,0.0,0.0,0.0,0.0,0.0,0.0,0.0,0.0,0.0,0.0,0.0,0.0,0.0,0.0,0.0,0.0,0.0,0.0,0.0,0.0,0.0,0.0,0.0,0.0,0.0,0.0,0.0,0.0,0.0,0.0,0.0,3.7422,3.6818,3.6322,3.6044,3.6564,3.6498,0.0,0.0,0.0,0.0,0.0,0.0,0.0,0.0,0.0,0.0,0.0,0.0,0.0,0.0,0.0,0.0,0.0,0.0,0.0,0.0,0.0,0.0,0.0,0.0,0.0,0.0,0.0,0.0,0.0,0.0,0.0,0.0,0.0,0.0,0.0,0.0,0.0,0.0,0.0,0.0,0.0,0.0,0.0,0.0,0.0,0.0,0.0,0.0,0.0,0.0,0.0,0.0,0.0,0.0,0.0,0.0,0.0,0.0,0.0,0.0,0.0,0.0,0.0,0.0,0.0,0.0,0.0,0.0,0.0,0.0,0.0,0.0,0.0,0.0,0.0,0.0,0.0,0.0,0.0,0.0,0.0,0.0,0.0,0.0,0.0,0.0,0.0,0.0,0.0,0.0,0.0,0.0,0.0,0.0,0.0,0.0,0.0,0.0,0.0,0.0,0.0,0.0,0.0,0.0,0.0,0.0,0.0,0.0,0.0,3.6945,0.0,3.5751,3.5989,3.6181,3.6226,0.0,0.0,0.0,0.0,0.0,0.0,0.0,0.0,0.0,0.0,0.0,0.0,0.0,0.0,0.0,0.0,0.0,0.0,0.0,0.0,0.0,0.0,0.0,0.0,0.0,0.0,0.0,0.0,0.0,0.0,0.0,0.0,0.0,0.0,0.0,0.0,0.0,0.0,0.0,0.0,0.0,0.0,0.0,0.0,0.0,0.0,0.0,0.0,0.0,0.0,0.0,0.0,0.0,0.0,0.0,0.0,0.0,0.0,0.0,0.0,0.0,0.0,0.0,0.0,0.0,0.0,0.0,0.0,0.0,0.0,0.0,0.0,0.0,0.0,0.0,0.0,0.0,0.0,0.0,0.0,0.0,0.0,0.0,0.0,0.0,0.0,0.0,0.0,0.0,0.0,0.0,0.0,0.0,0.0,0.0,0.0,0.0,0.0,0.0,0.0,0.0,0.0,0.0,0.0,0.0,0.0,0.0,0.0,3.6863,3.5489,3.4656,3.4572,3.5123,3.5714,3.6147,0.0,0.0,0.0,0.0,0.0,0.0,0.0,0.0,0.0,0.0,0.0,0.0,0.0,0.0,0.0,0.0,0.0,0.0,0.0,0.0,0.0,0.0,0.0,0.0,0.0,0.0,0.0,0.0,0.0,0.0,0.0,0.0,0.0,0.0,0.0,0.0,0.0,0.0,0.0,0.0,0.0,0.0,0.0,0.0,0.0,0.0,0.0,0.0,0.0,0.0,0.0,0.0,0.0,0.0,0.0,0.0,0.0,0.0,0.0,0.0,0.0,0.0,0.0,0.0,0.0,0.0,0.0,0.0,0.0,0.0,0.0,0.0,0.0,0.0,0.0,0.0,0.0,0.0,0.0,0.0,0.0,0.0,0.0,0.0,0.0,0.0,0.0,0.0,0.0,0.0,0.0,0.0,0.0,0.0,0.0,0.0,0.0,0.0,0.0,0.0,0.0,0.0,0.0,0.0,0.0,0.0,0.0,0.0,0.0,3.6509,3.5791,3.5481,3.5654,3.5874,3.6019,0.0,0.0,0.0,0.0,0.0,0.0,0.0,0.0,0.0,0.0,0.0,0.0,0.0,0.0,0.0,0.0,0.0,0.0,0.0,0.0,0.0,0.0,0.0,0.0,0.0,0.0,0.0,0.0,0.0,0.0,0.0,0.0,0.0,0.0,0.0,0.0,0.0,0.0,0.0,0.0,0.0,0.0,0.0,0.0,0.0,0.0,0.0,0.0,0.0,0.0,0.0,0.0,0.0,0.0,0.0,0.0,0.0,0.0,0.0,0.0,0.0,0.0,0.0,0.0,0.0,0.0,0.0,0.0,0.0,0.0,0.0,0.0,0.0,0.0,0.0,0.0,0.0,0.0,0.0,0.0,0.0,0.0,0.0,0.0,0.0,0.0,0.0,0.0,0.0,0.0,0.0,0.0,0.0,0.0,0.0,0.0,0.0,0.0,0.0,0.0,0.0,0.0,0.0,0.0,0.0,0.0,0.0,0.0,0.0,3.7142,3.6318,3.5881,3.5835,3.5836,3.5931,3.6133,0.0,0.0,0.0,0.0,0.0,0.0,0.0,0.0,0.0,0.0,0.0,0.0,0.0,0.0,0.0,0.0,0.0,0.0,0.0,0.0,0.0,0.0,0.0,0.0,0.0,0.0,0.0,0.0,0.0,0.0,0.0,0.0,0.0,0.0,0.0,0.0,0.0,0.0,0.0,0.0,0.0,0.0,0.0,0.0,0.0,0.0,0.0,0.0,0.0,0.0,0.0,0.0,0.0,0.0,0.0,0.0,0.0,0.0,0.0,0.0,0.0,0.0,0.0,0.0,0.0,0.0,0.0,0.0,0.0,0.0,0.0,0.0,0.0,0.0,0.0,0.0,0.0,0.0,0.0,0.0,0.0,0.0,0.0,0.0,0.0,0.0,0.0,0.0,0.0,0.0,0.0,0.0,0.0,0.0,0.0,0.0,0.0,0.0,0.0,0.0,0.0,0.0,0.0,0.0,0.0,0.0,0.0,0.0,3.7554,3.6461,3.5903,3.5748,3.5643,3.5845,0.0,0.0,0.0,0.0,0.0,0.0,0.0,0.0,0.0,0.0,0.0,0.0,0.0,0.0,0.0,0.0,0.0,0.0,0.0,0.0,0.0,0.0,0.0,0.0,0.0,0.0,0.0,0.0,0.0,0.0,0.0,0.0,0.0,0.0,0.0,0.0,0.0,0.0,0.0,0.0,0.0,0.0,0.0,0.0,0.0,0.0,0.0,0.0,0.0,0.0,0.0,0.0,0.0,0.0,0.0,0.0,0.0,0.0,0.0,0.0,0.0,0.0,0.0,0.0,0.0,0.0,0.0,0.0,0.0,0.0,0.0,0.0,0.0,0.0,0.0,0.0,0.0,0.0,0.0,0.0,0.0,0.0,0.0,0.0,0.0,0.0,0.0,0.0,0.0,0.0,0.0,0.0,0.0,0.0,0.0,0.0,0.0,0.0,0.0,0.0,0.0,0.0,0.0,0.0,0.0,0.0,0.0,0.0,0.0,3.8262,3.8417,3.7802,3.6369,3.6261,3.6307,0.0,0.0,0.0,0.0,0.0,0.0,0.0,0.0,0.0,0.0,0.0,0.0,0.0,0.0,0.0,0.0,0.0,0.0,0.0,0.0,0.0,0.0,0.0,0.0,0.0,0.0,0.0,0.0,0.0,0.0,0.0,0.0,0.0,0.0,0.0,0.0,0.0,0.0,0.0,0.0,0.0,0.0,0.0,0.0,0.0,0.0,0.0,0.0,0.0,0.0,0.0,0.0,0.0,0.0,0.0,0.0,0.0,0.0,0.0,0.0,0.0,0.0,0.0,0.0,0.0,0.0,0.0,0.0,0.0,0.0,0.0,0.0,0.0,0.0,0.0,0.0,0.0,0.0,0.0,0.0,0.0,0.0,0.0,0.0,0.0,0.0,0.0,0.0,0.0,0.0,0.0,0.0,0.0,0.0,0.0,0.0,0.0,0.0,0.0,0.0,0.0,0.0,0.0,0.0,0.0,0.0,0.0,0.0,3.9208,3.9086,3.9208,3.8566,3.7145,3.7258,3.7338,0.0,0.0,0.0,0.0,0.0,0.0,0.0,0.0,0.0,0.0,0.0,0.0,0.0,0.0,0.0,0.0,0.0,0.0,0.0,0.0,0.0,0.0,0.0,0.0,0.0,0.0,0.0,0.0,0.0,0.0,0.0,0.0,0.0,0.0,0.0,0.0,0.0,0.0,0.0,0.0,0.0,0.0,0.0,0.0,0.0,0.0,0.0,0.0,0.0,0.0,0.0,0.0,0.0,0.0,0.0,0.0,0.0,0.0,0.0,0.0,0.0,0.0,0.0,0.0,0.0,0.0,0.0,0.0,0.0,0.0,0.0,0.0,0.0,0.0,0.0,0.0,0.0,0.0,0.0,0.0,0.0,0.0,0.0,0.0,0.0,0.0,0.0,0.0,0.0,0.0,0.0,0.0,0.0,0.0,0.0,0.0,0.0,0.0,0.0,0.0,0.0,0.0,0.0,0.0,0.0,0.0,0.0,0.0,3.9447,4.0006,3.949,3.8927,3.8351,3.8536,3.8565,0.0,0.0,0.0,0.0,0.0,0.0,0.0,0.0,0.0,0.0,0.0,0.0,0.0,0.0,0.0,0.0,0.0,0.0,0.0,0.0,0.0,0.0,0.0,0.0,0.0,0.0,0.0,0.0,0.0,0.0,0.0,0.0,0.0,0.0,0.0,0.0,0.0,0.0,0.0,0.0,0.0,0.0,0.0,0.0,0.0,0.0,0.0,0.0,0.0,0.0,0.0,0.0,0.0,0.0,0.0,0.0,0.0,0.0,0.0,0.0,0.0,0.0,0.0,0.0,0.0,0.0,0.0,0.0,0.0,0.0,0.0,0.0,0.0,0.0,0.0,0.0,0.0,0.0,0.0,0.0,0.0,0.0,0.0,0.0,0.0,0.0,0.0,0.0,0.0,0.0,0.0,0.0,0.0,0.0,0.0,0.0,0.0,0.0,0.0,0.0,0.0,0.0,0.0,0.0,0.0,0.0,0.0,0.0,4.0648,4.077,4.1067,4.1189,4.1037,4.0107,3.9125,0.0,0.0,0.0,0.0,0.0,0.0,0.0,0.0,0.0,0.0,0.0,0.0,0.0,0.0,0.0,0.0,0.0,0.0,0.0,0.0,0.0,0.0,0.0,0.0,0.0,0.0,0.0,0.0,0.0,0.0,0.0,0.0,0.0,0.0,0.0,0.0,0.0,0.0,0.0,0.0,0.0,0.0,0.0,0.0,0.0,0.0,0.0,0.0,3.4905,0.0,0.0,0.0,0.0,0.0,0.0,0.0,0.0,0.0,0.0,0.0,0.0,0.0,0.0,0.0,0.0,0.0,0.0,0.0,0.0,0.0,0.0,0.0,0.0,0.0,0.0,0.0,0.0,0.0,0.0,0.0,0.0,0.0,0.0,0.0,0.0,0.0,0.0,0.0,0.0,0.0,0.0,0.0,0.0,0.0,0.0,0.0,0.0,0.0,0.0,0.0,0.0,0.0,0.0,0.0,0.0,0.0,0.0,0.0,4.1343,4.1644,4.1976,4.1976,4.1656,4.1264,4.0541,0.0,0.0,0.0,0.0,0.0,0.0,0.0,0.0,0.0,0.0,0.0,0.0,0.0,0.0,0.0,0.0,0.0,0.0,0.0,0.0,0.0,0.0,0.0,0.0,0.0,0.0,0.0,0.0,0.0,0.0,0.0,0.0,0.0,0.0,0.0,0.0,0.0,0.0,0.0,0.0,0.0,0.0,0.0,0.0,0.0,0.0,0.0,0.0,0.0,0.0,0.0,0.0,0.0,0.0,0.0,0.0,0.0,0.0,0.0,0.0,0.0,0.0,0.0,0.0,0.0,0.0,0.0,0.0,0.0,0.0,0.0,0.0,0.0,0.0,0.0,0.0,0.0,0.0,0.0,0.0,0.0,0.0,0.0,0.0,0.0,0.0,0.0,0.0,0.0,0.0,0.0,0.0,0.0,0.0,0.0,0.0,0.0,0.0,0.0,0.0,0.0,0.0,0.0,0.0,0.0,0.0,0.0,4.1583,4.2013,4.2622,4.2741,4.2453,4.1786,4.2204,4.203,4.1115,0.0,0.0,0.0,0.0,0.0,0.0,0.0,0.0,0.0,0.0,0.0,0.0,0.0,0.0,0.0,0.0,0.0,0.0,0.0,0.0,0.0,0.0,0.0,0.0,0.0,0.0,0.0,0.0,0.0,0.0,0.0,0.0,0.0,0.0,0.0,0.0,0.0,0.0,3.2867,3.2588,0.0,0.0,0.0,0.0,0.0,0.0,0.0,0.0,3.4682,0.0,0.0,0.0,0.0,0.0,0.0,0.0,0.0,0.0,0.0,0.0,0.0,0.0,0.0,0.0,0.0,0.0,0.0,0.0,0.0,0.0,0.0,0.0,0.0,0.0,0.0,0.0,0.0,0.0,0.0,0.0,0.0,0.0,0.0,0.0,0.0,0.0,0.0,0.0,0.0,0.0,0.0,0.0,0.0,0.0,0.0,0.0,0.0,0.0,0.0,0.0,0.0,0.0,0.0,0.0,0.0,4.1403,4.2442,4.321,4.3725,4.429,4.4178,4.3351,4.2887,4.2336,4.1597,0.0,0.0,0.0,0.0,0.0,0.0,0.0,0.0,0.0,0.0,0.0,0.0,0.0,0.0,0.0,0.0,0.0,0.0,0.0,0.0,0.0,0.0,0.0,0.0,0.0,0.0,0.0,0.0,0.0,0.0,0.0,0.0,0.0,0.0,0.0,0.0,0.0,0.0,0.0,3.4122,3.4526,0.0,0.0,0.0,0.0,0.0,0.0,0.0,0.0,3.5568,0.0,0.0,0.0,0.0,0.0,0.0,0.0,0.0,0.0,0.0,0.0,0.0,0.0,0.0,0.0,0.0,0.0,0.0,0.0,0.0,0.0,0.0,0.0,0.0,0.0,0.0,0.0,0.0,0.0,0.0,0.0,0.0,0.0,0.0,0.0,0.0,0.0,0.0,0.0,0.0,0.0,0.0,0.0,0.0,0.0,0.0,0.0,0.0,0.0,0.0,0.0,0.0,0.0,0.0,0.0,4.2207,4.3488,4.4347,4.4841,4.5441,4.5427,4.4701,4.4023,4.3228,0.0,0.0,0.0,0.0,0.0,0.0,0.0,0.0,0.0,0.0,0.0,0.0,0.0,0.0,0.0,0.0,0.0,0.0,0.0,0.0,0.0,0.0,0.0,0.0,0.0,0.0,0.0,0.0,0.0,0.0,0.0,0.0,0.0,0.0,0.0,0.0,0.0,0.0,0.0,0.0,3.4596,3.4836,3.5879,0.0,0.0,0.0,0.0,0.0,0.0,3.6049,3.5526,0.0,0.0,0.0,0.0,0.0,0.0,0.0,0.0,0.0,0.0,0.0,0.0,0.0,0.0,0.0,0.0,0.0,0.0,0.0,0.0,0.0,0.0,0.0,0.0,0.0,0.0,0.0,0.0,0.0,0.0,0.0,0.0,0.0,0.0,0.0,0.0,0.0,0.0,0.0,0.0,0.0,0.0,0.0,0.0,0.0,0.0,0.0,0.0,0.0,0.0,0.0,0.0,0.0,0.0,0.0,4.3365,4.4747,4.5715,4.6315,4.6917,4.6836,4.605,4.5279,4.4339,0.0,0.0,0.0,0.0,0.0,0.0,0.0,0.0,0.0,0.0,0.0,0.0,0.0,0.0,0.0,0.0,0.0,0.0,0.0,0.0,0.0,0.0,0.0,0.0,0.0,0.0,0.0,0.0,0.0,0.0,0.0,0.0,0.0,0.0,0.0,0.0,0.0,0.0,0.0,0.0,0.0,3.503,3.64,3.6259,0.0,0.0,0.0,0.0,3.6749,3.6205,0.0,0.0,0.0,0.0,0.0,0.0,0.0,0.0,0.0,0.0,0.0,0.0,0.0,0.0,0.0,0.0,0.0,0.0,0.0,0.0,0.0,0.0,0.0,0.0,0.0,0.0,0.0,0.0,0.0,0.0,0.0,0.0,0.0,0.0,0.0,0.0,0.0,0.0,0.0,0.0,0.0,0.0,0.0,0.0,0.0,0.0,0.0,0.0,0.0,0.0,0.0,0.0,0.0,0.0,0.0,0.0,4.4658,4.6343,4.7682,4.8676,4.9344,4.8991,4.7556,4.6392,4.5403,0.0,0.0,0.0,0.0,0.0,0.0,0.0,0.0,0.0,0.0,0.0,0.0,0.0,0.0,0.0,0.0,0.0,0.0,0.0,0.0,0.0,0.0,0.0,0.0,0.0,0.0,0.0,0.0,0.0,0.0,0.0,0.0,0.0,0.0,0.0,0.0,0.0,0.0,0.0,0.0,0.0,3.5915,3.6529,3.6399,3.6007,0.0,0.0,3.71,3.6015,3.7129,0.0,0.0,0.0,0.0,0.0,0.0,0.0,0.0,0.0,0.0,0.0,0.0,0.0,0.0,0.0,0.0,0.0,0.0,0.0,0.0,0.0,0.0,0.0,0.0,0.0,0.0,0.0,0.0,0.0,0.0,0.0,0.0,0.0,0.0,0.0,0.0,0.0,0.0,0.0,0.0,0.0,0.0,0.0,0.0,0.0,0.0,0.0,0.0,0.0,0.0,0.0,0.0,0.0,0.0,0.0,4.3632,4.5798,4.7864,4.9448,5.0513,5.1352,5.1313,5.0262,4.8182,4.6735,0.0,0.0,0.0,0.0,0.0,0.0,0.0,0.0,0.0,0.0,0.0,0.0,0.0,0.0,0.0,0.0,0.0,0.0,0.0,0.0,0.0,0.0,0.0,0.0,0.0,0.0,0.0,0.0,0.0,0.0,0.0,0.0,0.0,0.0,0.0,0.0,0.0,0.0,0.0,0.0,0.0,0.0,3.7119,3.7504,0.0,0.0,0.0,3.7862,3.7224,0.0,0.0,0.0,0.0,0.0,0.0,0.0,0.0,0.0,0.0,0.0,0.0,0.0,0.0,0.0,0.0,0.0,0.0,0.0,0.0,0.0,0.0,0.0,0.0,0.0,0.0,0.0,0.0,0.0,0.0,0.0,0.0,0.0,0.0,0.0,0.0,0.0,0.0,0.0,0.0,0.0,0.0,0.0,0.0,0.0,0.0,0.0,0.0,0.0,0.0,0.0,0.0,0.0,0.0,0.0,0.0,0.0,4.6879,4.9366,5.1245,5.2384,5.3331,5.3457,5.2687,5.0332,0.0,0.0,0.0,0.0,0.0,0.0,0.0,0.0,0.0,0.0,0.0,0.0,0.0,0.0,0.0,0.0,0.0,0.0,0.0,0.0,0.0,0.0,0.0,0.0,0.0,0.0,0.0,3.4968,0.0,0.0,0.0,0.0,0.0,0.0,0.0,0.0,0.0,0.0,0.0,0.0,0.0,0.0,3.7587,3.7606,3.8264,3.8607,0.0,0.0,3.8502,3.8173,3.8347,3.8145,0.0,0.0,0.0,0.0,0.0,0.0,0.0,0.0,0.0,0.0,0.0,0.0,0.0,0.0,0.0,0.0,0.0,0.0,0.0,0.0,0.0,0.0,0.0,0.0,0.0,0.0,0.0,0.0,0.0,0.0,0.0,0.0,0.0,0.0,0.0,0.0,0.0,0.0,0.0,0.0,0.0,0.0,0.0,0.0,0.0,0.0,0.0,0.0,0.0,0.0,0.0,0.0,0.0,0.0,0.0,4.8027,5.0921,5.3163,5.4633,5.5354,5.5273,5.4366,5.2998,5.143,0.0,0.0,0.0,0.0,0.0,0.0,0.0,0.0,0.0,0.0,0.0,0.0,0.0,0.0,0.0,0.0,0.0,0.0,0.0,0.0,0.0,0.0,0.0,0.0,0.0,0.0,0.0,0.0,0.0,0.0,0.0,0.0,0.0,0.0,0.0,0.0,0.0,0.0,0.0,0.0,0.0,3.7825,3.7644,3.7964,3.8224,0.0,0.0,3.8669,3.801,3.9229,3.9612,3.7828,0.0,0.0,0.0,0.0,0.0,0.0,0.0,0.0,0.0,0.0,0.0,0.0,0.0,0.0,0.0,0.0,0.0,0.0,0.0,0.0,0.0,0.0,0.0,0.0,0.0,0.0,0.0,0.0,0.0,0.0,0.0,0.0,0.0,0.0,0.0,0.0,0.0,0.0,0.0,0.0,0.0,0.0,0.0,0.0,0.0,0.0,0.0,0.0,0.0,0.0,0.0,0.0,0.0,4.6962,4.926,5.2407,5.4715,5.6075,5.6766,5.6905,5.6561,5.4431,5.2594,0.0,0.0,0.0,0.0,0.0,0.0,0.0,0.0,0.0,0.0,0.0,0.0,0.0,0.0,0.0,0.0,0.0,0.0,0.0,0.0,0.0,0.0,0.0,0.0,0.0,0.0,0.0,0.0,3.7059,3.7099,3.6546,0.0,0.0,0.0,0.0,0.0,0.0,0.0,0.0,0.0,0.0,3.8482,3.9053,3.9264,0.0,0.0,3.9365,3.9247,3.8629,3.9026,3.9016,3.7787,3.7261,0.0,0.0,0.0,0.0,0.0,0.0,0.0,0.0,0.0,0.0,0.0,0.0,0.0,0.0,0.0,0.0,0.0,0.0,0.0,0.0,0.0,0.0,0.0,0.0,0.0,0.0,0.0,0.0,0.0,0.0,0.0,0.0,0.0,0.0,0.0,0.0,0.0,0.0,0.0,0.0,0.0,0.0,0.0,0.0,0.0,0.0,0.0,0.0,0.0,0.0,0.0,0.0,4.8099,5.049,5.3712,5.6135,5.7712,5.8154,5.8277,5.8039,5.6197,5.4312,0.0,0.0,0.0,0.0,0.0,0.0,0.0,0.0,0.0,0.0,0.0,0.0,0.0,0.0,0.0,0.0,0.0,0.0,0.0,0.0,0.0,0.0,0.0,0.0,0.0,0.0,0.0,0.0,3.7647,3.765,3.7181,0.0,0.0,0.0,0.0,0.0,0.0,0.0,0.0,0.0,0.0,3.9086,3.9671,3.9905,3.9935,3.9704,3.9683,3.9494,3.9033,3.8787,3.8428,3.7696,0.0,0.0,0.0,0.0,0.0,0.0,0.0,0.0,0.0,0.0,0.0,0.0,0.0,0.0,0.0,0.0,0.0,0.0,0.0,0.0,0.0,0.0,0.0,0.0,0.0,0.0,0.0,0.0,0.0,0.0,0.0,0.0,0.0,0.0,0.0,0.0,0.0,0.0,0.0,0.0,0.0,0.0,0.0,0.0,0.0,0.0,0.0,0.0,0.0,0.0,0.0,0.0,0.0,4.9484,5.1654,5.4766,5.7418,5.9534,5.9642,5.9332,5.8739,5.8592,5.699,5.3613,0.0,0.0,0.0,0.0,0.0,0.0,0.0,0.0,0.0,0.0,0.0,0.0,0.0,0.0,0.0,0.0,0.0,0.0,0.0,0.0,0.0,0.0,0.0,0.0,0.0,0.0,3.6216,3.6874,3.7587,0.0,0.0,0.0,0.0,0.0,0.0,0.0,0.0,0.0,0.0,3.8917,3.9479,3.9022,3.9444,3.9733,3.9458,3.9437,3.9346,3.9127,3.8693,3.8195,0.0,0.0,0.0,0.0,0.0,0.0,0.0,0.0,0.0,0.0,0.0,0.0,0.0,0.0,0.0,0.0,0.0,0.0,0.0,0.0,0.0,0.0,0.0,0.0,0.0,0.0,0.0,0.0,0.0,0.0,0.0,0.0,0.0,0.0,0.0,0.0,0.0,0.0,0.0,0.0,4.1385,4.1625,0.0,0.0,0.0,0.0,0.0,0.0,0.0,0.0,0.0,0.0,0.0,0.0,5.0422,5.2967,5.5453,5.7723,5.9614,5.9658,5.9703,5.9842,5.8899,5.6467,5.2562,0.0,0.0,0.0,0.0,0.0,0.0,0.0,0.0,0.0,0.0,0.0,0.0,0.0,0.0,0.0,0.0,0.0,0.0,0.0,0.0,0.0,0.0,0.0,0.0,0.0,3.702,0.0,0.0,0.0,0.0,0.0,0.0,0.0,0.0,0.0,0.0,0.0,3.802,3.869,3.882,3.8929,3.9033,3.954,3.9917,0.0,0.0,0.0,0.0,0.0,0.0,0.0,0.0,0.0,0.0,0.0,0.0,0.0,0.0,3.8456,3.8079,3.8552,3.9162,3.9637,0.0,0.0,0.0,0.0,0.0,0.0,0.0,0.0,0.0,0.0,0.0,0.0,0.0,0.0,0.0,0.0,3.9644,0.0,0.0,0.0,0.0,0.0,0.0,0.0,0.0,4.1878,4.2304,4.2214,4.2568,4.2617,0.0,4.2765,4.2738,0.0,0.0,0.0,0.0,0.0,0.0,0.0,0.0,5.1514,5.3919,5.6017,5.8075,6.0049,5.999,6.0144,6.0597,5.8627,5.5953,5.2547,4.9967,4.7611,0.0,0.0,0.0,0.0,0.0,0.0,0.0,0.0,0.0,0.0,0.0,0.0,0.0,0.0,0.0,0.0,0.0,0.0,0.0,0.0,0.0,0.0,0.0,3.7326,0.0,0.0,0.0,0.0,0.0,0.0,0.0,0.0,0.0,3.8124,3.8167,3.8456,3.9152,3.9143,3.9048,3.8898,0.0,0.0,0.0,0.0,0.0,0.0,0.0,3.8078,3.7729,3.7772,3.8282,3.9514,3.9487,3.9501,4.0318,0.0,0.0,3.895,3.9348,3.992,4.0435,4.0739,4.0993,4.1291,4.1327,4.1269,0.0,0.0,0.0,0.0,0.0,0.0,0.0,0.0,4.0924,4.0445,0.0,0.0,0.0,0.0,0.0,0.0,0.0,0.0,0.0,0.0,4.2703,4.3468,4.4257,4.4207,4.4414,0.0,4.4773,4.4773,4.4771,4.4749,0.0,0.0,0.0,0.0,0.0,0.0,5.277,5.4654,5.6453,5.8587,6.0915,6.0705,6.0565,6.0701,5.791,5.546,5.3616,5.0995,4.8758,4.6908,4.4851,0.0,0.0,0.0,0.0,0.0,0.0,0.0,0.0,0.0,0.0,0.0,0.0,0.0,0.0,0.0,0.0,0.0,0.0,0.0,0.0,3.724,0.0,0.0,0.0,0.0,0.0,0.0,0.0,0.0,0.0,0.0,3.8498,3.8632,3.8836,3.9254,0.0,0.0,0.0,0.0,3.9897,3.8348,3.9033,3.9291,3.8051,3.8568,3.8932,3.8378,0.0,0.0,4.2077,4.0781,4.0041,4.1319,4.1365,4.1042,4.0769,4.036,4.0416,4.1357,4.1353,4.1174,4.1499,4.1702,4.1511,4.1975,0.0,0.0,0.0,0.0,4.1,4.1097,4.1142,4.1623,4.1783,4.1721,4.2032,0.0,0.0,0.0,0.0,0.0,0.0,4.1981,4.2145,4.2731,4.3683,4.4852,4.4852,4.5249,4.5993,4.6427,4.6617,4.6671,4.723,4.7189,4.6567,0.0,0.0,0.0,0.0,5.3585,5.5805,5.6873,5.8435,6.0616,6.0348,5.9814,5.9148,5.7455,5.5611,5.3588,5.1198,4.9246,4.7831,4.5607,0.0,0.0,0.0,0.0,0.0,0.0,0.0,0.0,0.0,0.0,0.0,0.0,0.0,0.0,0.0,0.0,0.0,0.0,0.0,3.757,3.8459,3.894,0.0,0.0,0.0,0.0,0.0,0.0,0.0,0.0,0.0,3.9159,3.8966,3.8947,0.0,0.0,3.9738,3.9184,3.9657,3.993,3.9487,0.0,0.0,0.0,3.9725,3.9849,4.0058,4.0907,4.1709,4.2176,4.21,4.2152,4.2747,4.28,4.274,4.2836,4.2425,4.2258,4.2683,4.3021,4.3339,4.3624,4.3688,4.3623,4.363,4.3119,4.2512,4.2079,4.1802,4.215,4.2336,4.2415,4.2966,4.3258,4.3306,4.3702,4.3539,4.3038,4.305,0.0,0.0,0.0,4.2799,4.2486,4.3279,4.4175,4.5128,4.5609,4.6169,4.6813,4.7325,4.7541,4.7541,4.8681,4.8982,4.8593,0.0,0.0,5.1431,5.2491,5.4054,5.598,5.6649,5.8063,6.0232,6.0298,5.9694,5.8436,5.7141,5.5532,5.3574,5.1349,4.9672,4.8589,4.667,4.497,0.0,0.0,0.0,0.0,0.0,0.0,0.0,0.0,0.0,0.0,0.0,3.5817,3.5444,0.0,0.0,0.0,3.7222,3.7841,3.8353,3.9059,0.0,0.0,0.0,0.0,0.0,0.0,0.0,3.8362,3.8998,3.9447,3.9403,3.9528,3.973,3.9844,4.0277,4.0377,3.9878,0.0,4.0495,4.0203,3.9926,3.9928,4.0389,4.067,4.1029,4.1621,4.1957,4.2372,4.2787,4.2968,4.3151,4.3491,4.3779,4.3962,4.4148,4.4018,4.3809,4.358,4.3863,4.4208,4.4284,4.4437,4.4589,4.5331,4.4761,4.3378,4.2779,4.2765,4.3299,4.3523,4.3658,4.4622,4.4677,4.4093,4.5383,4.526,4.4067,4.4598,0.0,0.0,4.4072,4.3887,4.3232,4.4276,4.4987,4.5523,4.6605,4.7246,4.7525,4.7884,4.8076,4.8157,4.9433,5.0258,5.0567,5.0875,5.1015,5.1209,5.2838,5.4301,5.5574,5.6182,5.7587,5.9785,6.03,5.9785,5.8275,5.6764,5.515,5.3502,5.1469,4.9957,4.9109,4.7689,4.6262,4.4785,0.0,0.0,0.0,0.0,0.0,0.0,0.0,0.0,0.0,0.0,0.0,0.0,0.0,0.0,0.0,3.8764,0.0,3.932,3.9271,0.0,0.0,0.0,3.941,3.9746,3.9123,3.8806,3.9309,0.0,0.0,0.0,0.0,4.0946,4.1055,4.1441,4.1415,4.0645,4.1235,4.1466,4.0721,4.0976,4.1129,4.0797,4.1589,4.2461,4.3003,4.2718,4.2899,4.3773,4.3618,4.3489,4.398,4.4463,4.4771,4.4768,4.5109,4.518,4.4124,4.4171,4.4248,4.4147,4.4433,4.4693,4.551,4.5628,4.5497,4.5085,4.4426,4.4464,4.4723,4.4986,4.48,4.4982,4.5482,4.56,4.5775,4.5856,4.5987,4.5352,4.4088,4.4244,4.4424,4.4709,4.4968,4.6053,4.7845,4.8555,4.9017,4.9391,5.0108,5.0352,5.0119,5.0708,5.1047,5.1132,5.1623,5.2221,5.2946,5.383,5.4909,5.6154,5.6789,5.7559,5.8527,5.8798,5.8288,5.6989,5.5492,5.4164,5.2977,5.1022,4.9651,4.8963,4.7788,4.6395,4.4773,4.3171,0.0,0.0,0.0,0.0,0.0,0.0,0.0,0.0,0.0,3.7359,3.6895,0.0,3.8792,0.0,3.9049,3.9438,3.9462,3.9438,0.0,0.0,4.0048,4.0189,4.0494,4.0534,4.0335,3.9877,4.0337,4.0631,4.0473,4.1416,4.2152,4.2317,4.2075,4.1843,4.1663,4.1952,4.2168,4.1936,4.1524,4.142,4.1968,4.2985,4.3853,4.4254,4.4484,4.482,4.505,4.4999,4.4948,4.5101,4.5204,4.5306,4.5278,4.5409,4.5414,4.5156,4.5139,4.5167,4.5083,4.5197,4.5252,4.6702,4.6655,4.7068,4.6873,4.6223,4.6074,4.6093,4.62,4.5844,4.6041,4.6518,4.6427,4.6311,4.6328,4.6794,4.6236,4.4892,4.5356,4.5484,4.5386,4.5786,4.6765,4.8286,4.8976,4.9548,4.9963,5.0459,5.0678,5.0645,5.1037,5.1319,5.1496,5.2088,5.2625,5.3163,5.4063,5.4981,5.5939,5.6909,5.7455,5.7614,5.7644,5.7233,5.6273,5.4678,5.3398,5.2567,5.0786,4.9537,4.8917,4.8047,4.6847,4.5206,4.3921,4.2769,0.0,0.0,0.0,0.0,0.0,0.0,0.0,0.0,0.0,0.0,0.0,3.9255,0.0,0.0,0.0,3.9544,3.9723,4.0005,4.0312,4.0543,4.0875,4.1281,4.1347,4.1311,4.11,4.1554,4.1855,4.1713,4.2339,4.2839,4.2954,4.2806,4.2692,4.2747,4.2884,4.2971,4.2971,4.261,4.2454,4.2975,4.3593,4.4105,4.4245,4.4529,4.4705,4.4676,4.4705,4.4705,4.473,4.4907,4.5028,4.5053,4.5255,4.5405,4.5405,4.5405,4.5434,4.5499,4.5511,4.5511,4.8148,4.7762,4.8195,4.8243,4.7976,4.7732,4.7502,4.7324,4.7249,4.7263,4.7355,4.7451,4.71,4.6455,4.7408,4.7052,4.5761,4.6707,4.663,4.5738,4.6592,4.7305,4.7877,4.8849,4.9489,4.988,5.0019,5.0193,5.0431,5.0939,5.1359,5.1717,5.2226,5.2496,5.2646,5.3789,5.4743,5.547,5.6693,5.7116,5.6771,5.6641,5.6275,5.5625,5.3914,5.2693,5.2039,5.0493,4.9359,4.8773,4.8212,4.7223,4.5642,4.4925,4.411,0.0,4.2211,0.0,0.0,0.0,0.0,0.0,0.0,0.0,0.0,3.9373,3.9371,3.9589,4.009,4.019,3.9586,4.0087,4.0436,4.0509,4.0956,4.1477,4.2,4.1849,4.1826,4.2347,4.2532,4.2676,4.2691,4.2952,4.3095,4.318,4.3319,4.3403,4.3587,4.3668,4.3727,4.3757,4.3767,4.3566,4.3571,4.3703,4.3836,4.3831,4.4043,4.3875,4.4038,4.4038,4.3979,4.4131,4.456,4.4771,4.471,4.5109,4.538,4.5318,4.5293,4.5354,4.5438,4.5443,4.5486,4.8347,4.8796,4.8926,4.8961,4.901,4.8977,4.8776,4.8466,4.7958,4.7923,4.8192,4.8487,4.8506,4.8368,4.8573,4.7909,4.659,4.6764,4.6743,4.6569,4.7189,4.79,4.8702,4.9796,5.0135,4.9852,5.0571,5.0752,5.0564,5.0918,5.1283,5.1626,5.1731,5.2063,0.0,0.0,0.0,0.0,5.6263,5.606,5.5489,5.5427,5.4857,5.3752,5.2386,0.0,5.0759,4.9509,4.8571,4.7969,4.7424,0.0,0.0,0.0,0.0,0.0,0.0,0.0,0.0,0.0,0.0,0.0,4.0747,4.0411,3.9696,3.9913,4.0155,4.0225,4.035,4.0294,3.9979,4.0361,4.0738,4.0926,4.1402,4.1934,4.2471,4.2254,4.2119,4.2215,4.2096,4.2154,4.2539,4.2583,4.282,4.326,4.3332,4.3356,4.3417,4.3856,4.4157,4.4188,4.4014,4.3776,4.3368,4.3893,4.4282,4.4391,4.4735,4.4926,4.495,4.495,4.5177,4.5466,4.5742,4.5791,4.5761,4.589,4.5754,4.5398,4.5294,4.5287,4.5333,4.5344,4.5344,4.9222,0.0,4.9676,4.9738,0.0,0.0,5.0025,4.9941,4.8837,4.8372,4.8429,4.8769,4.883,4.8646,4.8926,4.841,4.7374,4.7626,4.7626,4.7379,4.781,4.8395,4.911,4.9853,5.0204,5.0204,5.0486,5.0614,5.0588,5.0614,5.0772,5.1094,5.1251,5.1502,5.1872,5.2607,5.3668,5.4993,5.4831,5.4505,5.4006,5.3484,5.2923,5.2251,0.0,0.0,0.0,0.0,0.0,0.0,0.0,0.0,0.0,0.0,0.0,4.3256,4.2671,4.2409,4.2554,4.2292,4.2026,4.1755,4.1615,4.1186,4.0404,4.0821,4.1116,4.1095,4.1091,4.1033,4.0918,4.1099,4.1303,4.1419,4.165,4.2006,4.2458,4.2455,4.2451,4.2664,4.2642,4.2637,4.2872,4.3154,4.3388,4.367,4.3905,4.4014,4.3999,4.3884,4.3826,4.4013,4.3976,4.3872,4.3808,4.405,4.4518,4.4761,4.5028,4.5296,4.5563,4.5587,4.5684,4.5952,4.6,4.6,4.6,4.6,4.5903,4.566,4.5587,4.5587,4.5594,4.5422,4.53,5.0055,5.0092,5.044,5.047,5.0379,5.0693,5.1013,5.1205,0.0,0.0,0.0,4.8997,4.8991,4.8944,4.9166,4.8888,4.8259,4.8642,4.8492,4.7908,4.8314,4.8742,4.9229,4.9582,4.9989,5.0397,5.0136,5.0168,5.0397,5.0136,5.02,5.0493,5.0804,5.0931,5.0956,5.1681,5.243,5.3098,5.3243,5.3056,5.2541,5.172,5.1172,5.0997,4.9883,4.928,4.9148,4.8665,4.8159,4.7686,4.7083,4.6319,4.5366,4.4774,4.4207,4.3641,4.3114,4.291,4.3198,4.2777,4.2427,4.2332,4.1996,4.1625,4.1253,4.1617,4.1864,4.1805,4.1821,4.1768,4.173,4.1801,4.1817,4.178,4.185,4.2077,4.2521,4.2615,4.2825,4.3301,4.3363,4.3395,4.341,4.3738,4.4042,4.4088,4.4258,4.4626,4.4533,4.4053,4.3828,4.4025,4.4088,4.4111,4.4299,4.4386,4.4584,4.4919,4.5039,4.5207,4.5566,4.5685,4.5765,4.5805,4.5861,4.5861,4.5829,4.5829,4.5805,4.5709,4.5709,4.5685,4.5678,4.5489,4.5311,5.0293,5.0611,5.0939,5.1007,5.0886,5.1238,5.1362,5.1222,5.0494,5.0451,5.0811,4.992,5.0021,5.0836,4.9931,4.9471,4.9339,4.8962,4.8492,0.0,4.8473,4.8781,4.8882,4.9391,4.9675,4.9751,4.9687,4.9687,4.9719,4.9687,4.9847,5.0136,5.02,5.0232,5.0257,5.0365,5.0352,5.0229,5.1955,5.2443,5.1546,5.1355,5.0764,4.9718,4.9211,4.8734,4.8214,4.7843,4.7639,4.7509,4.6741,4.6027,4.5422,4.461,4.3931,4.3411,4.327,4.3215,4.3278,4.3208,4.2988,4.251,4.2056,4.1781,4.17,4.1777,4.1818,4.1821,4.1808,4.1677,4.1457,4.1761,4.1947,4.1753,4.2005,4.2443,4.2935,4.3037,4.3198,4.3627,4.3732,4.3719,4.3706,4.3821,4.3913,4.388,4.4107,4.4019,4.4196,4.4338,4.4569,4.4642,4.4642,4.4675,4.4677,4.4739,4.4771,4.4801,4.4889,4.4969,4.5134,4.5214,4.5299,4.5597,4.5733,4.57,4.57,4.5634,4.5559,4.5252,4.5158,4.5134,4.519,4.5268,4.5334,5.0901,5.1014,5.1376,5.1638,5.1798,5.2117,5.2232,5.2126,5.1574,5.1297,5.1222,5.0778,5.0828,5.123,5.0419,5.0042,5.0017,4.9464,4.9088,4.8862,4.9088,4.9245,4.927,4.9464,4.959,4.959,4.959,4.959,4.959,4.959,4.9654,4.984,4.9815,4.9912,5.0097,4.9912,4.9654,4.9389,5.0294,5.0572,5.0114,4.9719,4.9232,4.8656,4.8149,4.7728,4.7464,4.7098,4.6931,4.6898,4.6267,4.5733,4.5497,4.4863,4.4366,4.4108,4.3948,4.3916,4.4085,4.3699,4.3253,4.2708,4.2575,4.2504,4.2504,4.2149,4.1939,4.204,4.2087,4.214,4.2269,4.2469,4.2659,4.2784,4.3005,4.3234,4.3418,4.3464,4.3579,4.3762,4.3808,4.3808,4.3808,4.4061,4.4245,4.4267,4.4451,4.4668,4.4668,4.4902,4.496,4.4603,4.4552,4.4617,4.4747,4.4812,4.4906,4.5165,4.5268,4.5385,4.5573,4.5667,4.5761,4.5973,4.602,4.602,4.602,4.602,4.5902,4.5785,4.5667,4.5667,4.57,4.5611,4.5527,5.1341,5.1247,5.1726,5.2169,5.2525,5.2792,5.2895,5.2845,5.2418,5.2051,5.1649,5.1423,5.1423,5.1574,5.0795,5.0544,5.067,4.9941,4.9665,4.9766,4.964,4.959,4.959,4.959,4.9665,4.9766,4.9791,4.9791,4.9766,4.9791,4.9683,4.9518,4.9421,4.9486,4.959,4.9364,4.9072,4.8747,4.8682,4.8714,4.8845,4.8223,4.7861,4.7729,4.7198,4.6865,4.6831,4.654,4.6405,4.6382,4.5929,4.5605,4.5464,4.5047,4.4701,4.4552,4.4356,4.4258,4.4398,4.379,4.3235,4.2834,4.2931,4.2997,4.2961,4.2514,4.2256,4.2463,4.2436,4.2563,4.286,4.2974,4.3167,4.3499,4.3545,4.3535,4.3682,4.3727,4.3829,4.3841,4.3887,4.391,4.3989,4.433,4.4649,4.4841,4.5151,4.5381,4.5404,4.5404,4.5114,4.4774,4.454,4.4708,4.4902,4.4958,4.5112,4.5505,4.5519,4.5625,4.5939,4.6113,4.617,4.6079,4.6113,4.6056,4.6136,4.6136,4.6079,4.6009,4.5952,4.609,4.6144,4.5909,4.5616,5.1225,5.1341,5.2005,5.255,5.2826,5.2895,5.2895,5.2895,5.282,5.2795,5.2594,5.1724,5.1875,5.2443,5.1113,5.0996,5.1749,5.0318,4.9891,5.0243,4.9816,4.9615,4.9665,4.9615,4.9866,5.0293,5.0343,5.0343,5.0343,5.0285,4.9929,4.9187,4.8837,4.8543,4.8256,4.819,4.7993,4.763,4.7331,4.7497,4.8026,4.7729,4.7398,4.7098,4.6697,4.6439,4.6439,4.6405,4.6372,4.6372,4.6022,4.5644,4.5192,4.481,4.438,4.3976,4.3864,4.3742,4.3468,4.3003,4.2792,4.2714,4.277,4.2804,4.2771,4.2714,4.2802,4.3012,4.2869,4.2692,4.2715,4.2782,4.2882,4.3028,4.2995,4.2962,4.3455,4.3534,4.3691,4.4208,4.4209,4.4253,4.4266,4.4539,4.4892,4.5141,4.5278,4.5404,4.5404,4.5404,4.5381,4.5311,4.5288,4.5265,4.5286,4.5344,4.5343,4.5435,4.5448,4.5504,4.5619,4.5585,4.5517,4.5686,4.5551,4.5585,4.5551,4.5506,4.5574,4.5652,4.5652,4.5619,4.5856,4.5887,4.5625,5.1609,5.1621,5.2144,5.2619,5.2861,5.2895,5.2895,5.2895,5.2895,5.2895,5.2845,5.2452,5.2503,5.282,5.1816,5.1674,5.2026,5.1046,5.0695,5.0896,5.0728,5.0594,5.0594,5.0594,5.072,5.0921,5.0946,5.0921,5.0837,5.0397,4.9652,4.8854,4.8445,4.8182,4.7993,4.7597,4.7331,4.7222,4.6831,4.6798,4.6974,4.6931,4.6774,4.663,4.6271,4.6092,4.6092,4.59,4.5822,4.5788,4.5449,4.5153,4.4947,4.4607,4.4313,4.4143,4.4086,4.3883,4.3444,4.3253,4.3018,4.2705,4.2973,4.3152,4.3175,4.3229,4.3373,4.3408,4.3007,4.2828,4.3085,4.3152,4.3298,4.3578,4.3645,4.3735,4.3937,4.3959,4.4071,4.4285,4.4307,4.4307,4.4376,4.4594,4.4834,4.504,4.521,4.5404,4.5404,4.5404,4.5404,4.5404,4.5404,4.5404,4.5404,4.5404,4.5404,4.5404,4.5404,4.5404,4.5404,4.5404,4.5404,4.5404,4.5404,4.5404,4.5438,4.5404,4.5404,4.5404,4.5404,4.5472,4.5585,4.5585,4.5398,5.1883,5.188,5.2342,5.2688,5.2895,5.2895,5.2895,5.2895,5.2895,5.2895,5.2895,5.2895,5.2895,5.282,5.2352,5.2176,5.2226,5.1599,5.1373,5.1473,5.1381,5.1306,5.1306,5.1306,5.1373,5.1498,5.1398,5.1222,5.0947,5.0066,4.9191,4.8485,4.8059,4.7795,4.7663,4.7222,4.6931,4.6798,4.6463,4.6294,4.6237,4.6069,4.6035,4.6204,4.5822,4.5619,4.5585,4.5278,4.5108,4.5074,4.48,4.4663,4.4663,4.4445,4.4307,4.4307,4.4204,4.3978,4.3587,4.3462,4.3272,4.2927,4.3216,4.3428,4.3426,4.352,4.3558,4.3492,4.3124,4.3038,4.3305,4.3428,4.3606,4.3952,4.3997,4.3997,4.394,4.3997,4.394,4.3997,4.3927,4.4031,4.4147,4.4423,4.4663,4.4834,4.5142,4.5404,4.5404,4.5404,4.5404,4.5404,4.5404,4.5404,4.5404,4.5404,4.5404,4.5404,4.5404,4.5404,4.5404,4.5404,4.5404,4.5404,4.5404,4.5404,4.5404,4.5404,4.5404,4.5404,4.5404,4.5404,4.5472,4.5438,4.5438,5.1786,5.1925,5.2585,5.2861,5.2895,5.2895,5.2895,5.2895,5.2895,5.2895,5.2895,5.2895,5.2895,5.287,5.2402,5.2368,5.2669,5.1825,5.1649,5.2,5.1574,5.1297,5.1306,5.1331,5.1574,5.1983,5.1712,5.1098,5.029,4.938,4.8561,4.8066,4.7735,4.7412,4.7146,4.6989,4.6798,4.6439,4.6069,4.5923,4.5822,4.5244,4.5244,4.5754,4.5244,4.4869,4.4834,4.4526,4.4376,4.4376,4.4319,4.4342,4.4342,4.4273,4.4273,4.4238,4.3905,4.3697,4.364,4.341,4.3214,4.318,4.3171,4.3223,4.3249,4.328,4.3267,4.3254,4.3214,4.3193,4.3214,4.3262,4.3236,4.3245,4.3267,4.3289,4.3289,4.3337,4.3289,4.3324,4.3359,4.3476,4.3697,4.41,4.4457,4.4766,4.5142,4.5404,4.5404,4.5404,4.5404,4.5404,4.5404,4.5404,4.5404,4.5404,4.5404,4.5404,4.5404,4.5404,4.5404,4.5404,4.5404,4.5404,4.5404,4.5404,4.5404,4.5404,4.5404,4.5404,4.5404,4.5404,4.5404,4.5404,4.5404,5.2361,5.2515,5.2792,5.2895,5.2895,5.2895,5.2895,5.2895,5.2895,5.2895,5.2895,5.2895,5.2895,5.287,5.2694,5.2694,5.2845,5.2503,5.2418,5.2603,5.2393,5.2327,5.2327,5.2293,5.2291,5.2235,5.2123,5.1472,5.0431,4.9957,4.931,4.8396,4.7901,4.7498,4.7079,4.656,4.6227,4.6025,4.5517,4.521,4.5176,4.4732,4.4629,4.4834,4.4629,4.4457,4.4457,4.4354,4.4307,4.4307,4.4043,4.3927,4.3893,4.3685,4.358,4.358,4.3441,4.3372,4.3372,4.3254,4.3219,4.3219,4.3219,4.3219,4.3219,4.3219,4.3219,4.3219,4.3219,4.3219,4.3219,4.3219,4.3093,4.2896,4.3023,4.3093,4.2953,4.3023,4.3219,4.3219,4.3219,4.3254,4.3441,4.3927,4.4342,4.4514,4.5028,4.537,4.5404,4.5404,4.5404,4.5404,4.5404,4.5404,4.5404,4.5404,4.5404,4.5404,4.5404,4.5404,4.5404,4.5404,4.5404,4.5404,4.5404,4.5404,4.5404,4.5404,4.5404,4.5404,4.5404,4.5404,4.5404,4.5404,4.5404,5.2534,5.2713,5.2757,5.2792,5.2895,5.2895,5.2895,5.2895,5.2895,5.2895,5.2895,5.2895,5.2895,5.2895,5.2895,5.2895,5.2895,5.2895,5.2895,5.2895,5.2895,5.2826,5.2757,5.2757,5.255,5.2238,5.204,5.1352,5.0205,5.0052,4.9416,4.8303,4.7983,4.7575,4.7,4.6308,4.5871,4.5495,4.4937,4.4629,4.4594,4.4285,4.4078,4.41,4.3997,4.3997,4.41,4.3997,4.3927,4.3915,4.3817,4.3832,4.3951,4.3762,4.3643,4.3643,4.3678,4.3591,4.346,4.3438,4.3372,4.3219,4.3219,4.3219,4.3219,4.3219,4.3219,4.3219,4.3219,4.3219,4.3219,4.3219,4.3023,4.2721,4.2848,4.2918,4.2651,4.2826,4.3023,4.3184,4.3219,4.3219,4.3289,4.3858,4.4238,4.4307,4.496,4.537,4.5404,4.5404,4.5404,4.5404,4.5404,4.5404,4.5404,4.5404,4.5404,4.5404,4.5404,4.5404,4.5404,4.5404,4.5404,4.5404,4.5404,4.5404,4.5404,4.5404,4.5404,4.5404,4.5404,4.5404,4.5404,4.5404,4.5404,5.2182,5.2367,5.2412,5.2585,5.2792,5.2826,5.2861,5.2861,5.2895,5.2895,5.2895,5.2895,5.2895,5.2895,5.2895,5.2895,5.2861,5.2826,5.2826,5.2861,5.2861,5.2688,5.2412,5.2412,5.2169,5.1761,5.1376,5.0583,4.9519,4.9426,4.8919,4.8122,4.7923,4.7515,4.6715,4.6231,4.5622,4.4993,4.4502,4.4307,4.4273,4.395,4.3786,4.3729,4.3551,4.3538,4.3751,4.3473,4.339,4.3421,4.3736,4.4116,4.4479,4.4473,4.4539,4.4473,4.4517,4.4356,4.3963,4.3897,4.3722,4.346,4.3307,4.3351,4.3329,4.3285,4.3263,4.3219,4.3219,4.3219,4.3219,4.3219,4.3023,4.2686,4.2651,4.2651,4.2624,4.2638,4.2778,4.3123,4.3206,4.3219,4.3359,4.3823,4.4273,4.4445,4.4926,4.5404,4.5404,4.5404,4.5404,4.5404,4.5404,4.5404,4.5404,4.5404,4.5404,4.5404,4.5404,4.5404,4.5404,4.5404,4.5404,4.5404,4.5404,4.5404,4.5404,4.5404,4.5404,4.5404,4.5404,4.5404,4.5404,4.5404,4.5404,5.2005,5.1985,5.1995,5.203,5.2169,5.2446,5.255,5.2585,5.2792,5.2895,5.2895,5.2895,5.2895,5.2895,5.2895,5.2757,5.2585,5.2585,5.2585,5.255,5.255,5.2377,5.2064,5.1995,5.1761,5.1341,5.0742,5.0257,4.9831,4.9558,4.9144,4.8624,4.799,4.744,4.6844,4.5899,4.5145,4.4905,4.4256,4.387,4.388,4.3854,4.3855,4.3841,4.4042,4.4217,4.4302,4.3889,4.3853,4.4124,4.4277,4.443,4.4561,4.4582,4.4582,4.4582,4.4582,4.4561,4.4444,4.4364,4.4298,4.4167,4.4124,4.4006,4.3744,4.3678,4.3525,4.3285,4.3219,4.3219,4.3219,4.3219,4.3023,4.263,4.2616,4.264,4.2678,4.2892,4.3112,4.3211,4.3241,4.3206,4.3324,4.3823,4.4273,4.4376,4.4926,4.5404,4.5404,4.5404,4.5404,4.5404,4.5404,4.5404,4.5404,4.5404,4.5404,4.5404,4.5404,4.5404,4.5404,4.5404,4.5404,4.5404,4.5404,4.5404,4.5404,4.5404,4.5404,4.5404,4.5404,4.5404,4.5404,4.5404,4.5404,5.2014,5.1845,5.1684,5.1681,5.182,5.2099,5.2179,5.2203,5.2412,5.2481,5.2481,5.2481,5.2481,5.2481,5.2515,5.2377,5.2203,5.2203,5.2099,5.2005,5.2134,5.196,5.1551,5.1271,5.106,5.0718,5.0151,4.9818,4.9699,4.9281,4.892,4.8453,4.7839,4.7218,4.6758,4.5873,4.527,4.4976,4.4392,4.4039,4.407,4.4113,4.4159,4.4189,4.4322,4.4489,4.4583,4.42,4.4163,4.4532,4.4757,4.4932,4.5085,4.5129,4.5107,4.5107,4.5107,4.5063,4.4888,4.4866,4.4757,4.4648,4.4582,4.4364,4.4006,4.3897,4.37,4.3307,4.3219,4.3219,4.3219,4.3219,4.308,4.2883,4.2686,4.264,4.2707,4.3042,4.3271,4.3277,4.3246,4.3257,4.339,4.382,4.4295,4.4411,4.496,4.5404,4.5404,4.5404,4.5404,4.5404,4.5404,4.5404,4.5404,4.5404,4.5404,4.5404,4.5404,4.5404,4.5404,4.5404,4.5404,4.5404,4.5404,4.5404,4.5404,4.5404,4.5404,4.5404,4.5404,4.5404,4.5404,4.5404,4.5404,5.2115,5.1918,5.1408,5.139,5.1681,5.1751,5.1786,5.1761,5.1855,5.189,5.1855,5.1925,5.189,5.1855,5.1999,5.1964,5.181,5.1884,5.159,5.1365,5.1411,5.1411,5.1036,5.0495,5.0211,5.0068,4.9688,4.9317,4.9016,4.8595,4.8182,4.7808,4.7397,4.6925,4.648,4.6055,4.5506,4.5116,4.4755,4.4531,4.4495,4.4568,4.4518,4.4503,4.43,4.4334,4.462,4.4362,4.4301,4.4641,4.5004,4.5411,4.5797,4.5943,4.5893,4.5871,4.598,4.5718,4.5456,4.5347,4.5194,4.4866,4.4735,4.4465,4.4094,4.3941,4.37,4.3285,4.3219,4.3219,4.3219,4.3219,4.3184,4.315,4.2913,4.271,4.2667,4.302,4.3249,4.3328,4.3307,4.3299,4.3297,4.3884,4.4214,4.4445,4.4926,4.5336,4.5404,4.5404,4.5404,4.5404,4.5404,4.5404,4.5404,4.5404,4.5404,4.5404,4.5404,4.5404,4.5404,4.5404,4.5404,4.5404,4.5404,4.5404,4.5404,4.5404,4.5404,4.5404,4.5404,4.5404,4.5404,4.5404,4.5404,5.166,5.1177,5.107,5.0997,5.1038,5.1236,5.1376,5.1411,5.1656,5.1751,5.1786,5.1786,5.1775,5.1835,5.2203,5.2013,5.1596,5.1755,5.1304,5.0519,5.0495,5.0495,5.0317,4.9902,4.9652,4.9604,4.9281,4.8944,4.8582,4.8123,4.7721,4.7332,4.6965,4.6699,4.647,4.583,4.5428,4.5194,4.483,4.4446,4.4293,4.4538,4.4485,4.427,4.4437,4.4614,4.4763,4.471,4.463,4.4747,4.5147,4.5425,4.5571,4.5816,4.5965,4.6002,4.6002,4.5959,4.5849,4.5806,4.574,4.5631,4.5281,4.4932,4.4465,4.4094,4.37,4.3329,4.3219,4.3219,4.3219,4.3219,4.3219,4.3228,4.3122,4.2977,4.2807,4.3028,4.3292,4.3307,4.326,4.3257,4.3368,4.3817,4.4273,4.4445,4.4891,4.5404,4.5404,4.5404,4.5404,4.5404,4.5404,4.5404,4.5404,4.5404,4.5404,4.5404,4.5404,4.5404,4.5404,4.5404,4.5404,4.5404,4.5404,4.5404,4.5404,4.5404,4.5404,4.5404,4.5404,4.5404,4.5404,4.5404,4.5404,5.1595,5.125,5.1037,5.0767,5.0592,5.0937,5.0935,5.0837,5.1155,5.133,5.1379,5.1574,5.1682,5.172,5.2207,5.2065,5.1477,5.1682,5.1297,5.0577,5.0159,4.9947,4.9758,4.9496,4.9209,4.8993,4.8667,4.8268,4.7868,4.7502,4.7149,4.6891,4.6559,4.6336,4.6255,4.5747,4.5329,4.527,4.4921,4.4571,4.4371,4.4607,4.4603,4.4406,4.4548,4.4504,4.4352,4.4277,4.4428,4.473,4.5031,4.5218,4.5405,4.563,4.5816,4.5965,4.6002,4.6002,4.6002,4.6002,4.6002,4.5959,4.5718,4.5281,4.4713,4.4298,4.3949,4.3329,4.3241,4.3219,4.3219,4.3219,4.3219,4.3206,4.3249,4.3154,4.2941,4.3128,4.3271,4.3299,4.3254,4.3257,4.3271,4.3887,4.4192,4.4445,4.496,4.5267,4.5404,4.5404,4.5404,4.5404,4.5404,4.5404,4.5404,4.5404,4.5404,4.5404,4.5404,4.5404,4.5404,4.5404,4.5404,4.5404,4.5404,4.5404,4.5404,4.5404,4.5404,4.5404,4.5404,4.5404,4.5404,4.5404,4.5404,5.1709,5.1676,5.1231,5.0775,5.0462,5.0742,5.071,5.0365,5.0651,5.0794,5.089,5.125,5.1429,5.1477,5.1945,5.1954,5.1505,5.1613,5.1258,5.0664,5.0029,4.9547,4.9192,4.8931,4.8618,4.8268,4.7904,4.7575,4.7245,4.6817,4.6596,4.6448,4.6114,4.5965,4.5832,4.5512,4.5368,4.525,4.494,4.471,4.4597,4.4623,4.457,4.444,4.4235,4.3911,4.3684,4.3667,4.3936,4.4617,4.4692,4.4918,4.5256,4.533,4.563,4.5928,4.6002,4.6002,4.6002,4.6002,4.6002,4.598,4.5937,4.5565,4.4779,4.4465,4.405,4.3285,4.3263,4.3394,4.3504,4.3416,4.3482,4.349,4.3425,4.3272,4.328,4.3295,4.3299,4.3299,4.3313,4.3277,4.3475,4.3854,4.4307,4.4376,4.4891,4.5301,4.5404,4.5404,4.5404,4.5404,4.5404,4.5404,4.5404,4.5404,4.5404,4.5404,4.5404,4.5404,4.5404,4.5404,4.5404,4.5404,4.5404,4.5404,4.5404,4.5404,4.5404,4.5404,4.5404,4.5404,4.5404,4.5404,4.5404,5.1148,5.1309,5.1193,5.1054,5.0906,5.0932,5.0899,5.0781,5.0891,5.0893,5.0951,5.1069,5.1153,5.114,5.1686,5.1646,5.1299,5.146,5.1161,5.0057,4.9614,4.8913,4.8458,4.8177,4.7876,4.7538,4.7392,4.7112,4.678,4.6559,4.6411,4.6077,4.5742,4.5518,4.548,4.5143,4.4918,4.4918,4.4805,4.4579,4.4374,4.4315,4.4201,4.3936,4.3843,4.3521,4.3221,4.3428,4.367,4.386,4.4163,4.4504,4.488,4.5218,4.5555,4.5853,4.5965,4.6002,4.6002,4.6002,4.6002,4.598,4.5718,4.5238,4.467,4.4334,4.3875,4.3394,4.3525,4.3875,4.4088,4.4255,4.4189,4.4102,4.3919,4.3722,4.37,4.3433,4.3241,4.3219,4.3219,4.3232,4.3232,4.3887,4.4238,4.4376,4.4789,4.5301,4.5404,4.5404,4.5404,4.5404,4.5404,4.5404,4.5404,4.5404,4.5404,4.5404,4.5404,4.5404,4.5404,4.5404,4.5404,4.5404,4.5404,4.5404,4.5404,4.5404,4.5404,4.5404,4.5404,4.5404,4.5404,4.5404,4.5404,5.0591,5.0727,5.0727,5.0658,5.0585,5.074,5.0811,5.0787,5.0949,5.0986,5.1057,5.1258,5.1376,5.1423,5.1892,5.1911,5.153,5.1329,5.0857,5.0048,4.9562,4.8964,4.843,4.7992,4.7612,4.7062,4.6928,4.6707,4.6374,4.6114,4.5891,4.5704,4.533,4.5143,4.5068,4.473,4.4541,4.4466,4.4315,4.4125,4.3957,4.3898,4.386,4.3653,4.3615,4.347,4.3325,4.347,4.3594,4.3653,4.3784,4.4088,4.4504,4.4918,4.5293,4.5667,4.5928,4.5965,4.6002,4.6002,4.6002,4.6002,4.5762,4.5412,4.5041,4.4706,4.4378,4.405,4.4058,4.4306,4.4308,4.4294,4.4388,4.4495,4.4146,4.3933,4.4044,4.3644,4.3219,4.3219,4.3206,4.3206,4.3429,4.3927,4.4204,4.4376,4.4926,4.5404,4.5404,4.5404,4.5404,4.5404,4.5404,4.5404,4.5404,4.5404,4.5404,4.5404,4.5404,4.5404,4.5404,4.5404,4.5404,4.5404,4.5404,4.5404,4.5404,4.5404,4.5404,4.5404,4.5404,4.5404,4.5404,4.5404,4.5404,5.0143,5.0204,5.0204,5.0152,5.0084,5.0399,5.0536,5.0507,5.0811,5.0951,5.1068,5.1526,5.1577,5.1708,5.1997,5.2054,5.1593,5.1069,5.0397,4.9941,4.9595,4.9079,4.8609,4.8156,4.761,4.6697,4.6572,4.6282,4.5912,4.5518,4.5368,4.5218,4.4918,4.473,4.4617,4.4315,4.4109,4.4071,4.3881,4.3729,4.3653,4.3632,4.3573,4.3449,4.3594,4.3511,4.3391,4.3473,4.3615,4.3615,4.3615,4.3805,4.4109,4.4579,4.4993,4.5405,4.5779,4.5965,4.6002,4.6002,4.6002,4.6002,4.598,4.5762,4.5391,4.5194,4.491,4.4677,4.4554,4.4504,4.4256,4.4276,4.4473,4.4612,4.4306,4.417,4.4357,4.385,4.3298,4.3219,4.3219,4.3219,4.3476,4.3893,4.4135,4.4445,4.5028,4.5404,4.5404,4.5404,4.5404,4.5404,4.5404,4.5404,4.5404,4.5404,4.5404,4.5404,4.5404,4.5404,4.5404,4.5404,4.5404,4.5404,4.5404,4.5404,4.5404,4.5404,4.5404,4.5404,4.5404,4.5404,4.5404,4.5404,4.5404,4.9852,5.0204,5.0204,5.0199,5.017,5.0265,5.0252,5.0307,5.0641,5.0825,5.0879,5.1286,5.1247,5.1101,5.1008,5.0866,5.0633,5.0322,5.0048,4.9695,4.944,4.905,4.8447,4.826,4.7651,4.6865,4.6398,4.5993,4.5551,4.5106,4.5024,4.4848,4.4546,4.4319,4.4184,4.3957,4.3767,4.3805,4.3653,4.3615,4.3615,4.3594,4.347,4.3242,4.347,4.3428,4.3225,4.3428,4.3615,4.3615,4.3615,4.3653,4.386,4.439,4.4918,4.533,4.5704,4.5928,4.6002,4.6002,4.6002,4.6002,4.6002,4.5806,4.5478,4.5288,4.5157,4.483,4.4713,4.4774,4.5125,4.4704,4.5013,4.5248,4.4925,4.4595,4.487,4.4207,4.3232,4.3241,4.3245,4.3337,4.3719,4.4031,4.4342,4.4629,4.5074,4.537,4.5404,4.5404,4.5404,4.5404,4.5404,4.5404,4.5404,4.5404,4.5404,4.5404,4.5404,4.5404,4.5404,4.5404,4.5404,4.5404,4.5404,4.5404,4.5404,4.5404,4.5404,4.5404,4.5404,4.5404,4.5404,4.5404,4.5404,4.9342,4.9516,4.9538,4.9656,4.9813,4.9852,4.9987,5.0221,5.04,5.0478,5.0555,5.0672,5.0672,5.0516,5.0478,5.0244,4.9931,4.9852,4.9617,4.9241,4.9162,4.8899,4.8261,4.8261,4.7665,4.6969,4.6393,4.5963,4.5501,4.535,4.4947,4.4517,4.4297,4.4148,4.3923,4.3729,4.3635,4.3635,4.3635,4.3615,4.3615,4.3615,4.3449,4.3428,4.3449,4.347,4.337,4.3411,4.3615,4.3615,4.3615,4.3615,4.3767,4.4088,4.4654,4.5068,4.548,4.5816,4.5965,4.6002,4.6002,4.6002,4.6002,4.5915,4.574,4.5616,4.5411,4.5066,4.4771,4.4758,4.4725,4.4579,4.4805,4.5073,4.4743,4.4669,4.4757,4.4054,4.3629,4.3341,4.3222,4.3456,4.3997,4.4285,4.456,4.4869,4.5199,4.5381,4.5519,4.5541,4.561,4.5587,4.561,4.561,4.5633,4.5656,4.5656,4.561,4.5564,4.5564,4.5473,4.5496,4.545,4.5404,4.5404,4.5404,4.5404,4.5404,4.5404,4.5404,4.5404,4.5404,4.5404,4.5404,4.5404,4.871,4.8789,4.8789,4.9026,4.9342,4.9381,4.9578,4.9908,5.0048,5.0048,5.0087,5.0165,5.0204,5.0048,4.9908,4.9712,4.9381,4.9381,4.9144,4.8868,4.8789,4.8529,4.8251,4.8071,4.7679,4.6987,4.6683,4.6121,4.5599,4.5412,4.4988,4.4681,4.4435,4.4277,4.4029,4.4049,4.3863,4.376,4.3739,4.3739,4.3635,4.3615,4.3615,4.3615,4.3615,4.3594,4.3553,4.3594,4.3615,4.3615,4.3615,4.3615,4.3653,4.3919,4.4239,4.4654,4.5143,4.5555,4.5779,4.5965,4.6002,4.6002,4.6002,4.5965,4.5794,4.558,4.5512,4.5293,4.4896,4.4537,4.4352,4.4125,4.4352,4.4645,4.4497,4.4251,4.4521,4.4307,4.3838,4.3573,4.3341,4.3657,4.4298,4.5032,4.5423,4.5666,4.5966,4.5978,4.607,4.6001,4.6001,4.5909,4.5909,4.5909,4.5932,4.6024,4.6047,4.6093,4.6024,4.6001,4.5817,4.5633,4.5587,4.5541,4.5404,4.5404,4.5404,4.5427,4.5404,4.5404,4.5404,4.5404,4.5404,4.5404,4.5404,4.7973,4.8392,4.8392,4.8591,4.8947,4.8986,4.8986,4.9144,4.946,4.9578,4.9617,4.997,4.9931,4.9617,4.9223,4.9065,4.8986,4.8886,4.8688,4.837,4.8352,4.8132,4.7733,4.7693,4.7392,4.6945,4.6867,4.6384,4.5778,4.5339,4.5078,4.4873,4.4873,4.4836,4.465,4.4608,4.4629,4.4298,4.4215,4.4029,4.3718,4.3656,4.3656,4.3615,4.3615,4.3615,4.3615,4.3615,4.3615,4.3615,4.3615,4.3615,4.3615,4.3615,4.3881,4.4352,4.488,4.5405,4.5518,4.5704,4.5853,4.5816,4.5891,4.5779,4.5518,4.5181,4.4955,4.488,4.4504,4.4239,4.4109,4.3881,4.4125,4.4285,4.4299,4.4437,4.4657,4.4177,4.3784,4.3897,4.3685,4.4149,4.4725,4.5559,4.6267,4.6491,4.6643,4.6504,4.6436,4.6181,4.6171,4.6032,4.623,4.6323,4.63,4.6369,4.638,4.6472,4.6426,4.6415,4.6231,4.5989,4.584,4.5771,4.5633,4.561,4.5702,4.5679,4.5496,4.5404,4.5404,4.5404,4.5404,4.5404,4.5427,4.7293,4.7893,4.7933,4.8172,4.8551,4.8551,4.871,4.8907,4.9105,4.9184,4.9184,4.9342,4.9342,4.9065,4.8749,4.8591,4.8511,4.8331,4.8092,4.7933,4.7853,4.7653,4.7354,4.7234,4.7033,4.6711,4.6569,4.6424,4.5948,4.5784,4.5581,4.5084,4.5229,4.5209,4.5126,4.5022,4.4877,4.4733,4.465,4.4463,4.4132,4.3987,4.3884,4.3635,4.3635,4.3635,4.3615,4.3615,4.3615,4.3615,4.3615,4.3615,4.3615,4.3615,4.3691,4.3881,4.439,4.4805,4.5031,4.5218,4.533,4.533,4.533,4.5218,4.4993,4.4692,4.4466,4.4466,4.4088,4.3919,4.3881,4.3729,4.3843,4.3949,4.3991,4.4062,4.4219,4.3952,4.3623,4.3858,4.413,4.4467,4.472,4.5011,4.5622,4.6091,4.5939,4.5609,4.5662,4.5679,4.5785,4.5985,4.6373,4.6782,4.6736,4.6736,4.6689,4.67,4.677,4.6701,4.6632,4.6507,4.6311,4.6323,4.6369,4.6323,4.6185,4.584,4.5541,4.545,4.5404,4.5496,4.5587,4.5473,4.5496,4.6711,4.7293,4.7413,4.7693,4.8132,4.8132,4.8291,4.8529,4.8591,4.8529,4.8591,4.8569,4.8591,4.8551,4.8251,4.8092,4.8092,4.7773,4.7573,4.7493,4.7413,4.7194,4.6952,4.6791,4.663,4.6307,4.6388,4.6285,4.6306,4.6203,4.5872,4.5354,4.5705,4.5685,4.5457,4.5395,4.5374,4.5188,4.5022,4.4774,4.4526,4.4463,4.4194,4.3946,4.378,4.3739,4.3635,4.3615,4.3615,4.3822,4.3822,4.3842,4.3842,4.4008,4.3863,4.3916,4.4137,4.431,4.4529,4.4692,4.4767,4.4767,4.4692,4.4692,4.4617,4.4277,4.405,4.405,4.3843,4.3653,4.3615,4.3615,4.3653,4.3691,4.3687,4.3632,4.3594,4.3584,4.3576,4.3686,4.4004,4.4388,4.4534,4.4377,4.4771,4.5483,4.5367,4.4852,4.5011,4.5337,4.5606,4.5897,4.6172,4.6627,4.6761,4.68,4.6839,4.6948,4.6983,4.6938,4.6844,4.6917,4.6908,4.6989,4.6977,4.6805,4.653,4.6047,4.5633,4.584,4.6001,4.584,4.5794,4.5702,4.5771,4.6347,4.6428,4.6872,4.7274,4.7653,4.7653,4.7672,4.7813,4.7773,4.7773,4.7813,4.7773,4.7813,4.7733,4.7733,4.7653,4.7653,4.7613,4.7333,4.7113,4.6993,4.6791,4.6549,4.6428,4.6388,4.6307,4.6307,4.6307,4.6307,4.6307,4.6245,4.6224,4.61,4.6183,4.6121,4.5955,4.5871,4.5623,4.5354,4.5126,4.4981,4.4898,4.4712,4.436,4.4215,4.407,4.3656,4.3698,4.3884,4.4215,4.4256,4.4256,4.4298,4.4505,4.436,4.4088,4.4189,4.4283,4.427,4.442,4.4692,4.4654,4.4466,4.4239,4.4201,4.3881,4.3691,4.3729,4.3653,4.3615,4.3615,4.3615,4.3615,4.3615,4.3615,4.3615,4.3615,4.3594,4.3591,4.3594,4.3843,4.4125,4.4239,4.4107,4.4523,4.5235,4.5146,4.4681,4.5027,4.5344,4.5601,4.5814,4.5932,4.6249,4.6551,4.6624,4.6693,4.6902,4.7069,4.7028,4.6974,4.7121,4.7196,4.7237,4.7133,4.7033,4.692,4.6586,4.6426,4.6541,4.6541,4.6346,4.6392,4.6472,4.6552,4.6307,4.6307,4.6509,4.6832,4.7234,4.7234,4.7373,4.7573,4.7613,4.7613,4.7613,4.7613,4.7613,4.7533,4.7314,4.7234,4.7194,4.6891,4.6751,4.663,4.6509,4.6428,4.6307,4.6307,4.6307,4.6307,4.6307,4.6307,4.6307,4.6307,4.6307,4.6307,4.6307,4.6286,4.6286,4.6307,4.6183,4.6079,4.5831,4.5686,4.5436,4.5395,4.5188,4.4774,4.4381,4.4422,4.4401,4.4174,4.436,4.4588,4.4712,4.4733,4.4753,4.496,4.4815,4.4484,4.4629,4.4567,4.4319,4.4273,4.4071,4.405,4.3919,4.3843,4.3881,4.3691,4.3615,4.3615,4.3615,4.3615,4.3615,4.3615,4.3615,4.3615,4.3615,4.3615,4.3615,4.3615,4.3615,4.3615,4.3615,4.3767,4.3805,4.3801,4.4365,4.4966,4.4708,4.4579,4.4843,4.5031,4.5181,4.5368,4.5443,4.5704,4.6002,4.6262,4.6485,4.6743,4.7002,4.697,4.69,4.7099,4.7191,4.7263,4.7425,4.7474,4.7431,4.725,4.716,4.7069,4.6908,4.6678,4.6862,4.7183,4.7206,4.6307,4.6307,4.6307,4.6509,4.6772,4.6772,4.6952,4.7173,4.7173,4.7213,4.7213,4.7213,4.7213,4.7132,4.6952,4.6791,4.6711,4.6509,4.6388,4.6347,4.6347,4.6307,4.6307,4.6307,4.6307,4.6307,4.6307,4.6307,4.6307,4.6307,4.6307,4.6307,4.6307,4.6307,4.6307,4.6307,4.6307,4.6307,4.6265,4.6183,4.5892,4.5871,4.5664,4.525,4.494,4.4795,4.4836,4.467,4.4774,4.5043,4.5188,4.5209,4.525,4.5271,4.5229,4.5147,4.5105,4.5147,4.4857,4.4505,4.3967,4.3981,4.394,4.3819,4.3656,4.3615,4.3615,4.3615,4.3615,4.3615,4.3615,4.3615,4.3615,4.3615,4.3615,4.3615,4.3615,4.3615,4.3615,4.3615,4.3615,4.3653,4.3653,4.3691,4.3919,4.4352,4.4201,4.405,4.4088,4.4277,4.439,4.4579,4.473,4.5068,4.5405,4.5443,4.5555,4.6077,4.6336,4.667,4.6751,4.6928,4.7149,4.7276,4.7495,4.7895,4.7881,4.7705,4.7548,4.7459,4.7367,4.7321,4.7482,4.7757,4.7689,4.6307,4.6307,4.6307,4.6307,4.6388,4.6347,4.6388,4.6468,4.6428,4.6489,4.6531,4.6469,4.6469,4.6469,4.649,4.6428,4.6428,4.6347,4.6307,4.6307,4.6307,4.6307,4.6348,4.6348,4.641,4.6327,4.6389,4.6431,4.6431,4.6534,4.6472,4.6348,4.6369,4.6307,4.6307,4.6307,4.6307,4.6307,4.6307,4.6265,4.6224,4.6183,4.5995,4.5747,4.5498,4.5312,4.525,4.5084,4.5229,4.5581,4.5664,4.5664,4.5685,4.5934,4.5769,4.5229,4.5519,4.5457,4.5084,4.4981,4.4753,4.4339,4.4215,4.407,4.378,4.3656,4.3677,4.3739,4.3656,4.3635,4.3635,4.3656,4.3698,4.3801,4.3842,4.3739,4.376,4.3615,4.3615,4.3615,4.3615,4.3615,4.3615,4.3615,4.3615,4.3729,4.3653,4.3615,4.3653,4.3729,4.3919,4.4033,4.4222,4.4315,4.4579,4.4428,4.4617,4.5218,4.5742,4.6077,4.6411,4.6633,4.6891,4.7149,4.7355,4.7538,4.7831,4.8077,4.7971,4.7895,4.8079,4.8148,4.8263,4.824,4.8102,4.6307,4.6307,4.6307,4.6307,4.6307,4.6307,4.6307,4.6307,4.6327,4.6472,4.6658,4.6472,4.6513,4.6596,4.6431,4.6307,4.6307,4.6307,4.6307,4.6307,4.6307,4.6534,4.6576,4.6513,4.6617,4.701,4.703,4.6927,4.7279,4.7134,4.6989,4.6824,4.6451,4.6307,4.6307,4.6307,4.6307,4.6307,4.6307,4.6307,4.6307,4.6286,4.6224,4.6038,4.585,4.5747,4.5728,4.5581,4.5685,4.5955,4.6057,4.6078,4.6038,4.6286,4.6141,4.5831,4.6058,4.6017,4.5872,4.579,4.5519,4.4981,4.4526,4.4463,4.4463,4.3884,4.3863,4.3887,4.3842,4.3884,4.3987,4.407,4.4174,4.4443,4.4443,4.4194,4.4049,4.376,4.3615,4.3615,4.3615,4.3615,4.3615,4.3615,4.3615,4.3615,4.3615,4.3615,4.3615,4.3615,4.3729,4.3729,4.3805,4.3767,4.3805,4.3957,4.4201,4.4767,4.5218,4.5592,4.5928,4.6336,4.6522,4.6743,4.6928,4.7112,4.7648,4.805,4.8268,4.8354,4.8377,4.8377,4.8354,4.8354,4.8308,4.6307,4.6307,4.6307,4.6307,4.6307,4.6307,4.6307,4.6307,4.6307,4.6493,4.6638,4.6431,4.6431,4.6576,4.6472,4.6307,4.6307,4.6307,4.6307,4.6307,4.6307,4.6451,4.6555,4.6679,4.6865,4.732,4.7444,4.7424,4.7589,4.7651,4.7506,4.7175,4.6638,4.6493,4.6451,4.6472,4.6307,4.6307,4.6307,4.6307,4.6307,4.6307,4.6307,4.6203,4.61,4.6037,4.6141,4.6121,4.6037,4.6224,4.6307,4.6307,4.6307,4.6307,4.6307,4.6307,4.6307,4.6286,4.6245,4.6245,4.5893,4.5541,4.5043,4.4877,4.494,4.4443,4.4381,4.436,4.4194,4.4298,4.4463,4.4526,4.465,4.4919,4.4836,4.4588,4.4298,4.3987,4.3801,4.378,4.3656,4.3656,4.3635,4.3615,4.3615,4.3615,4.3615,4.3615,4.3615,4.3615,4.3615,4.3615,4.3615,4.3653,4.3691,4.3805,4.405,4.4352,4.4805,4.5256,4.5704,4.6151,4.6225,4.6336,4.6633,4.7002,4.7575,4.7977,4.8159,4.8305,4.8377,4.8377,4.8377,4.8377,4.8377,4.6266,4.6307,4.6307,4.6307,4.6307,4.6307,4.6307,4.6307,4.6307,4.6327,4.6369,4.6369,4.641,4.6389,4.6327,4.6307,4.6307,4.6307,4.6307,4.6307,4.6307,4.641,4.6617,4.6824,4.7175,4.7341,4.7527,4.7796,4.7755,4.7817,4.7796,4.7548,4.6968,4.6885,4.6824,4.6762,4.6493,4.6389,4.6307,4.6307,4.6307,4.6307,4.6307,4.6265,4.6245,4.6224,4.6265,4.6245,4.6245,4.6307,4.6307,4.6307,4.6307,4.6307,4.6307,4.6307,4.6307,4.6307,4.6307,4.6307,4.6286,4.6017,4.583,4.5498,4.5188,4.4981,4.4857,4.4877,4.4815,4.4898,4.5002,4.5022,4.5064,4.5126,4.5105,4.4857,4.4567,4.4319,4.4132,4.3987,4.3822,4.376,4.376,4.3718,4.3615,4.3615,4.3615,4.3615,4.3615,4.3615,4.3615,4.3615,4.3615,4.3615,4.3653,4.3729,4.4109,4.4466,4.4692,4.5068,4.5518,4.5928,4.6077,4.6225,4.6448,4.678,4.7245,4.7648,4.7977,4.8123,4.8268,4.8377,4.8377,4.8377,4.8377,4.6023,4.6307,4.6307,4.6307,4.6307,4.6307,4.6307,4.6307,4.6307,4.6472,4.6782,4.6451,4.6451,4.6762,4.6472,4.6327,4.6307,4.6307,4.6307,4.6307,4.6369,4.6741,4.703,4.7217,4.7651,4.8065,4.8335,4.8335,4.8542,4.8376,4.8148,4.8086,4.7486,4.7424,4.7382,4.7361,4.6865,4.6534,4.641,4.6327,4.6307,4.6307,4.6307,4.6307,4.6307,4.6307,4.6307,4.6307,4.6307,4.6307,4.6307,4.6307,4.6307,4.6307,4.6307,4.6307,4.6307,4.6307,4.6307,4.6307,4.6307,4.6307,4.6141,4.6141,4.579,4.5478,4.5229,4.5333,4.5312,4.5312,4.5416,4.5478,4.5581,4.5603,4.5581,4.5333,4.5064,4.4836,4.465,4.4401,4.4236,4.3987,4.3967,4.3718,4.3615,4.3615,4.3615,4.3615,4.3615,4.3615,4.3615,4.3615,4.3615,4.3615,4.3615,4.3653,4.4146,4.4541,4.473,4.4993,4.5518,4.5853,4.5965,4.6114,4.6299,4.6522,4.6803,4.7208,4.7648,4.7941,4.8123,4.8268,4.8377,4.8377,4.8377,4.5576,4.5779,4.5779,4.5901,4.6064,4.6226,4.6307,4.6307,4.6307,4.6493,4.6679,4.6431,4.6472,4.6617,4.641,4.6307,4.6307,4.6307,4.6307,4.6327,4.6513,4.6844,4.7217,4.7589,4.8045,4.8563,4.8812,4.8791,4.8957,4.8708,4.8439,4.8625,4.8107,4.7921,4.7838,4.7713,4.7382,4.701,4.67,4.6493,4.6389,4.6307,4.6307,4.6307,4.6307,4.6307,4.6307,4.6307,4.6307,4.6307,4.6307,4.6307,4.6307,4.6307,4.6307,4.6307,4.6307,4.6307,4.6307,4.6307,4.6307,4.6307,4.6307,4.6286,4.6162,4.5852,4.585,4.5871,4.5726,4.5664,4.5809,4.5934,4.6079,4.6245,4.6038,4.5871,4.5643,4.5416,4.5167,4.4919,4.465,4.436,4.4112,4.3822,4.3615,4.3615,4.3615,4.3615,4.3615,4.3615,4.3615,4.3615,4.3615,4.3615,4.3615,4.3653,4.3995,4.439,4.4692,4.4993,4.5518,4.5816,4.5891,4.6039,4.6188,4.6336,4.6485,4.6891,4.7281,4.7612,4.7941,4.8123,4.8268,4.8377,4.8377,4.4964,4.5046,4.5025,4.5291,4.5657,4.5982,4.6145,4.6226,4.6185,4.6266,4.6267,4.6327,4.6246,4.6146,4.6104,4.6247,4.6309,4.635,4.6473,4.639,4.6865,4.7258,4.7568,4.792,4.8314,4.8562,4.8812,4.9019,4.8957,4.8812,4.877,4.9039,4.8334,4.8127,4.8397,4.8148,4.7879,4.7631,4.7196,4.6886,4.6513,4.6369,4.6307,4.6307,4.6307,4.6307,4.6307,4.6307,4.6307,4.6307,4.6307,4.6307,4.6307,4.6307,4.6307,4.6307,4.6307,4.6307,4.6307,4.6307,4.6307,4.6307,4.6307,4.6307,4.6203,4.6141,4.6121,4.6121,4.5976,4.5955,4.6079,4.6121,4.6224,4.6286,4.6183,4.6038,4.5912,4.5768,4.5664,4.5395,4.5105,4.4795,4.4404,4.4114,4.353,4.3545,4.3386,4.3386,4.3407,4.3407,4.3562,4.3542,4.3577,4.3577,4.3615,4.3691,4.3843,4.4163,4.4504,4.4767,4.5106,4.548,4.5853,4.5779,4.5667,4.6002,4.6225,4.6522,4.6854,4.7355,4.7648,4.7941,4.8159,4.8305,4.8377,4.4739,4.5005,4.5025,4.5086,4.5168,4.525,4.5332,4.5332,4.5698,4.5841,4.5922,4.6064,4.5901,4.5495,4.5739,4.5984,4.627,4.6373,4.6804,4.7072,4.7403,4.761,4.7941,4.8231,4.8604,4.8874,4.906,4.9102,4.906,4.8977,4.8957,4.9081,4.8687,4.8749,4.8853,4.8646,4.8479,4.821,4.7755,4.7361,4.6948,4.6513,4.6307,4.6307,4.6307,4.6307,4.6307,4.6307,4.6307,4.6307,4.6307,4.6307,4.6307,4.6307,4.6307,4.6307,4.6307,4.6307,4.6307,4.6307,4.6307,4.6307,4.6307,4.6307,4.6286,4.6307,4.6307,4.6307,4.6307,4.6307,4.6307,4.6307,4.6307,4.6307,4.6307,4.6203,4.6121,4.6079,4.6038,4.583,4.554,4.5148,4.4698,4.4189,4.3605,4.3188,4.2815,4.2697,4.2776,4.2873,4.3341,4.3398,4.3521,4.3539,4.3539,4.3539,4.3653,4.3898,4.4239,4.4466,4.473,4.4955,4.5218,4.5143,4.5106,4.548,4.5779,4.6002,4.6374,4.6891,4.7428,4.7758,4.8013,4.8196,4.8305,4.4205,4.4411,4.4677,4.4718,4.4759,4.4923,4.5025,4.5046,4.5291,4.5291,4.525,4.5657,4.5617,4.5046,4.5311,4.5677,4.6104,4.631,4.6536,4.6989,4.7733,4.792,4.8189,4.8542,4.8812,4.9081,4.9102,4.9102,4.9102,4.9102,4.9081,4.9102,4.9102,4.9102,4.9102,4.9081,4.8977,4.8708,4.8252,4.7838,4.7444,4.6844,4.6369,4.6307,4.6307,4.6307,4.6307,4.6307,4.6307,4.6307,4.6307,4.6307,4.6307,4.6307,4.6307,4.6307,4.6307,4.6307,4.6307,4.6307,4.6307,4.6307,4.6307,4.6307,4.6307,4.6307,4.6307,4.6307,4.6307,4.6307,4.6307,4.6307,4.6307,4.6307,4.6307,4.6245,4.6224,4.6203,4.6183,4.6121,4.573,4.5121,4.4592,4.3825,4.3344,4.3184,4.273,4.2653,4.2594,4.2517,4.2946,4.3199,4.3251,4.3162,4.2945,4.3081,4.3348,4.3653,4.3957,4.4352,4.4617,4.4541,4.4541,4.4654,4.4767,4.4955,4.5256,4.548,4.5853,4.6336,4.6965,4.7552,4.7794,4.8013,4.8232,4.3733,4.3733,4.4164,4.4329,4.437,4.4657,4.48,4.48,4.4882,4.4657,4.4493,4.5168,4.5209,4.4964,4.5043,4.5304,4.5628,4.6017,4.6245,4.6945,4.7793,4.8104,4.8417,4.8708,4.8957,4.9081,4.9102,4.9102,4.9102,4.9102,4.9102,4.9102,4.9102,4.9102,4.9102,4.9102,4.9039,4.8894,4.8604,4.8356,4.7775,4.7093,4.6638,4.6431,4.6348,4.6348,4.6369,4.6327,4.6327,4.6369,4.6369,4.6307,4.6307,4.6307,4.6307,4.6307,4.6307,4.6307,4.6307,4.6307,4.6307,4.6307,4.6307,4.6307,4.6307,4.6307,4.6307,4.6307,4.6307,4.6307,4.6307,4.6307,4.6307,4.6307,4.6307,4.6307,4.6307,4.6266,4.6266,4.6266,4.5736,4.5147,4.4439,4.3675,4.3316,4.3097,4.2938,4.2938,4.286,4.2683,4.2763,4.2861,4.2859,4.2697,4.2571,4.2801,4.3131,4.3119,4.3442,4.405,4.4428,4.426,4.4201,4.4428,4.4541,4.4579,4.4767,4.5031,4.5443,4.5853,4.6374,4.6965,4.7428,4.7685,4.8159,4.3691,4.3691,4.3774,4.3835,4.3876,4.3958,4.3958,4.4041,4.437,4.4288,4.4082,4.4329,4.4411,4.4019,4.4745,4.5147,4.543,4.5819,4.6663,4.7472,4.7827,4.8224,4.8622,4.8853,4.906,4.9059,4.9016,4.9059,4.8887,4.8973,4.9059,4.9016,4.9102,4.9102,4.9102,4.9102,4.9081,4.8977,4.8729,4.8397,4.79,4.7361,4.701,4.6741,4.6513,4.6617,4.6658,4.6472,4.6576,4.6638,4.6513,4.6348,4.6307,4.6307,4.6307,4.6307,4.6307,4.6307,4.6307,4.6307,4.6307,4.6307,4.6307,4.6307,4.6307,4.6307,4.6307,4.6307,4.6307,4.6307,4.6307,4.6307,4.6307,4.6307,4.6307,4.6307,4.6307,4.6226,4.6145,4.5982,4.5637,4.5068,4.4503,4.386,4.338,4.3141,4.2803,4.2743,4.2743,4.2683,4.2663,4.2683,4.2684,4.2724,4.2818,4.2816,4.303,4.2941,4.2966,4.35,4.3805,4.3767,4.3843,4.405,4.4088,4.4088,4.4315,4.4638,4.4955,4.5368,4.5816,4.6336,4.6854,4.7392,4.7904]},{"header":{"parameterUnit":"m.s-1","parameterCategory":1,"la1":31.0,"la2":29.5877,"lo1":-88.7671,"lo2":-86.6584,"dx":0.0162,"dy":0.0185,"nx":115,"ny":88,"refTime":"2023-01-21T06:00:00:Z","depth":0,"parameterNumber":3,"parameterNumberName":"V-component_of_WINDS"},"data":[0.0,0.0,0.0,0.0,0.0,0.0,0.0,0.0,0.0,0.0,0.0,0.0,0.0,0.0,0.0,0.0,0.0,0.0,0.0,0.0,0.0,0.0,0.0,0.0,0.0,0.0,0.0,0.0,0.0,0.0,0.0,0.0,0.0,0.0,0.0,0.0,0.0,0.0,0.0,0.0,0.0,0.0,0.0,0.0,0.0,0.0,0.0,0.0,0.0,0.0,0.0,0.0,0.0,0.0,0.0,0.0,0.0,0.0,0.0,0.0,0.0,0.0,0.0,0.0,0.0,0.0,0.0,0.0,0.0,0.0,0.0,0.0,0.0,0.0,0.0,0.0,0.0,0.0,0.0,0.0,0.0,0.0,0.0,0.0,0.0,0.0,0.0,0.0,0.0,0.0,0.0,0.0,0.0,0.0,0.0,0.0,0.0,0.0,0.0,0.0,0.0,0.0,0.0,0.0,0.0,0.0,0.0,0.0,0.0,0.0,0.0,0.0,0.0,0.0,0.0,0.0,0.0,0.0,0.0,0.0,0.0,0.0,0.0,0.0,0.0,0.0,0.0,0.0,0.0,0.0,0.0,0.0,0.0,0.0,0.0,0.0,0.0,0.0,0.0,0.0,0.0,0.0,0.0,0.0,0.0,0.0,0.0,0.0,0.0,0.0,0.0,0.0,0.0,0.0,0.0,0.0,0.0,0.0,0.0,0.0,0.0,0.0,0.0,0.0,0.0,0.0,0.0,0.0,0.0,0.0,0.0,0.0,0.0,0.0,0.0,0.0,0.0,0.0,0.0,0.0,0.0,0.0,0.0,0.0,0.0,0.0,0.0,0.0,0.0,0.0,0.0,0.0,0.0,0.0,0.0,0.0,0.0,0.0,0.0,0.0,0.0,0.0,0.0,0.0,0.0,0.0,0.0,0.0,0.0,0.0,0.0,0.0,0.0,0.0,0.0,0.0,0.0,0.0,0.0,0.0,0.0,0.0,0.0,0.0,0.0,0.0,0.0,0.0,0.0,0.0,0.0,0.0,0.0,0.0,0.0,0.0,0.0,0.0,0.0,0.0,0.0,0.0,0.0,0.0,0.0,0.0,0.0,0.0,0.0,0.0,0.0,0.0,0.0,0.0,0.0,0.0,0.0,0.0,0.0,0.0,0.0,0.0,0.0,0.0,0.0,0.0,0.0,0.0,0.0,0.0,0.0,0.0,0.0,0.0,0.0,0.0,0.0,0.0,0.0,0.0,0.0,0.0,0.0,0.0,0.0,0.0,0.0,0.0,0.0,0.0,0.0,0.0,0.0,0.0,0.0,0.0,0.0,0.0,0.0,0.0,0.0,0.0,0.0,0.0,0.0,0.0,0.0,0.0,0.0,0.0,0.0,0.0,0.0,0.0,0.0,0.0,0.0,0.0,0.0,0.0,0.0,0.0,0.0,0.0,0.0,0.0,0.0,0.0,0.0,0.0,0.0,0.0,0.0,0.0,0.0,0.0,0.0,0.0,0.0,0.0,0.0,0.0,0.0,0.0,0.0,0.0,0.0,0.0,0.0,0.0,0.0,0.0,0.0,0.0,0.0,0.0,0.0,0.0,0.0,0.0,0.0,0.0,0.0,0.0,0.0,0.0,0.0,0.0,0.0,0.0,0.0,0.0,0.0,0.0,0.0,0.0,0.0,0.0,0.0,0.0,0.0,0.0,0.0,0.0,0.0,0.0,0.0,0.0,0.0,0.0,0.0,0.0,0.0,0.0,0.0,0.0,0.0,0.0,0.0,0.0,0.0,0.0,0.0,0.0,0.0,0.0,0.0,0.0,0.0,0.0,0.0,0.0,0.0,0.0,0.0,0.0,0.0,0.0,0.0,0.0,0.0,0.0,0.0,0.0,0.0,0.0,0.0,0.0,0.0,0.0,0.0,0.0,0.0,0.0,0.0,0.0,0.0,0.0,0.0,0.0,0.0,0.0,0.0,0.0,0.0,0.0,0.0,0.0,0.0,0.0,0.0,0.0,0.0,0.0,0.0,0.0,0.0,0.0,0.0,0.0,0.0,0.0,0.0,0.0,0.0,0.0,0.0,0.0,0.0,0.0,0.0,0.0,0.0,0.0,0.0,0.0,0.0,0.0,0.0,0.0,0.0,0.0,0.0,0.0,0.0,0.0,0.0,0.0,0.0,0.0,0.0,0.0,0.0,0.0,0.0,0.0,0.0,0.0,0.0,0.0,0.0,0.0,0.0,0.0,0.0,0.0,0.0,0.0,0.0,0.0,0.0,0.0,0.0,0.0,0.0,0.0,0.0,0.0,0.0,0.0,0.0,0.0,0.0,0.0,0.0,0.0,0.0,0.0,0.0,0.0,0.0,0.0,0.0,0.0,0.0,0.0,0.0,0.0,0.0,0.0,0.0,0.0,0.0,0.0,0.0,0.0,0.0,0.0,0.0,0.0,0.0,0.0,0.0,0.0,0.0,0.0,0.0,0.0,0.0,0.0,0.0,0.0,0.0,0.0,0.0,0.0,0.0,0.0,0.0,0.0,0.0,0.0,0.0,0.0,0.0,0.0,0.0,0.0,0.0,0.0,0.0,0.0,0.0,0.0,0.0,0.0,0.0,0.0,0.0,0.0,0.0,0.0,0.0,0.0,0.0,0.0,0.0,0.0,0.0,0.0,0.0,0.0,0.0,0.0,0.0,0.0,0.0,0.0,0.0,0.0,0.0,0.0,0.0,0.0,0.0,0.0,0.0,0.0,0.0,0.0,0.0,0.0,0.0,0.0,0.0,0.0,0.0,0.0,0.0,0.0,0.0,0.0,0.0,0.0,0.0,0.0,0.0,0.0,0.0,0.0,0.0,0.0,0.0,0.0,0.0,0.0,0.0,0.0,0.0,0.0,0.0,0.0,0.0,0.0,0.0,0.0,0.0,0.0,0.0,0.0,0.0,0.0,0.0,0.0,0.0,0.0,0.0,0.0,0.0,0.0,0.0,0.0,0.0,0.0,0.0,0.0,0.0,0.0,0.0,0.0,0.0,0.0,0.0,0.0,0.0,0.0,0.0,0.0,0.0,0.0,0.0,0.0,0.0,0.0,0.0,0.0,0.0,0.0,0.0,0.0,0.0,0.0,0.0,0.0,0.0,0.0,0.0,0.0,0.0,0.0,0.0,0.0,0.0,0.0,0.0,0.0,0.0,0.0,0.0,0.0,0.0,0.0,0.0,0.0,0.0,0.0,0.0,0.0,0.0,0.0,0.0,0.0,0.0,0.0,0.0,0.0,0.0,0.0,0.0,0.0,0.0,0.0,0.0,0.0,0.0,0.0,0.0,0.0,0.0,0.0,0.0,0.0,0.0,0.0,0.0,0.0,0.0,0.0,0.0,0.0,0.0,0.0,0.0,0.0,0.0,0.0,0.0,0.0,0.0,0.0,0.0,0.0,0.0,0.0,0.0,0.0,0.0,0.0,0.0,0.0,0.0,0.0,0.0,0.0,0.0,0.0,0.0,0.0,0.0,0.0,0.0,0.0,0.0,0.0,0.0,0.0,0.0,0.0,0.0,0.0,0.0,0.0,0.0,0.0,0.0,0.0,0.0,0.0,0.0,0.0,0.0,0.0,0.0,0.0,0.0,0.0,0.0,0.0,0.0,0.0,0.0,0.0,0.0,0.0,0.0,0.0,0.0,0.0,0.0,0.0,0.0,0.0,0.0,0.0,0.0,0.0,0.0,0.0,0.0,0.0,0.0,0.0,0.0,0.0,0.0,0.0,0.0,0.0,0.0,0.0,0.0,0.0,0.0,0.0,0.0,0.0,0.0,0.0,0.0,0.0,0.0,0.0,0.0,0.0,0.0,0.0,0.0,0.0,0.0,0.0,0.0,0.0,0.0,0.0,0.0,0.0,0.0,0.0,0.0,0.0,0.0,0.0,0.0,0.0,0.0,0.0,0.0,0.0,0.0,0.0,0.0,0.0,0.0,0.0,0.0,0.0,0.0,0.0,0.0,0.0,0.0,0.0,0.0,0.0,0.0,0.0,0.0,0.0,0.0,0.0,0.0,0.0,0.0,0.0,0.0,0.0,0.0,0.0,0.0,0.0,0.0,0.0,0.0,0.0,0.0,0.0,0.0,0.0,0.0,0.0,0.0,0.0,0.0,0.0,0.0,0.0,0.0,0.0,0.0,0.0,0.0,0.0,0.0,0.0,0.0,0.0,0.0,0.0,0.0,0.0,0.0,0.0,0.0,0.0,0.0,0.0,0.0,0.0,0.0,0.0,0.0,0.0,0.0,0.0,0.0,0.0,2.5954,0.0,0.0,0.0,0.0,0.0,0.0,0.0,0.0,0.0,0.0,0.0,0.0,0.0,0.0,0.0,0.0,0.0,0.0,0.0,0.0,0.0,0.0,0.0,0.0,0.0,0.0,0.0,0.0,0.0,0.0,0.0,0.0,0.0,0.0,0.0,0.0,0.0,0.0,0.0,0.0,0.0,0.0,0.0,0.0,0.0,0.0,0.0,0.0,0.0,0.0,0.0,0.0,0.0,0.0,0.0,0.0,0.0,0.0,0.0,0.0,0.0,0.0,0.0,0.0,0.0,0.0,0.0,0.0,0.0,0.0,0.0,0.0,0.0,0.0,0.0,0.0,0.0,0.0,0.0,0.0,0.0,0.0,0.0,0.0,0.0,0.0,0.0,0.0,0.0,0.0,0.0,0.0,0.0,0.0,0.0,0.0,0.0,0.0,0.0,0.0,0.0,0.0,0.0,0.0,0.0,0.0,0.0,0.0,0.0,0.0,2.4939,2.5863,2.4944,2.5096,2.6504,0.0,0.0,0.0,0.0,0.0,0.0,0.0,0.0,0.0,0.0,0.0,0.0,0.0,0.0,0.0,0.0,0.0,0.0,0.0,0.0,0.0,0.0,0.0,0.0,0.0,0.0,0.0,0.0,0.0,0.0,0.0,0.0,0.0,0.0,0.0,0.0,0.0,0.0,0.0,0.0,0.0,0.0,0.0,0.0,0.0,0.0,0.0,0.0,0.0,0.0,0.0,0.0,0.0,0.0,0.0,0.0,0.0,0.0,0.0,0.0,0.0,0.0,0.0,0.0,0.0,0.0,0.0,0.0,0.0,0.0,0.0,0.0,0.0,0.0,0.0,0.0,0.0,0.0,0.0,0.0,0.0,0.0,0.0,0.0,0.0,0.0,0.0,0.0,0.0,0.0,0.0,0.0,0.0,0.0,0.0,0.0,0.0,0.0,0.0,0.0,0.0,0.0,0.0,0.0,0.0,0.0,0.0,0.0,0.0,0.0,0.0,0.0,2.5145,2.5268,2.6735,0.0,0.0,0.0,0.0,0.0,0.0,0.0,0.0,0.0,0.0,0.0,0.0,0.0,0.0,0.0,0.0,0.0,0.0,0.0,0.0,0.0,0.0,0.0,0.0,0.0,0.0,0.0,0.0,0.0,0.0,0.0,0.0,0.0,0.0,0.0,0.0,0.0,0.0,0.0,0.0,0.0,0.0,0.0,0.0,0.0,0.0,0.0,0.0,0.0,0.0,0.0,0.0,0.0,0.0,0.0,0.0,0.0,0.0,0.0,0.0,0.0,0.0,0.0,0.0,0.0,0.0,0.0,0.0,0.0,0.0,0.0,0.0,0.0,0.0,0.0,0.0,0.0,0.0,0.0,0.0,0.0,0.0,0.0,0.0,0.0,0.0,0.0,0.0,0.0,0.0,0.0,0.0,0.0,0.0,0.0,0.0,0.0,0.0,0.0,0.0,0.0,0.0,0.0,0.0,0.0,0.0,0.0,0.0,0.0,0.0,2.6113,2.6177,2.6008,0.0,2.6522,0.0,0.0,0.0,0.0,0.0,0.0,0.0,0.0,0.0,0.0,0.0,0.0,0.0,0.0,0.0,0.0,0.0,0.0,0.0,0.0,0.0,0.0,0.0,0.0,0.0,0.0,0.0,0.0,0.0,0.0,0.0,0.0,0.0,0.0,0.0,0.0,0.0,0.0,0.0,0.0,0.0,0.0,0.0,0.0,0.0,0.0,0.0,0.0,0.0,0.0,0.0,0.0,0.0,0.0,0.0,0.0,0.0,0.0,0.0,0.0,0.0,0.0,0.0,0.0,0.0,0.0,0.0,0.0,0.0,0.0,0.0,0.0,0.0,0.0,0.0,0.0,0.0,0.0,0.0,0.0,0.0,0.0,0.0,0.0,0.0,0.0,0.0,0.0,0.0,0.0,0.0,0.0,0.0,0.0,0.0,0.0,0.0,0.0,0.0,0.0,0.0,0.0,0.0,0.0,0.0,0.0,0.0,0.0,0.0,0.0,2.6168,2.6143,2.6262,2.6648,0.0,0.0,0.0,0.0,0.0,0.0,0.0,0.0,0.0,0.0,0.0,0.0,0.0,0.0,0.0,0.0,0.0,0.0,0.0,0.0,0.0,0.0,0.0,0.0,0.0,0.0,0.0,0.0,0.0,0.0,0.0,0.0,0.0,0.0,0.0,0.0,0.0,0.0,0.0,0.0,0.0,0.0,0.0,0.0,0.0,0.0,0.0,0.0,0.0,0.0,0.0,0.0,0.0,0.0,0.0,0.0,0.0,0.0,0.0,0.0,0.0,0.0,0.0,0.0,0.0,0.0,0.0,0.0,0.0,0.0,0.0,0.0,0.0,0.0,0.0,0.0,0.0,0.0,0.0,0.0,0.0,0.0,0.0,0.0,0.0,0.0,0.0,0.0,0.0,0.0,0.0,0.0,0.0,0.0,0.0,0.0,0.0,0.0,0.0,0.0,0.0,0.0,0.0,0.0,0.0,0.0,0.0,0.0,0.0,0.0,2.6122,2.6102,2.6032,2.6439,2.7015,2.7646,0.0,0.0,0.0,0.0,0.0,0.0,0.0,0.0,0.0,0.0,0.0,0.0,0.0,0.0,0.0,0.0,0.0,0.0,0.0,0.0,0.0,0.0,0.0,0.0,0.0,0.0,0.0,0.0,0.0,0.0,0.0,0.0,0.0,0.0,0.0,0.0,0.0,0.0,0.0,0.0,0.0,0.0,0.0,0.0,0.0,0.0,0.0,0.0,0.0,0.0,0.0,0.0,0.0,0.0,0.0,0.0,0.0,0.0,0.0,0.0,0.0,0.0,0.0,0.0,0.0,0.0,0.0,0.0,0.0,0.0,0.0,0.0,0.0,0.0,0.0,0.0,0.0,0.0,0.0,0.0,0.0,0.0,0.0,0.0,0.0,0.0,0.0,0.0,0.0,0.0,0.0,0.0,0.0,0.0,0.0,0.0,0.0,0.0,0.0,0.0,0.0,0.0,0.0,0.0,0.0,0.0,0.0,0.0,0.0,2.6037,2.5987,2.5769,2.666,2.716,0.0,0.0,0.0,0.0,0.0,0.0,0.0,0.0,0.0,0.0,0.0,0.0,0.0,0.0,0.0,0.0,0.0,0.0,0.0,0.0,0.0,0.0,0.0,0.0,0.0,0.0,0.0,0.0,0.0,0.0,0.0,0.0,0.0,0.0,0.0,0.0,0.0,0.0,0.0,0.0,0.0,0.0,0.0,0.0,0.0,0.0,0.0,0.0,0.0,0.0,0.0,0.0,0.0,0.0,0.0,0.0,0.0,0.0,0.0,0.0,0.0,0.0,0.0,0.0,0.0,0.0,0.0,0.0,0.0,0.0,0.0,0.0,0.0,0.0,0.0,0.0,0.0,0.0,0.0,0.0,0.0,0.0,0.0,0.0,0.0,0.0,0.0,0.0,0.0,0.0,0.0,0.0,0.0,0.0,0.0,0.0,0.0,0.0,0.0,0.0,0.0,0.0,0.0,0.0,0.0,0.0,0.0,0.0,0.0,2.6508,2.6414,2.6299,2.6217,2.6565,2.6853,0.0,0.0,0.0,0.0,0.0,0.0,0.0,0.0,0.0,0.0,0.0,0.0,0.0,0.0,0.0,0.0,0.0,0.0,0.0,0.0,0.0,0.0,0.0,0.0,0.0,0.0,0.0,0.0,0.0,0.0,0.0,0.0,0.0,0.0,0.0,0.0,0.0,0.0,0.0,0.0,0.0,0.0,0.0,0.0,0.0,0.0,0.0,0.0,0.0,0.0,0.0,0.0,0.0,0.0,0.0,0.0,0.0,0.0,0.0,0.0,0.0,0.0,0.0,0.0,0.0,0.0,0.0,0.0,0.0,0.0,0.0,0.0,0.0,0.0,0.0,0.0,0.0,0.0,0.0,0.0,0.0,0.0,0.0,0.0,0.0,0.0,0.0,0.0,0.0,0.0,0.0,0.0,0.0,0.0,0.0,0.0,0.0,0.0,0.0,0.0,0.0,0.0,0.0,0.0,0.0,0.0,0.0,0.0,0.0,2.6505,0.0,2.6154,2.6358,2.6559,2.6959,0.0,0.0,0.0,0.0,0.0,0.0,0.0,0.0,0.0,0.0,0.0,0.0,0.0,0.0,0.0,0.0,0.0,0.0,0.0,0.0,0.0,0.0,0.0,0.0,0.0,0.0,0.0,0.0,0.0,0.0,0.0,0.0,0.0,0.0,0.0,0.0,0.0,0.0,0.0,0.0,0.0,0.0,0.0,0.0,0.0,0.0,0.0,0.0,0.0,0.0,0.0,0.0,0.0,0.0,0.0,0.0,0.0,0.0,0.0,0.0,0.0,0.0,0.0,0.0,0.0,0.0,0.0,0.0,0.0,0.0,0.0,0.0,0.0,0.0,0.0,0.0,0.0,0.0,0.0,0.0,0.0,0.0,0.0,0.0,0.0,0.0,0.0,0.0,0.0,0.0,0.0,0.0,0.0,0.0,0.0,0.0,0.0,0.0,0.0,0.0,0.0,0.0,0.0,0.0,0.0,0.0,0.0,0.0,2.6752,2.5784,2.5469,2.5582,2.6019,2.673,2.7518,0.0,0.0,0.0,0.0,0.0,0.0,0.0,0.0,0.0,0.0,0.0,0.0,0.0,0.0,0.0,0.0,0.0,0.0,0.0,0.0,0.0,0.0,0.0,0.0,0.0,0.0,0.0,0.0,0.0,0.0,0.0,0.0,0.0,0.0,0.0,0.0,0.0,0.0,0.0,0.0,0.0,0.0,0.0,0.0,0.0,0.0,0.0,0.0,0.0,0.0,0.0,0.0,0.0,0.0,0.0,0.0,0.0,0.0,0.0,0.0,0.0,0.0,0.0,0.0,0.0,0.0,0.0,0.0,0.0,0.0,0.0,0.0,0.0,0.0,0.0,0.0,0.0,0.0,0.0,0.0,0.0,0.0,0.0,0.0,0.0,0.0,0.0,0.0,0.0,0.0,0.0,0.0,0.0,0.0,0.0,0.0,0.0,0.0,0.0,0.0,0.0,0.0,0.0,0.0,0.0,0.0,0.0,0.0,0.0,2.7232,2.6757,2.6585,2.6745,2.6972,2.7235,0.0,0.0,0.0,0.0,0.0,0.0,0.0,0.0,0.0,0.0,0.0,0.0,0.0,0.0,0.0,0.0,0.0,0.0,0.0,0.0,0.0,0.0,0.0,0.0,0.0,0.0,0.0,0.0,0.0,0.0,0.0,0.0,0.0,0.0,0.0,0.0,0.0,0.0,0.0,0.0,0.0,0.0,0.0,0.0,0.0,0.0,0.0,0.0,0.0,0.0,0.0,0.0,0.0,0.0,0.0,0.0,0.0,0.0,0.0,0.0,0.0,0.0,0.0,0.0,0.0,0.0,0.0,0.0,0.0,0.0,0.0,0.0,0.0,0.0,0.0,0.0,0.0,0.0,0.0,0.0,0.0,0.0,0.0,0.0,0.0,0.0,0.0,0.0,0.0,0.0,0.0,0.0,0.0,0.0,0.0,0.0,0.0,0.0,0.0,0.0,0.0,0.0,0.0,0.0,0.0,0.0,0.0,0.0,0.0,2.8404,2.7616,2.7223,2.7219,2.7281,2.7415,2.7601,0.0,0.0,0.0,0.0,0.0,0.0,0.0,0.0,0.0,0.0,0.0,0.0,0.0,0.0,0.0,0.0,0.0,0.0,0.0,0.0,0.0,0.0,0.0,0.0,0.0,0.0,0.0,0.0,0.0,0.0,0.0,0.0,0.0,0.0,0.0,0.0,0.0,0.0,0.0,0.0,0.0,0.0,0.0,0.0,0.0,0.0,0.0,0.0,0.0,0.0,0.0,0.0,0.0,0.0,0.0,0.0,0.0,0.0,0.0,0.0,0.0,0.0,0.0,0.0,0.0,0.0,0.0,0.0,0.0,0.0,0.0,0.0,0.0,0.0,0.0,0.0,0.0,0.0,0.0,0.0,0.0,0.0,0.0,0.0,0.0,0.0,0.0,0.0,0.0,0.0,0.0,0.0,0.0,0.0,0.0,0.0,0.0,0.0,0.0,0.0,0.0,0.0,0.0,0.0,0.0,0.0,0.0,0.0,2.934,2.8199,2.758,2.7461,2.766,2.7974,0.0,0.0,0.0,0.0,0.0,0.0,0.0,0.0,0.0,0.0,0.0,0.0,0.0,0.0,0.0,0.0,0.0,0.0,0.0,0.0,0.0,0.0,0.0,0.0,0.0,0.0,0.0,0.0,0.0,0.0,0.0,0.0,0.0,0.0,0.0,0.0,0.0,0.0,0.0,0.0,0.0,0.0,0.0,0.0,0.0,0.0,0.0,0.0,0.0,0.0,0.0,0.0,0.0,0.0,0.0,0.0,0.0,0.0,0.0,0.0,0.0,0.0,0.0,0.0,0.0,0.0,0.0,0.0,0.0,0.0,0.0,0.0,0.0,0.0,0.0,0.0,0.0,0.0,0.0,0.0,0.0,0.0,0.0,0.0,0.0,0.0,0.0,0.0,0.0,0.0,0.0,0.0,0.0,0.0,0.0,0.0,0.0,0.0,0.0,0.0,0.0,0.0,0.0,0.0,0.0,0.0,0.0,0.0,0.0,2.9893,2.9947,2.9402,2.8255,2.8266,2.8334,0.0,0.0,0.0,0.0,0.0,0.0,0.0,0.0,0.0,0.0,0.0,0.0,0.0,0.0,0.0,0.0,0.0,0.0,0.0,0.0,0.0,0.0,0.0,0.0,0.0,0.0,0.0,0.0,0.0,0.0,0.0,0.0,0.0,0.0,0.0,0.0,0.0,0.0,0.0,0.0,0.0,0.0,0.0,0.0,0.0,0.0,0.0,0.0,0.0,0.0,0.0,0.0,0.0,0.0,0.0,0.0,0.0,0.0,0.0,0.0,0.0,0.0,0.0,0.0,0.0,0.0,0.0,0.0,0.0,0.0,0.0,0.0,0.0,0.0,0.0,0.0,0.0,0.0,0.0,0.0,0.0,0.0,0.0,0.0,0.0,0.0,0.0,0.0,0.0,0.0,0.0,0.0,0.0,0.0,0.0,0.0,0.0,0.0,0.0,0.0,0.0,0.0,0.0,0.0,0.0,0.0,0.0,0.0,3.1153,3.1056,3.1153,3.0643,2.948,2.9273,2.9172,0.0,0.0,0.0,0.0,0.0,0.0,0.0,0.0,0.0,0.0,0.0,0.0,0.0,0.0,0.0,0.0,0.0,0.0,0.0,0.0,0.0,0.0,0.0,0.0,0.0,0.0,0.0,0.0,0.0,0.0,0.0,0.0,0.0,0.0,0.0,0.0,0.0,0.0,0.0,0.0,0.0,0.0,0.0,0.0,0.0,0.0,0.0,0.0,0.0,0.0,0.0,0.0,0.0,0.0,0.0,0.0,0.0,0.0,0.0,0.0,0.0,0.0,0.0,0.0,0.0,0.0,0.0,0.0,0.0,0.0,0.0,0.0,0.0,0.0,0.0,0.0,0.0,0.0,0.0,0.0,0.0,0.0,0.0,0.0,0.0,0.0,0.0,0.0,0.0,0.0,0.0,0.0,0.0,0.0,0.0,0.0,0.0,0.0,0.0,0.0,0.0,0.0,0.0,0.0,0.0,0.0,0.0,0.0,3.1979,3.2468,3.205,3.1628,3.116,3.0618,3.0266,0.0,0.0,0.0,0.0,0.0,0.0,0.0,0.0,0.0,0.0,0.0,0.0,0.0,0.0,0.0,0.0,0.0,0.0,0.0,0.0,0.0,0.0,0.0,0.0,0.0,0.0,0.0,0.0,0.0,0.0,0.0,0.0,0.0,0.0,0.0,0.0,0.0,0.0,0.0,0.0,0.0,0.0,0.0,0.0,0.0,0.0,0.0,0.0,0.0,0.0,0.0,0.0,0.0,0.0,0.0,0.0,0.0,0.0,0.0,0.0,0.0,0.0,0.0,0.0,0.0,0.0,0.0,0.0,0.0,0.0,0.0,0.0,0.0,0.0,0.0,0.0,0.0,0.0,0.0,0.0,0.0,0.0,0.0,0.0,0.0,0.0,0.0,0.0,0.0,0.0,0.0,0.0,0.0,0.0,0.0,0.0,0.0,0.0,0.0,0.0,0.0,0.0,0.0,0.0,0.0,0.0,0.0,0.0,3.2916,3.3015,3.333,3.3428,3.3305,3.2406,3.1507,0.0,0.0,0.0,0.0,0.0,0.0,0.0,0.0,0.0,0.0,0.0,0.0,0.0,0.0,0.0,0.0,0.0,0.0,0.0,0.0,0.0,0.0,0.0,0.0,0.0,0.0,0.0,0.0,0.0,0.0,0.0,0.0,0.0,0.0,0.0,0.0,0.0,0.0,0.0,0.0,0.0,0.0,0.0,0.0,0.0,0.0,0.0,0.0,2.871,0.0,0.0,0.0,0.0,0.0,0.0,0.0,0.0,0.0,0.0,0.0,0.0,0.0,0.0,0.0,0.0,0.0,0.0,0.0,0.0,0.0,0.0,0.0,0.0,0.0,0.0,0.0,0.0,0.0,0.0,0.0,0.0,0.0,0.0,0.0,0.0,0.0,0.0,0.0,0.0,0.0,0.0,0.0,0.0,0.0,0.0,0.0,0.0,0.0,0.0,0.0,0.0,0.0,0.0,0.0,0.0,0.0,0.0,0.0,3.4042,3.4291,3.4564,3.4564,3.4338,3.4015,3.3234,0.0,0.0,0.0,0.0,0.0,0.0,0.0,0.0,0.0,0.0,0.0,0.0,0.0,0.0,0.0,0.0,0.0,0.0,0.0,0.0,0.0,0.0,0.0,0.0,0.0,0.0,0.0,0.0,0.0,0.0,0.0,0.0,0.0,0.0,0.0,0.0,0.0,0.0,0.0,0.0,0.0,0.0,0.0,0.0,0.0,0.0,0.0,0.0,0.0,0.0,0.0,0.0,0.0,0.0,0.0,0.0,0.0,0.0,0.0,0.0,0.0,0.0,0.0,0.0,0.0,0.0,0.0,0.0,0.0,0.0,0.0,0.0,0.0,0.0,0.0,0.0,0.0,0.0,0.0,0.0,0.0,0.0,0.0,0.0,0.0,0.0,0.0,0.0,0.0,0.0,0.0,0.0,0.0,0.0,0.0,0.0,0.0,0.0,0.0,0.0,0.0,0.0,0.0,0.0,0.0,0.0,0.0,3.4853,3.5253,3.5803,3.5904,3.5701,3.5219,3.5571,3.5111,3.3704,0.0,0.0,0.0,0.0,0.0,0.0,0.0,0.0,0.0,0.0,0.0,0.0,0.0,0.0,0.0,0.0,0.0,0.0,0.0,0.0,0.0,0.0,0.0,0.0,0.0,0.0,0.0,0.0,0.0,0.0,0.0,0.0,0.0,0.0,0.0,0.0,0.0,0.0,2.5248,2.5922,0.0,0.0,0.0,0.0,0.0,0.0,0.0,0.0,3.0182,0.0,0.0,0.0,0.0,0.0,0.0,0.0,0.0,0.0,0.0,0.0,0.0,0.0,0.0,0.0,0.0,0.0,0.0,0.0,0.0,0.0,0.0,0.0,0.0,0.0,0.0,0.0,0.0,0.0,0.0,0.0,0.0,0.0,0.0,0.0,0.0,0.0,0.0,0.0,0.0,0.0,0.0,0.0,0.0,0.0,0.0,0.0,0.0,0.0,0.0,0.0,0.0,0.0,0.0,0.0,0.0,3.4703,3.5653,3.6499,3.7221,3.7702,3.7773,3.7477,3.7117,3.656,3.5803,0.0,0.0,0.0,0.0,0.0,0.0,0.0,0.0,0.0,0.0,0.0,0.0,0.0,0.0,0.0,0.0,0.0,0.0,0.0,0.0,0.0,0.0,0.0,0.0,0.0,0.0,0.0,0.0,0.0,0.0,0.0,0.0,0.0,0.0,0.0,0.0,0.0,0.0,0.0,2.7693,2.8556,0.0,0.0,0.0,0.0,0.0,0.0,0.0,0.0,3.1364,0.0,0.0,0.0,0.0,0.0,0.0,0.0,0.0,0.0,0.0,0.0,0.0,0.0,0.0,0.0,0.0,0.0,0.0,0.0,0.0,0.0,0.0,0.0,0.0,0.0,0.0,0.0,0.0,0.0,0.0,0.0,0.0,0.0,0.0,0.0,0.0,0.0,0.0,0.0,0.0,0.0,0.0,0.0,0.0,0.0,0.0,0.0,0.0,0.0,0.0,0.0,0.0,0.0,0.0,0.0,3.581,3.6897,3.7876,3.868,3.9241,3.9316,3.8901,3.8311,3.7619,0.0,0.0,0.0,0.0,0.0,0.0,0.0,0.0,0.0,0.0,0.0,0.0,0.0,0.0,0.0,0.0,0.0,0.0,0.0,0.0,0.0,0.0,0.0,0.0,0.0,0.0,0.0,0.0,0.0,0.0,0.0,0.0,0.0,0.0,0.0,0.0,0.0,0.0,0.0,0.0,2.8837,2.9524,3.0949,0.0,0.0,0.0,0.0,0.0,0.0,3.2352,3.2058,0.0,0.0,0.0,0.0,0.0,0.0,0.0,0.0,0.0,0.0,0.0,0.0,0.0,0.0,0.0,0.0,0.0,0.0,0.0,0.0,0.0,0.0,0.0,0.0,0.0,0.0,0.0,0.0,0.0,0.0,0.0,0.0,0.0,0.0,0.0,0.0,0.0,0.0,0.0,0.0,0.0,0.0,0.0,0.0,0.0,0.0,0.0,0.0,0.0,0.0,0.0,0.0,0.0,0.0,0.0,3.716,3.8429,3.9521,4.0438,4.1055,4.1029,4.0385,3.9665,3.8841,0.0,0.0,0.0,0.0,0.0,0.0,0.0,0.0,0.0,0.0,0.0,0.0,0.0,0.0,0.0,0.0,0.0,0.0,0.0,0.0,0.0,0.0,0.0,0.0,0.0,0.0,0.0,0.0,0.0,0.0,0.0,0.0,0.0,0.0,0.0,0.0,0.0,0.0,0.0,0.0,0.0,3.0318,3.2134,3.1939,0.0,0.0,0.0,0.0,3.3674,3.3285,0.0,0.0,0.0,0.0,0.0,0.0,0.0,0.0,0.0,0.0,0.0,0.0,0.0,0.0,0.0,0.0,0.0,0.0,0.0,0.0,0.0,0.0,0.0,0.0,0.0,0.0,0.0,0.0,0.0,0.0,0.0,0.0,0.0,0.0,0.0,0.0,0.0,0.0,0.0,0.0,0.0,0.0,0.0,0.0,0.0,0.0,0.0,0.0,0.0,0.0,0.0,0.0,0.0,0.0,0.0,0.0,3.8353,4.0108,4.1724,4.3018,4.356,4.3487,4.2632,4.1589,4.0702,0.0,0.0,0.0,0.0,0.0,0.0,0.0,0.0,0.0,0.0,0.0,0.0,0.0,0.0,0.0,0.0,0.0,0.0,0.0,0.0,0.0,0.0,0.0,0.0,0.0,0.0,0.0,0.0,0.0,0.0,0.0,0.0,0.0,0.0,0.0,0.0,0.0,0.0,0.0,0.0,0.0,3.1324,3.2283,3.2488,3.2457,0.0,0.0,3.4445,3.3547,3.4586,0.0,0.0,0.0,0.0,0.0,0.0,0.0,0.0,0.0,0.0,0.0,0.0,0.0,0.0,0.0,0.0,0.0,0.0,0.0,0.0,0.0,0.0,0.0,0.0,0.0,0.0,0.0,0.0,0.0,0.0,0.0,0.0,0.0,0.0,0.0,0.0,0.0,0.0,0.0,0.0,0.0,0.0,0.0,0.0,0.0,0.0,0.0,0.0,0.0,0.0,0.0,0.0,0.0,0.0,0.0,3.8815,3.9724,4.193,4.3796,4.5184,4.6238,4.6456,4.5755,4.4151,4.3012,0.0,0.0,0.0,0.0,0.0,0.0,0.0,0.0,0.0,0.0,0.0,0.0,0.0,0.0,0.0,0.0,0.0,0.0,0.0,0.0,0.0,0.0,0.0,0.0,0.0,0.0,0.0,0.0,0.0,0.0,0.0,0.0,0.0,0.0,0.0,0.0,0.0,0.0,0.0,0.0,0.0,0.0,3.379,3.4179,0.0,0.0,0.0,3.5461,3.5056,0.0,0.0,0.0,0.0,0.0,0.0,0.0,0.0,0.0,0.0,0.0,0.0,0.0,0.0,0.0,0.0,0.0,0.0,0.0,0.0,0.0,0.0,0.0,0.0,0.0,0.0,0.0,0.0,0.0,0.0,0.0,0.0,0.0,0.0,0.0,0.0,0.0,0.0,0.0,0.0,0.0,0.0,0.0,0.0,0.0,0.0,0.0,0.0,0.0,0.0,0.0,0.0,0.0,0.0,0.0,0.0,0.0,4.1157,4.3771,4.5889,4.7426,4.8708,4.9091,4.8543,4.6832,0.0,0.0,0.0,0.0,0.0,0.0,0.0,0.0,0.0,0.0,0.0,0.0,0.0,0.0,0.0,0.0,0.0,0.0,0.0,0.0,0.0,0.0,0.0,0.0,0.0,0.0,0.0,2.6681,0.0,0.0,0.0,0.0,0.0,0.0,0.0,0.0,0.0,0.0,0.0,0.0,0.0,0.0,3.403,3.4991,3.5487,3.5923,0.0,0.0,3.6377,3.6383,3.6991,3.72,0.0,0.0,0.0,0.0,0.0,0.0,0.0,0.0,0.0,0.0,0.0,0.0,0.0,0.0,0.0,0.0,0.0,0.0,0.0,0.0,0.0,0.0,0.0,0.0,0.0,0.0,0.0,0.0,0.0,0.0,0.0,0.0,0.0,0.0,0.0,0.0,0.0,0.0,0.0,0.0,0.0,0.0,0.0,0.0,0.0,0.0,0.0,0.0,0.0,0.0,0.0,0.0,0.0,0.0,0.0,4.2631,4.5549,4.8079,5.0062,5.0779,5.0982,5.0697,4.9529,4.8117,0.0,0.0,0.0,0.0,0.0,0.0,0.0,0.0,0.0,0.0,0.0,0.0,0.0,0.0,0.0,0.0,0.0,0.0,0.0,0.0,0.0,0.0,0.0,0.0,0.0,0.0,0.0,0.0,0.0,0.0,0.0,0.0,0.0,0.0,0.0,0.0,0.0,0.0,0.0,0.0,0.0,3.4812,3.5065,3.5752,3.6273,0.0,0.0,3.722,3.6666,3.8215,3.8884,3.7133,0.0,0.0,0.0,0.0,0.0,0.0,0.0,0.0,0.0,0.0,0.0,0.0,0.0,0.0,0.0,0.0,0.0,0.0,0.0,0.0,0.0,0.0,0.0,0.0,0.0,0.0,0.0,0.0,0.0,0.0,0.0,0.0,0.0,0.0,0.0,0.0,0.0,0.0,0.0,0.0,0.0,0.0,0.0,0.0,0.0,0.0,0.0,0.0,0.0,0.0,0.0,0.0,0.0,4.2938,4.3773,4.7343,4.9973,5.1496,5.2819,5.3472,5.3382,5.171,5.0128,0.0,0.0,0.0,0.0,0.0,0.0,0.0,0.0,0.0,0.0,0.0,0.0,0.0,0.0,0.0,0.0,0.0,0.0,0.0,0.0,0.0,0.0,0.0,0.0,0.0,0.0,0.0,0.0,2.9776,2.9975,2.9727,0.0,0.0,0.0,0.0,0.0,0.0,0.0,0.0,0.0,0.0,3.5885,3.6818,3.722,0.0,0.0,3.7849,3.7859,3.7262,3.8477,3.8931,3.7174,3.7261,0.0,0.0,0.0,0.0,0.0,0.0,0.0,0.0,0.0,0.0,0.0,0.0,0.0,0.0,0.0,0.0,0.0,0.0,0.0,0.0,0.0,0.0,0.0,0.0,0.0,0.0,0.0,0.0,0.0,0.0,0.0,0.0,0.0,0.0,0.0,0.0,0.0,0.0,0.0,0.0,0.0,0.0,0.0,0.0,0.0,0.0,0.0,0.0,0.0,0.0,0.0,0.0,4.4414,4.5561,4.9218,5.1891,5.3523,5.4766,5.5545,5.5681,5.4328,5.2793,0.0,0.0,0.0,0.0,0.0,0.0,0.0,0.0,0.0,0.0,0.0,0.0,0.0,0.0,0.0,0.0,0.0,0.0,0.0,0.0,0.0,0.0,0.0,0.0,0.0,0.0,0.0,0.0,3.0725,3.0968,3.0923,0.0,0.0,0.0,0.0,0.0,0.0,0.0,0.0,0.0,0.0,3.701,3.7812,3.8076,3.8271,3.851,3.8532,3.839,3.8024,3.8829,3.902,3.7655,0.0,0.0,0.0,0.0,0.0,0.0,0.0,0.0,0.0,0.0,0.0,0.0,0.0,0.0,0.0,0.0,0.0,0.0,0.0,0.0,0.0,0.0,0.0,0.0,0.0,0.0,0.0,0.0,0.0,0.0,0.0,0.0,0.0,0.0,0.0,0.0,0.0,0.0,0.0,0.0,0.0,0.0,0.0,0.0,0.0,0.0,0.0,0.0,0.0,0.0,0.0,0.0,0.0,4.6652,4.8221,5.1126,5.3895,5.6434,5.666,5.6985,5.7597,5.7578,5.631,5.3613,0.0,0.0,0.0,0.0,0.0,0.0,0.0,0.0,0.0,0.0,0.0,0.0,0.0,0.0,0.0,0.0,0.0,0.0,0.0,0.0,0.0,0.0,0.0,0.0,0.0,0.0,2.9327,3.0498,3.1715,0.0,0.0,0.0,0.0,0.0,0.0,0.0,0.0,0.0,0.0,3.7582,3.8125,3.7642,3.8049,3.8537,3.8818,3.8839,3.8876,3.9041,3.9417,3.9466,0.0,0.0,0.0,0.0,0.0,0.0,0.0,0.0,0.0,0.0,0.0,0.0,0.0,0.0,0.0,0.0,0.0,0.0,0.0,0.0,0.0,0.0,0.0,0.0,0.0,0.0,0.0,0.0,0.0,0.0,0.0,0.0,0.0,0.0,0.0,0.0,0.0,0.0,0.0,0.0,4.2902,4.3104,0.0,0.0,0.0,0.0,0.0,0.0,0.0,0.0,0.0,0.0,0.0,0.0,4.7536,4.9447,5.2165,5.4597,5.6633,5.7548,5.8287,5.8871,5.8324,5.6283,5.262,0.0,0.0,0.0,0.0,0.0,0.0,0.0,0.0,0.0,0.0,0.0,0.0,0.0,0.0,0.0,0.0,0.0,0.0,0.0,0.0,0.0,0.0,0.0,0.0,0.0,3.1478,0.0,0.0,0.0,0.0,0.0,0.0,0.0,0.0,0.0,0.0,0.0,3.6317,3.6916,3.757,3.813,3.8526,3.9069,3.9743,0.0,0.0,0.0,0.0,0.0,0.0,0.0,0.0,0.0,0.0,0.0,0.0,0.0,0.0,3.8331,3.6255,3.6665,3.7327,3.7165,0.0,0.0,0.0,0.0,0.0,0.0,0.0,0.0,0.0,0.0,0.0,0.0,0.0,0.0,0.0,0.0,3.9905,0.0,0.0,0.0,0.0,0.0,0.0,0.0,0.0,4.389,4.424,4.4001,4.4419,4.4373,0.0,4.4284,4.4256,0.0,0.0,0.0,0.0,0.0,0.0,0.0,0.0,4.8939,5.0944,5.3274,5.5474,5.7422,5.844,5.9232,5.994,5.8819,5.6629,5.324,5.0847,4.8397,0.0,0.0,0.0,0.0,0.0,0.0,0.0,0.0,0.0,0.0,0.0,0.0,0.0,0.0,0.0,0.0,0.0,0.0,0.0,0.0,0.0,0.0,0.0,3.2915,0.0,0.0,0.0,0.0,0.0,0.0,0.0,0.0,0.0,3.5981,3.6897,3.7832,3.8349,3.8803,3.9176,3.9324,0.0,0.0,0.0,0.0,0.0,0.0,0.0,4.0923,4.0019,4.0461,4.1053,4.1503,4.1474,4.1353,4.1433,0.0,0.0,3.8109,3.8373,3.9016,3.8878,3.8956,3.9029,3.9226,3.8961,3.8737,0.0,0.0,0.0,0.0,0.0,0.0,0.0,0.0,4.2424,4.1473,0.0,0.0,0.0,0.0,0.0,0.0,0.0,0.0,0.0,0.0,4.5743,4.6258,4.6587,4.6635,4.6599,0.0,4.6364,4.6364,4.6311,4.524,0.0,0.0,0.0,0.0,0.0,0.0,5.0904,5.2721,5.4456,5.6577,5.8889,5.933,5.9973,6.0833,5.9252,5.7493,5.5581,5.3386,5.0877,4.8047,4.6343,0.0,0.0,0.0,0.0,0.0,0.0,0.0,0.0,0.0,0.0,0.0,0.0,0.0,0.0,0.0,0.0,0.0,0.0,0.0,0.0,3.3715,0.0,0.0,0.0,0.0,0.0,0.0,0.0,0.0,0.0,0.0,3.8122,3.8928,3.9823,4.056,0.0,0.0,0.0,0.0,4.1135,4.0455,4.1312,4.1767,4.0894,4.1906,4.258,4.1974,0.0,0.0,4.4778,4.3637,4.2938,4.3828,4.4213,4.3391,4.0326,4.0184,4.046,4.0508,4.0065,3.9631,4.025,4.0096,3.9392,5.0191,0.0,0.0,0.0,0.0,4.6342,4.6046,4.5743,4.5623,4.5052,4.4254,4.4927,0.0,0.0,0.0,0.0,0.0,0.0,4.4921,4.5195,4.5824,4.6538,4.7315,4.7315,4.7423,4.7575,4.8024,4.8221,4.8223,4.8114,4.7551,4.6516,0.0,0.0,0.0,0.0,5.1747,5.389,5.4921,5.6677,5.9308,5.9693,6.0338,6.1317,6.0018,5.8538,5.6903,5.4485,5.2407,5.0735,4.8482,0.0,0.0,0.0,0.0,0.0,0.0,0.0,0.0,0.0,0.0,0.0,0.0,0.0,0.0,0.0,0.0,0.0,0.0,0.0,3.577,3.6536,3.6993,0.0,0.0,0.0,0.0,0.0,0.0,0.0,0.0,0.0,4.1085,4.0838,4.064,0.0,0.0,4.1829,4.1654,4.2388,4.3148,4.3711,0.0,0.0,0.0,4.4704,4.4647,4.4931,4.5482,4.5968,4.6229,4.6247,4.6304,4.6395,4.6453,4.6135,4.5189,4.461,4.4337,4.42,4.4308,4.4489,4.4538,4.4312,4.4101,5.3938,5.254,5.0607,4.9541,4.9161,4.8864,4.8702,4.8685,4.8618,4.8043,4.7208,4.7745,4.7152,4.5751,4.6115,0.0,0.0,0.0,4.6401,4.6264,4.7127,4.7788,4.8289,4.8802,4.908,4.9169,4.9437,4.9554,4.9554,5.0137,4.9898,4.8965,0.0,0.0,5.0376,5.147,5.2945,5.4831,5.5487,5.7058,5.9643,6.0628,6.1277,6.1511,6.0478,5.9096,5.7451,5.5306,5.3559,5.2219,5.0322,4.8542,0.0,0.0,0.0,0.0,0.0,0.0,0.0,0.0,0.0,0.0,0.0,3.6929,3.6583,0.0,0.0,0.0,3.763,3.8007,3.8269,3.8889,0.0,0.0,0.0,0.0,0.0,0.0,0.0,4.0118,4.1774,4.2955,4.3048,4.3517,4.3596,4.2961,4.3572,4.4064,4.4095,0.0,4.5222,4.5742,4.5829,4.6034,4.6513,4.6631,4.6836,4.746,4.7528,4.7735,4.8202,4.8407,4.8506,4.8621,4.8835,4.8986,4.8871,4.8673,4.8019,4.6581,4.6476,4.6687,4.6615,4.647,4.6324,5.718,5.6335,5.3388,5.2011,5.182,5.1374,5.1185,5.1173,5.1218,5.0442,4.9131,5.0072,4.9338,4.7515,4.8035,0.0,0.0,4.8254,4.8369,4.8119,4.9282,4.9745,4.968,5.086,5.1279,5.1021,5.0791,5.0717,5.0802,5.1582,5.1873,5.1626,5.1433,5.1294,5.1321,5.2896,5.4361,5.5574,5.6182,5.7649,5.9981,6.1832,6.2384,6.161,6.0672,5.94,5.7625,5.6046,5.4518,5.3068,5.1986,5.0486,4.8395,0.0,0.0,0.0,0.0,0.0,0.0,0.0,0.0,0.0,0.0,0.0,0.0,0.0,0.0,0.0,4.076,0.0,4.0985,4.0978,0.0,0.0,0.0,4.1439,4.2251,4.2138,4.2165,4.2711,0.0,0.0,0.0,0.0,4.7889,4.6865,4.715,4.7329,4.6963,4.7279,4.744,4.7207,4.7503,4.768,4.7451,4.8161,4.9008,4.9469,4.925,4.9404,5.03,5.0176,5.0029,5.0482,5.1149,5.1503,5.1557,5.1778,5.1405,4.8206,4.7472,4.7347,4.7654,4.7441,4.7251,5.8579,5.8139,5.7198,5.5675,5.3893,5.376,5.3596,5.3375,5.2919,5.2147,5.1295,5.1712,5.14,5.0539,5.0684,5.0258,4.945,4.9625,4.9883,5.0257,5.0549,5.1203,5.2214,5.3047,5.3259,5.2966,5.315,5.335,5.357,5.3552,5.3499,5.3471,5.3867,5.3724,5.312,5.3948,5.4969,5.6154,5.6789,5.8063,6.0014,6.122,6.1759,6.1583,6.0625,5.9826,5.9161,5.7607,5.6368,5.5464,5.4313,5.2729,5.0774,4.8958,0.0,0.0,0.0,0.0,0.0,0.0,0.0,0.0,0.0,4.1265,4.0842,0.0,4.2707,0.0,4.2896,4.3228,4.3207,4.3228,0.0,0.0,4.3993,4.4341,4.5171,4.5815,4.6094,4.5923,4.7228,4.8208,4.8341,4.9742,5.0908,5.1278,5.0311,4.9536,4.9433,5.0108,5.0589,5.0478,5.0261,5.0246,5.0349,5.0719,5.1006,5.1021,5.1286,5.1616,5.1881,5.1822,5.1763,5.194,5.2058,5.2176,5.2201,5.2294,5.2186,5.1321,5.1076,5.1052,5.1126,5.0973,5.0924,6.0521,5.9716,5.984,5.8598,5.6511,5.6078,5.5606,5.5059,5.4695,5.3966,5.2985,5.2649,5.223,5.1849,5.2428,5.2088,5.119,5.1718,5.1865,5.1639,5.1808,5.2453,5.3451,5.4037,5.431,5.4406,5.4586,5.4703,5.4787,5.485,5.4853,5.4742,5.5311,5.5394,5.4932,5.5256,5.5888,5.6862,5.81,5.9367,6.0514,6.1614,6.2049,6.1816,6.0993,6.0355,5.9941,5.823,5.6986,5.6335,5.5332,5.3891,5.2004,5.0637,4.9309,0.0,0.0,0.0,0.0,0.0,0.0,0.0,0.0,0.0,0.0,0.0,4.491,0.0,0.0,0.0,4.554,4.5746,4.6071,4.6425,4.6742,4.7229,4.8014,4.8625,4.9015,4.909,5.0186,5.1,5.1167,5.2168,5.302,5.3579,5.3097,5.2486,5.2087,5.243,5.2712,5.2712,5.2502,5.2427,5.2658,5.2707,5.2738,5.2671,5.2892,5.3101,5.3125,5.3101,5.3101,5.3131,5.334,5.3544,5.3574,5.3813,5.3992,5.3992,5.3992,5.361,5.263,5.2412,5.2412,6.2465,6.1132,6.1686,6.0853,5.9114,5.8356,5.7432,5.6462,5.6372,5.5645,5.4536,5.3516,5.2887,5.2624,5.3762,5.3712,5.2816,5.3908,5.382,5.2732,5.3128,5.3645,5.4234,5.473,5.5205,5.5641,5.5674,5.5623,5.546,5.5896,5.5988,5.5764,5.6251,5.648,5.6394,5.6497,5.6936,5.7755,5.9611,6.0716,6.1146,6.2221,6.2499,6.1981,6.141,6.0817,6.0194,5.8536,5.7347,5.6666,5.6015,5.4805,5.297,5.2196,5.1248,0.0,4.9532,0.0,0.0,0.0,0.0,0.0,0.0,0.0,0.0,4.6356,4.6869,4.7654,4.8203,4.8323,4.7809,4.8306,4.8727,4.887,4.9463,5.0148,5.078,5.1107,5.1478,5.2061,5.2816,5.3352,5.349,5.418,5.4665,5.4896,5.5383,5.5367,5.4674,5.4409,5.4361,5.4337,5.4229,5.404,5.3986,5.4029,5.4073,5.4127,5.4207,5.4242,5.4261,5.4261,5.4309,5.4437,5.4843,5.5226,5.5274,5.5705,5.6039,5.5838,5.5808,5.5203,5.3556,5.309,5.2847,6.3149,6.2456,6.2552,6.1829,6.0589,6.0414,5.9368,5.7696,5.7154,5.6672,5.6239,5.5778,5.5554,5.5519,5.5754,5.5296,5.437,5.4633,5.4548,5.4285,5.4886,5.5407,5.5901,5.6969,5.7294,5.6971,5.7223,5.7428,5.7594,5.749,5.7269,5.696,5.7076,5.6879,0.0,0.0,0.0,0.0,6.0071,6.058,6.1156,6.1423,6.1462,6.1292,6.1133,0.0,6.0158,5.9726,5.9183,5.8515,5.7851,0.0,0.0,0.0,0.0,0.0,0.0,0.0,0.0,0.0,0.0,0.0,5.0039,4.9406,4.8477,4.8905,4.9312,4.9508,4.9607,4.9703,4.9757,5.0401,5.11,5.1798,5.2518,5.3193,5.3814,5.4083,5.4337,5.446,5.4799,5.5247,5.569,5.6,5.6311,5.6761,5.705,5.7081,5.6838,5.645,5.6265,5.6241,5.5582,5.4973,5.4399,5.4629,5.4867,5.488,5.5305,5.5603,5.5633,5.5633,5.5852,5.6271,5.655,5.6611,5.6636,5.6732,5.6691,5.6125,5.6058,5.5863,5.5423,5.5313,5.5313,6.4003,0.0,6.3156,6.2459,0.0,0.0,6.0617,5.9518,5.8201,5.7265,5.6704,5.6412,5.6359,5.6518,5.6844,5.6618,5.596,5.6258,5.6258,5.5905,5.6102,5.6476,5.6995,5.754,5.7753,5.7753,5.8077,5.8225,5.8195,5.8225,5.8086,5.7751,5.7612,5.7388,5.7107,5.7599,5.8376,5.9491,5.9641,5.9939,6.0442,6.0852,6.1082,6.1043,0.0,0.0,0.0,0.0,0.0,0.0,0.0,0.0,0.0,0.0,0.0,5.3537,5.3406,5.3315,5.3199,5.3407,5.3369,5.3085,5.3145,5.2538,5.0966,5.1434,5.2097,5.2659,5.2712,5.2757,5.2846,5.32,5.3585,5.4039,5.4402,5.4868,5.5457,5.5705,5.5953,5.6233,5.6396,5.6645,5.6957,5.7332,5.7644,5.8018,5.833,5.8542,5.8455,5.771,5.7115,5.6971,5.6604,5.6091,5.5695,5.5752,5.603,5.6335,5.6672,5.7008,5.7345,5.7375,5.7498,5.7834,5.7895,5.7895,5.7895,5.7895,5.7773,5.7467,5.7375,5.7375,5.732,5.6658,5.6003,6.4792,6.3971,6.3697,6.3025,6.2144,6.1838,6.1473,6.0956,0.0,0.0,0.0,5.6989,5.7045,5.7497,5.7821,5.7749,5.7513,5.7905,5.7726,5.7094,5.7007,5.7259,5.7767,5.767,5.7887,5.836,5.8637,5.8609,5.836,5.8637,5.8582,5.8278,5.8059,5.7948,5.7977,5.8223,5.855,5.8842,5.9132,5.9509,5.9912,6.0623,6.0984,6.0978,6.0986,6.0923,6.0829,6.0365,5.9871,5.9349,5.873,5.7841,5.6652,5.5975,5.5328,5.4681,5.4998,5.5108,5.4981,5.531,5.548,5.5356,5.5416,5.4864,5.3279,5.3688,5.4435,5.5414,5.5499,5.549,5.5567,5.5661,5.5746,5.5823,5.5917,5.6284,5.6878,5.7003,5.7285,5.7856,5.8005,5.7981,5.8067,5.8505,5.8912,5.8974,5.9336,5.9694,5.9569,5.8659,5.7899,5.77,5.7652,5.7487,5.7342,5.7325,5.7517,5.7949,5.8103,5.8319,5.8783,5.8937,5.8974,5.9091,5.9097,5.9097,5.9122,5.9122,5.9091,5.8968,5.8968,5.8937,5.8795,5.7702,5.6646,6.5101,6.4706,6.4398,6.3695,6.2839,6.2503,6.1894,6.1044,6.0176,6.0059,6.042,5.923,5.9349,6.045,5.9374,5.8892,5.88,5.8351,5.7726,0.0,5.764,5.7942,5.8062,5.8602,5.8874,5.8964,5.9018,5.9018,5.8991,5.9018,5.8882,5.8637,5.8582,5.8555,5.8584,5.8646,5.876,5.9071,5.9439,5.9998,6.0822,6.0932,6.0969,6.092,6.1179,6.1061,6.0477,6.0621,6.0633,6.0536,6.0095,5.9512,5.8795,5.8335,5.7772,5.7088,5.7097,5.7089,5.7042,5.7144,5.6918,5.6349,5.5811,5.5382,5.515,5.5189,5.5306,5.5499,5.5607,5.5559,5.5771,5.6373,5.6818,5.7009,5.7551,5.815,5.8758,5.8829,5.905,5.9704,5.9917,5.983,5.9743,5.9901,6.0027,6.0051,6.0224,6.024,6.0207,5.9714,5.9347,5.9242,5.9242,5.9218,5.902,5.9169,5.9145,5.9318,5.9301,5.9338,5.9556,5.9594,5.9774,6.0235,6.0279,6.0303,6.0303,6.0353,6.0117,5.9712,5.9587,5.9556,5.9563,5.9061,5.8418,6.5223,6.4638,6.43,6.3839,6.3256,6.2943,6.2593,6.2121,6.1463,6.1134,6.1044,6.0448,6.0508,6.0986,6.0086,5.9638,5.9608,5.8949,5.8501,5.8231,5.8501,5.8623,5.8653,5.8949,5.9099,5.9099,5.9099,5.9099,5.9099,5.9099,5.9045,5.8939,5.8909,5.8828,5.8721,5.8828,5.9045,5.9318,5.9476,5.9804,6.0188,6.0515,6.0661,6.0624,6.1077,6.1158,6.082,6.1103,6.1231,6.1257,6.0707,6.0279,5.9967,5.9468,5.901,5.8667,5.8787,5.8811,5.8635,5.8387,5.7989,5.7324,5.7471,5.7572,5.7572,5.6766,5.6484,5.6944,5.7007,5.721,5.7648,5.7986,5.8379,5.882,5.9191,5.9507,5.976,5.9823,5.9981,6.0234,6.0297,6.0297,6.0297,6.0645,6.0897,6.0929,6.1182,6.141,6.141,6.1239,6.076,6.0004,5.9798,5.975,5.9652,5.9603,5.9728,6.0072,6.0141,6.0297,6.0546,6.0671,6.0796,6.1077,6.1139,6.1139,6.1139,6.1139,6.0983,6.0827,6.0671,6.0671,6.0646,6.0322,5.9601,6.5126,6.4354,6.4019,6.3709,6.3365,6.3194,6.3108,6.3048,6.2539,6.2032,6.1553,6.1283,6.1283,6.1463,6.0535,6.0236,6.0386,5.9518,5.9189,5.9308,5.9159,5.9099,5.9099,5.9099,5.9189,5.9308,5.9338,5.9338,5.9308,5.9338,5.9276,5.921,5.9291,5.9237,5.9099,5.9288,5.9529,5.9796,5.9849,5.9823,5.9716,6.0219,6.0508,6.0612,6.1026,6.1283,6.1308,6.1481,6.1582,6.1551,6.1158,6.0864,6.0677,6.0257,5.993,5.9798,5.9944,6.0016,5.9864,5.9585,5.9168,5.8687,5.9293,5.9727,5.9608,5.8582,5.8093,5.8715,5.8879,5.9124,5.9536,5.9695,5.9893,6.0424,6.0487,6.0543,6.0678,6.0741,6.0812,6.09,6.0963,6.0995,6.1034,6.1366,6.1666,6.1719,6.2074,6.239,6.2421,6.2421,6.181,6.0994,6.0536,6.0558,6.0268,6.0275,6.055,6.0939,6.1026,6.1239,6.159,6.1753,6.1759,6.1778,6.1753,6.1747,6.1784,6.1784,6.1778,6.1684,6.1678,6.1721,6.1583,6.1271,6.0465,6.4471,6.4328,6.3793,6.3395,6.3165,6.3108,6.3108,6.3108,6.3018,6.2988,6.2748,6.1642,6.1822,6.2569,6.0982,6.0775,6.1672,5.9967,5.9458,5.9877,5.9368,5.9129,5.9189,5.9129,5.9428,5.9937,5.9997,5.9997,5.9997,5.9994,5.9834,5.9536,5.9773,6.0012,6.0193,6.0246,6.0403,6.069,6.0923,6.0794,6.0377,6.0612,6.0871,6.1103,6.141,6.1557,6.1557,6.1582,6.1607,6.1607,6.1772,6.1614,6.1074,6.1113,6.0944,6.032,6.0305,6.0345,6.059,6.0778,6.0831,6.079,6.0799,6.0918,6.0942,6.079,6.0633,6.058,6.0729,6.0759,6.0933,6.0886,6.0959,6.1095,6.1119,6.1285,6.1845,6.2029,6.2253,6.2844,6.27,6.2908,6.2708,6.2658,6.2502,6.2274,6.2319,6.2421,6.2421,6.2421,6.239,6.2151,6.2119,6.2087,6.1975,6.2126,6.1982,6.2108,6.2196,6.2202,6.2216,6.2241,6.229,6.2166,6.2266,6.2241,6.2266,6.2347,6.2297,6.2191,6.2191,6.2216,6.2041,6.1872,6.1239,6.4664,6.4104,6.3679,6.3338,6.3137,6.3108,6.3108,6.3108,6.3108,6.3108,6.3048,6.251,6.257,6.3018,6.182,6.1583,6.2002,6.0835,6.0416,6.0655,6.0388,6.0296,6.0296,6.0296,6.0446,6.0685,6.0715,6.0685,6.0653,6.0461,6.0166,5.986,6.0092,6.0302,6.0403,6.0716,6.0923,6.1057,6.1308,6.1334,6.1149,6.1231,6.1303,6.1461,6.1683,6.1866,6.1866,6.196,6.2066,6.2091,6.234,6.2362,6.2077,6.2321,6.234,6.2029,6.2021,6.1878,6.1614,6.1701,6.1579,6.1131,6.1515,6.1771,6.1803,6.2242,6.2522,6.2355,6.1635,6.1236,6.1675,6.1771,6.1908,6.2236,6.2332,6.246,6.2748,6.278,6.294,6.3172,6.3204,6.3204,6.3156,6.2954,6.2783,6.2636,6.2513,6.2421,6.2421,6.2421,6.2421,6.2421,6.2421,6.2421,6.2421,6.2421,6.2421,6.2421,6.2421,6.2421,6.2421,6.2421,6.2421,6.2421,6.2421,6.2421,6.2396,6.2421,6.2421,6.2421,6.2421,6.2372,6.2241,6.2241,6.1845,6.4645,6.3995,6.3567,6.328,6.3108,6.3108,6.3108,6.3108,6.3108,6.3108,6.3108,6.3108,6.3108,6.3018,6.2391,6.2181,6.2241,6.1493,6.1224,6.1343,6.1166,6.1076,6.1076,6.1076,6.1224,6.1373,6.1457,6.1451,6.1325,6.0938,6.0543,6.0209,6.0351,6.056,6.0664,6.1057,6.1231,6.1334,6.1588,6.1714,6.1708,6.1834,6.1859,6.1734,6.2066,6.2216,6.2241,6.2464,6.2587,6.2612,6.2808,6.2905,6.2905,6.3107,6.3204,6.3204,6.3276,6.31,6.2611,6.265,6.2449,6.2023,6.2441,6.2674,6.2818,6.3322,6.3675,6.3578,6.2599,6.2184,6.2569,6.2674,6.2931,6.3357,6.3421,6.3421,6.3413,6.3421,6.3413,6.3421,6.3469,6.3397,6.3268,6.3075,6.2905,6.2783,6.2562,6.2421,6.2421,6.2421,6.2421,6.2421,6.2421,6.2421,6.2421,6.2421,6.2421,6.2421,6.2421,6.2421,6.2421,6.2421,6.2421,6.2421,6.2421,6.2421,6.2421,6.2421,6.2421,6.2421,6.2421,6.2421,6.2372,6.2396,6.2396,6.4021,6.3908,6.3367,6.3137,6.3108,6.3108,6.3108,6.3108,6.3108,6.3108,6.3108,6.3108,6.3108,6.3078,6.245,6.2479,6.2838,6.1762,6.1553,6.1972,6.1463,6.1134,6.1076,6.1106,6.1463,6.2088,6.2314,6.2263,6.1965,6.1595,6.1049,6.0495,6.0756,6.0959,6.1165,6.1237,6.1334,6.1557,6.1834,6.1991,6.2066,6.2488,6.2488,6.2116,6.2488,6.2759,6.2783,6.3002,6.3156,6.3156,6.3148,6.318,6.318,6.3228,6.3228,6.3252,6.3437,6.358,6.3572,6.3682,6.3768,6.3791,6.3703,6.3856,6.3744,6.3865,6.392,6.3976,6.3768,6.3735,6.3768,6.3688,6.38,6.3888,6.392,6.3953,6.3953,6.3873,6.3953,6.3929,6.3906,6.3779,6.358,6.3349,6.3051,6.2832,6.2562,6.2421,6.2421,6.2421,6.2421,6.2421,6.2421,6.2421,6.2421,6.2421,6.2421,6.2421,6.2421,6.2421,6.2421,6.2421,6.2421,6.2421,6.2421,6.2421,6.2421,6.2421,6.2421,6.2421,6.2421,6.2421,6.2421,6.2421,6.2421,6.4158,6.3424,6.3194,6.3108,6.3108,6.3108,6.3108,6.3108,6.3108,6.3108,6.3108,6.3108,6.3108,6.3078,6.2868,6.2868,6.3048,6.257,6.2539,6.269,6.2509,6.2361,6.2361,6.2389,6.2595,6.2946,6.309,6.3068,6.2906,6.2734,6.2549,6.2223,6.1865,6.1831,6.2052,6.1857,6.1765,6.1916,6.229,6.2513,6.2538,6.2856,6.293,6.2783,6.293,6.3051,6.3051,6.3124,6.3204,6.3204,6.3341,6.3469,6.3493,6.3636,6.3707,6.3707,6.3802,6.385,6.385,6.3976,6.4,6.4,6.4,6.4,6.4,6.4,6.4,6.4,6.4,6.4,6.4,6.4,6.4038,6.4123,6.4085,6.4038,6.4132,6.4085,6.4,6.4,6.4,6.3976,6.3802,6.3469,6.318,6.3059,6.2692,6.2446,6.2421,6.2421,6.2421,6.2421,6.2421,6.2421,6.2421,6.2421,6.2421,6.2421,6.2421,6.2421,6.2421,6.2421,6.2421,6.2421,6.2421,6.2421,6.2421,6.2421,6.2421,6.2421,6.2421,6.2421,6.2421,6.2421,6.2421,6.437,6.331,6.3223,6.3194,6.3108,6.3108,6.3108,6.3108,6.3108,6.3108,6.3108,6.3108,6.3108,6.3108,6.3108,6.3108,6.3108,6.3108,6.3108,6.3108,6.3108,6.3165,6.3223,6.3223,6.3395,6.3652,6.3764,6.3769,6.3684,6.3705,6.3607,6.3379,6.2886,6.2706,6.2797,6.2581,6.2418,6.2403,6.271,6.293,6.2954,6.3172,6.3317,6.3349,6.3421,6.3421,6.3349,6.3421,6.3469,6.3525,6.3829,6.415,6.44,6.4576,6.4704,6.4704,6.468,6.455,6.4356,6.4324,6.4227,6.4,6.4,6.4,6.4,6.4,6.4,6.4,6.4,6.4,6.4,6.4,6.4085,6.424,6.4202,6.4156,6.4286,6.417,6.4085,6.4024,6.4,6.4,6.3953,6.3517,6.3252,6.3204,6.2741,6.2446,6.2421,6.2421,6.2421,6.2421,6.2421,6.2421,6.2421,6.2421,6.2421,6.2421,6.2421,6.2421,6.2421,6.2421,6.2421,6.2421,6.2421,6.2421,6.2421,6.2421,6.2421,6.2421,6.2421,6.2421,6.2421,6.2421,6.2421,6.4655,6.3597,6.351,6.3367,6.3194,6.3165,6.3137,6.3137,6.3108,6.3108,6.3108,6.3108,6.3108,6.3108,6.3108,6.3108,6.3137,6.3165,6.3165,6.3137,6.3137,6.328,6.351,6.351,6.3709,6.3991,6.43,6.4381,6.4317,6.434,6.4186,6.3859,6.3813,6.3631,6.3203,6.3413,6.3228,6.3006,6.3115,6.3204,6.3228,6.3501,6.3709,6.37,6.3964,6.402,6.3733,6.3923,6.4026,6.4147,6.4688,6.5327,6.5789,6.5934,6.6031,6.5934,6.5999,6.5683,6.5101,6.5004,6.4745,6.4356,6.4129,6.4194,6.4162,6.4097,6.4065,6.4,6.4,6.4,6.4,6.4,6.4085,6.4263,6.4286,6.4286,6.4398,6.4342,6.4249,6.4159,6.4056,6.4,6.3906,6.354,6.3228,6.3107,6.2766,6.2421,6.2421,6.2421,6.2421,6.2421,6.2421,6.2421,6.2421,6.2421,6.2421,6.2421,6.2421,6.2421,6.2421,6.2421,6.2421,6.2421,6.2421,6.2421,6.2421,6.2421,6.2421,6.2421,6.2421,6.2421,6.2421,6.2421,6.2421,6.4797,6.391,6.3851,6.3823,6.3709,6.3481,6.3395,6.3367,6.3194,6.3108,6.3108,6.3108,6.3108,6.3108,6.3108,6.3223,6.3367,6.3367,6.3367,6.3395,6.3395,6.3538,6.3795,6.3851,6.3991,6.4328,6.4802,6.4981,6.5014,6.5173,6.529,6.5338,6.5078,6.4997,6.4995,6.4423,6.3952,6.3834,6.3573,6.346,6.3549,6.4183,6.456,6.4617,6.5141,6.54,6.5296,6.4915,6.4939,6.5416,6.5643,6.5869,6.6064,6.6096,6.6096,6.6096,6.6096,6.6064,6.5813,6.5772,6.5675,6.5481,6.5416,6.5165,6.4777,6.468,6.4453,6.4097,6.4,6.4,6.4,6.4,6.4085,6.4254,6.431,6.4575,6.5017,6.5111,6.5059,6.4899,6.441,6.4056,6.3929,6.354,6.3228,6.3156,6.2766,6.2421,6.2421,6.2421,6.2421,6.2421,6.2421,6.2421,6.2421,6.2421,6.2421,6.2421,6.2421,6.2421,6.2421,6.2421,6.2421,6.2421,6.2421,6.2421,6.2421,6.2421,6.2421,6.2421,6.2421,6.2421,6.2421,6.2421,6.2421,6.539,6.4525,6.4254,6.4106,6.3993,6.3766,6.3651,6.3681,6.351,6.3453,6.3453,6.3453,6.3453,6.3453,6.3424,6.3538,6.3681,6.3681,6.3766,6.3793,6.3738,6.388,6.416,6.4384,6.4552,6.4771,6.5211,6.5515,6.5654,6.592,6.6188,6.6385,6.63,6.6121,6.6161,6.5589,6.5105,6.4833,6.4666,6.4529,6.465,6.5093,6.5392,6.5513,6.5942,6.6347,6.6566,6.6306,6.6095,6.6177,6.6355,6.6614,6.6841,6.6906,6.6873,6.6873,6.6873,6.6809,6.655,6.6517,6.6355,6.6193,6.6096,6.5772,6.5165,6.5004,6.4712,6.4129,6.4,6.4,6.4,6.4,6.4094,6.4179,6.4263,6.4575,6.5139,6.5339,6.5375,6.523,6.4876,6.4586,6.4403,6.3685,6.326,6.3131,6.2741,6.2421,6.2421,6.2421,6.2421,6.2421,6.2421,6.2421,6.2421,6.2421,6.2421,6.2421,6.2421,6.2421,6.2421,6.2421,6.2421,6.2421,6.2421,6.2421,6.2421,6.2421,6.2421,6.2421,6.2421,6.2421,6.2421,6.2421,6.2421,6.6405,6.5417,6.4774,6.4389,6.4106,6.4049,6.4021,6.3991,6.3965,6.3936,6.3965,6.3908,6.3936,6.3965,6.3999,6.4027,6.4052,6.4143,6.4279,6.4359,6.4272,6.4272,6.4521,6.4995,6.5214,6.5324,6.5565,6.5893,6.6166,6.6427,6.6775,6.6948,6.7143,6.7094,6.669,6.6699,6.6366,6.5875,6.5885,6.5942,6.5967,6.6153,6.6234,6.6291,6.6614,6.7061,6.7574,6.7744,6.741,6.6574,6.7036,6.7563,6.8057,6.8194,6.8039,6.8007,6.8169,6.778,6.7392,6.723,6.7003,6.6517,6.6323,6.5845,6.5295,6.5068,6.4712,6.4097,6.4,6.4,6.4,6.4,6.4024,6.4047,6.43,6.4528,6.4463,6.5073,6.5343,6.5384,6.5352,6.5263,6.5029,6.3926,6.3365,6.3107,6.2766,6.2471,6.2421,6.2421,6.2421,6.2421,6.2421,6.2421,6.2421,6.2421,6.2421,6.2421,6.2421,6.2421,6.2421,6.2421,6.2421,6.2421,6.2421,6.2421,6.2421,6.2421,6.2421,6.2421,6.2421,6.2421,6.2421,6.2421,6.2421,6.7401,6.6097,6.5883,6.5346,6.4669,6.4412,6.43,6.4272,6.4075,6.4049,6.4021,6.4021,6.408,6.4082,6.4538,6.459,6.4575,6.4847,6.5006,6.5026,6.4995,6.4995,6.5132,6.5402,6.5592,6.5677,6.592,6.6219,6.6485,6.677,6.7057,6.7285,6.7542,6.7631,6.7457,6.7232,6.7034,6.6767,6.6306,6.6282,6.6525,6.6972,6.7289,6.7523,6.8021,6.8372,6.8601,6.8683,6.8642,6.8332,6.8209,6.8306,6.8443,6.8326,6.8226,6.8201,6.8201,6.8136,6.7974,6.791,6.7813,6.7651,6.7132,6.6614,6.5845,6.5295,6.4712,6.4162,6.4,6.4,6.4,6.4,6.4,6.4088,6.4536,6.5008,6.5213,6.5395,6.5408,6.5352,6.482,6.4586,6.4371,6.3829,6.3228,6.3107,6.279,6.2421,6.2421,6.2421,6.2421,6.2421,6.2421,6.2421,6.2421,6.2421,6.2421,6.2421,6.2421,6.2421,6.2421,6.2421,6.2421,6.2421,6.2421,6.2421,6.2421,6.2421,6.2421,6.2421,6.2421,6.2421,6.2421,6.2421,6.2421,6.8236,6.7321,6.7041,6.6461,6.571,6.5343,6.5048,6.4777,6.4527,6.4387,6.4448,6.4692,6.4756,6.4875,6.5486,6.5749,6.5665,6.6001,6.6251,6.6361,6.6187,6.5907,6.5658,6.5758,6.5974,6.6134,6.6374,6.6665,6.6953,6.7213,6.7414,6.7593,6.7823,6.7975,6.7935,6.7902,6.7759,6.7752,6.7468,6.7419,6.7597,6.7956,6.8193,6.8461,6.8927,6.9188,6.9285,6.9334,6.9237,6.9042,6.8847,6.8724,6.86,6.8451,6.8326,6.8226,6.8201,6.8201,6.8201,6.8201,6.8201,6.8136,6.778,6.7132,6.629,6.5675,6.5157,6.4162,6.4032,6.4,6.4,6.4,6.4,6.4056,6.4498,6.489,6.5031,6.5236,6.5375,6.5263,6.4964,6.4586,6.453,6.3781,6.3333,6.3107,6.2741,6.252,6.2421,6.2421,6.2421,6.2421,6.2421,6.2421,6.2421,6.2421,6.2421,6.2421,6.2421,6.2421,6.2421,6.2421,6.2421,6.2421,6.2421,6.2421,6.2421,6.2421,6.2421,6.2421,6.2421,6.2421,6.2421,6.2421,6.2421,6.8933,6.8811,6.8217,6.7534,6.6889,6.6579,6.6161,6.5637,6.5417,6.5306,6.543,6.5892,6.6049,6.6111,6.6786,6.7175,6.7274,6.7339,6.756,6.7617,6.7457,6.7036,6.6327,6.6277,6.6459,6.6665,6.6927,6.7161,6.7394,6.7644,6.7797,6.7899,6.8126,6.8226,6.8269,6.8436,6.8625,6.8609,6.8626,6.8683,6.8756,6.8879,6.896,6.909,6.9268,6.9427,6.9571,6.9627,6.955,6.9116,6.9067,6.892,6.8699,6.8649,6.8451,6.8251,6.8201,6.8201,6.8201,6.8201,6.8201,6.8169,6.8104,6.7553,6.6388,6.5845,6.523,6.4097,6.4065,6.4259,6.4421,6.4291,6.4388,6.4477,6.438,6.4153,6.4241,6.4796,6.5263,6.5263,6.5207,6.523,6.4911,6.4183,6.3204,6.3156,6.279,6.2495,6.2421,6.2421,6.2421,6.2421,6.2421,6.2421,6.2421,6.2421,6.2421,6.2421,6.2421,6.2421,6.2421,6.2421,6.2421,6.2421,6.2421,6.2421,6.2421,6.2421,6.2421,6.2421,6.2421,6.2421,6.2421,6.2421,6.2421,7.0077,6.9182,6.9025,6.8447,6.7631,6.7513,6.7392,6.7236,6.7153,6.7004,6.7156,6.7312,6.7346,6.7405,6.7971,6.8149,6.7922,6.8289,6.8513,6.8504,6.8681,6.8415,6.7779,6.7308,6.7043,6.7187,6.7291,6.7439,6.767,6.7823,6.7924,6.8151,6.8376,6.8526,6.855,6.8773,6.892,6.892,6.8994,6.914,6.9318,6.931,6.9382,6.955,6.9655,6.9396,6.9169,6.95,6.9717,6.9598,6.9406,6.9188,6.8945,6.8724,6.8501,6.8301,6.8226,6.8201,6.8201,6.8201,6.8201,6.8169,6.778,6.7068,6.6226,6.5651,6.4971,6.4259,6.4453,6.4971,6.544,6.561,6.5513,6.5384,6.5036,6.4745,6.4712,6.4468,6.441,6.4377,6.4377,6.4321,6.4321,6.3781,6.3252,6.3156,6.2864,6.2495,6.2421,6.2421,6.2421,6.2421,6.2421,6.2421,6.2421,6.2421,6.2421,6.2421,6.2421,6.2421,6.2421,6.2421,6.2421,6.2421,6.2421,6.2421,6.2421,6.2421,6.2421,6.2421,6.2421,6.2421,6.2421,6.2421,6.2421,7.1008,7.0383,7.0383,6.9805,6.8989,6.8728,6.8433,6.8013,6.7843,6.7815,6.7908,6.8099,6.8255,6.8317,6.8942,6.9123,6.9164,6.9605,6.9999,7.0004,6.9966,6.9766,6.9568,6.8778,6.8234,6.776,6.7568,6.7721,6.7949,6.8126,6.8276,6.8401,6.8649,6.8773,6.8822,6.9042,6.9164,6.9213,6.931,6.943,6.9583,6.9574,6.9598,6.9774,6.9798,6.9566,6.9334,6.9566,6.9765,6.9774,6.9646,6.9454,6.9188,6.892,6.8674,6.8426,6.8251,6.8226,6.8201,6.8201,6.8201,6.8201,6.7845,6.7327,6.6776,6.6201,6.5716,6.523,6.5319,6.5764,6.6233,6.629,6.6274,6.5967,6.5448,6.498,6.4763,6.4326,6.4,6.4,6.4056,6.4056,6.3858,6.3469,6.3276,6.3156,6.2766,6.2421,6.2421,6.2421,6.2421,6.2421,6.2421,6.2421,6.2421,6.2421,6.2421,6.2421,6.2421,6.2421,6.2421,6.2421,6.2421,6.2421,6.2421,6.2421,6.2421,6.2421,6.2421,6.2421,6.2421,6.2421,6.2421,6.2421,6.2421,7.1612,7.1616,7.1616,7.1128,7.0458,7.0089,6.9556,6.8804,6.8433,6.8621,6.8388,6.8923,6.9227,6.9324,6.9791,7.0186,7.0526,7.0858,7.1146,7.1324,7.0994,7.0829,7.0727,7.0232,6.9517,6.8343,6.824,6.8295,6.8309,6.8526,6.8625,6.8724,6.892,6.9042,6.9116,6.931,6.9487,6.9511,6.9631,6.9727,6.9774,6.9741,6.9732,6.9533,6.9765,6.9633,6.9524,6.9656,6.9798,6.9798,6.9798,6.9679,6.9487,6.914,6.8871,6.86,6.8351,6.8226,6.8201,6.8201,6.8201,6.8201,6.8169,6.7845,6.7294,6.7003,6.6582,6.6315,6.621,6.6526,6.6784,6.7052,6.6874,6.6453,6.5764,6.5102,6.4691,6.4327,6.4041,6.4,6.4,6.4,6.3779,6.3493,6.3325,6.3107,6.2692,6.2421,6.2421,6.2421,6.2421,6.2421,6.2421,6.2421,6.2421,6.2421,6.2421,6.2421,6.2421,6.2421,6.2421,6.2421,6.2421,6.2421,6.2421,6.2421,6.2421,6.2421,6.2421,6.2421,6.2421,6.2421,6.2421,6.2421,6.2421,7.1862,7.1616,7.1616,7.1525,7.1402,7.1288,7.1105,7.1018,7.0588,7.06,7.0513,7.0508,7.0536,7.0739,7.0854,7.1148,7.1314,7.1534,7.1726,7.197,7.1767,7.1703,7.1405,7.1296,7.0812,7.0304,6.9769,6.9241,6.8738,6.8797,6.9084,6.9059,6.9254,6.94,6.9439,6.9583,6.9703,6.9679,6.9774,6.9798,6.9798,6.9765,6.9566,6.9202,6.9566,6.95,6.9259,6.95,6.9798,6.9798,6.9798,6.9774,6.9598,6.9261,6.892,6.8649,6.8401,6.8251,6.8201,6.8201,6.8201,6.8201,6.8201,6.791,6.7424,6.7222,6.7028,6.6777,6.6997,6.7566,6.8177,6.8266,6.825,6.7719,6.6761,6.5805,6.5286,6.4699,6.4321,6.441,6.4265,6.3873,6.3612,6.3397,6.318,6.293,6.2612,6.2446,6.2421,6.2421,6.2421,6.2421,6.2421,6.2421,6.2421,6.2421,6.2421,6.2421,6.2421,6.2421,6.2421,6.2421,6.2421,6.2421,6.2421,6.2421,6.2421,6.2421,6.2421,6.2421,6.2421,6.2421,6.2421,6.2421,6.2421,7.2214,7.2046,7.2079,7.1998,7.1889,7.1862,7.1721,7.1557,7.1479,7.1424,7.1369,7.1286,7.1286,7.1397,7.1424,7.1589,7.1807,7.1862,7.2025,7.2235,7.2289,7.2325,7.2142,7.2142,7.1929,7.164,7.1269,7.0524,6.9566,7.0083,6.9878,6.9458,6.9784,6.9971,6.9697,6.9727,6.9831,6.9831,6.9831,6.9798,6.9798,6.9798,6.9533,6.95,6.9533,6.9566,6.9491,6.9557,6.9798,6.9798,6.9798,6.9798,6.9703,6.9454,6.9091,6.8822,6.855,6.8326,6.8226,6.8201,6.8201,6.8201,6.8201,6.8072,6.7813,6.7708,6.7563,6.7606,6.7802,6.8511,6.8952,6.914,6.8994,6.8585,6.768,6.6932,6.6355,6.5698,6.5372,6.5094,6.461,6.4123,6.3421,6.3172,6.2978,6.2759,6.2569,6.2534,6.2579,6.2611,6.2705,6.2674,6.2705,6.2705,6.2737,6.2769,6.2769,6.2705,6.2642,6.2642,6.2516,6.2547,6.2484,6.2421,6.2421,6.2421,6.2421,6.2421,6.2421,6.2421,6.2421,6.2421,6.2421,6.2421,6.2421,7.2641,7.2588,7.2588,7.2428,7.2214,7.2187,7.2052,7.1775,7.1726,7.1726,7.1698,7.1644,7.1616,7.1726,7.1775,7.1911,7.2187,7.2187,7.2348,7.2535,7.2588,7.2715,7.29,7.2972,7.2809,7.27,7.2663,7.2049,7.0806,7.1111,7.0872,7.0558,7.0852,7.0858,7.0461,7.0494,7.0196,7.003,6.9997,6.9997,6.9831,6.9798,6.9798,6.9798,6.9798,6.9765,6.9699,6.9765,6.9798,6.9798,6.9798,6.9798,6.9774,6.9607,6.9358,6.9091,6.8773,6.8501,6.8351,6.8226,6.8201,6.8201,6.8201,6.8226,6.8294,6.8296,6.8436,6.8674,6.8887,6.9074,6.9285,6.943,6.9285,6.8911,6.8355,6.7816,6.7264,6.6703,6.6311,6.5831,6.5094,6.4647,6.4304,6.3793,6.3755,6.3581,6.3412,6.3356,6.3337,6.3242,6.3242,6.3116,6.3116,6.3116,6.3148,6.3274,6.3306,6.3369,6.3274,6.3242,6.299,6.2737,6.2674,6.2611,6.2421,6.2421,6.2421,6.2453,6.2421,6.2421,6.2421,6.2421,6.2421,6.2421,6.2421,7.3083,7.2853,7.2853,7.2721,7.2482,7.2455,7.2455,7.2348,7.2133,7.2052,7.2025,7.178,7.1807,7.2025,7.2294,7.2401,7.2455,7.2476,7.2609,7.2821,7.288,7.2979,7.324,7.3266,7.3415,7.3423,7.3566,7.2808,7.1944,7.1944,7.1878,7.1637,7.1637,7.1753,7.1455,7.1388,7.1421,7.0891,7.0759,7.0461,6.9964,6.9864,6.9864,6.9798,6.9798,6.9798,6.9798,6.9798,6.9798,6.9798,6.9798,6.9798,6.9798,6.9798,6.9631,6.9285,6.8945,6.86,6.8526,6.8401,6.8301,6.8326,6.8276,6.8351,6.8526,6.8748,6.8896,6.8945,6.9188,6.9358,6.9487,6.9631,6.943,6.9097,6.8623,6.8021,6.7549,6.7864,6.7421,6.7114,6.6552,6.6152,6.5764,6.5141,6.464,6.4431,6.4273,6.4229,6.4134,6.4076,6.3988,6.3943,6.3704,6.3685,6.3653,6.3748,6.3836,6.3963,6.39,6.3811,6.3558,6.3299,6.3021,6.2927,6.2737,6.2705,6.2832,6.28,6.2547,6.2421,6.2421,6.2421,6.2421,6.2421,6.2453,7.3525,7.3136,7.311,7.2952,7.2747,7.2747,7.2641,7.2508,7.2375,7.2321,7.2321,7.2214,7.2214,7.2401,7.2615,7.2721,7.2774,7.2847,7.3005,7.311,7.3162,7.3292,7.3532,7.3609,7.3738,7.3943,7.3986,7.3846,7.3176,7.3003,7.2945,7.215,7.2382,7.2349,7.2216,7.2051,7.1819,7.1587,7.1455,7.1156,7.0626,7.0394,7.0229,6.9831,6.9831,6.9831,6.9798,6.9798,6.9798,6.9798,6.9798,6.9798,6.9798,6.9798,6.9751,6.9631,6.9261,6.8994,6.8847,6.8724,6.8649,6.8649,6.8649,6.8724,6.8871,6.9067,6.9213,6.9213,6.9454,6.9607,6.9631,6.9727,6.9655,6.9403,6.9053,6.8915,6.8582,6.866,6.8639,6.8349,6.8035,6.7581,6.7086,6.6419,6.5764,6.5293,6.5304,6.544,6.5212,6.5009,6.4935,6.4841,6.4564,6.4316,6.4253,6.4253,6.4336,6.4425,6.4374,6.4279,6.4184,6.3937,6.3742,6.3685,6.3748,6.3685,6.3495,6.3021,6.2611,6.2484,6.2421,6.2547,6.2674,6.2516,6.2547,7.3943,7.3525,7.3448,7.3266,7.2979,7.2979,7.2873,7.2715,7.2721,7.2715,7.2721,7.2688,7.2721,7.2747,7.29,7.3005,7.3005,7.3214,7.3344,7.3396,7.3448,7.3635,7.3789,7.3892,7.3993,7.4196,7.4146,7.4072,7.4105,7.403,7.35,7.2581,7.3144,7.3111,7.2746,7.2647,7.2614,7.2316,7.2051,7.1653,7.1256,7.1156,7.0726,7.0328,7.0063,6.9997,6.9831,6.9798,6.9798,7.0129,7.0129,7.0163,7.0163,7.0428,7.0196,7.0025,6.97,6.9637,6.9311,6.9067,6.9018,6.9018,6.9067,6.9067,6.9116,6.9334,6.9478,6.9478,6.9655,6.9774,6.9798,6.9798,6.9774,6.9751,6.9661,6.9741,6.9765,6.9495,6.9315,6.9154,6.8906,6.8844,6.8331,6.7687,6.7005,6.6334,6.6319,6.6574,6.6419,6.6197,6.6202,6.6238,6.6094,6.5823,6.5632,6.546,6.5288,6.5065,6.5039,6.4976,6.4995,6.4798,6.4563,6.4601,6.4658,6.4348,6.3969,6.3306,6.2737,6.3021,6.3242,6.3021,6.2958,6.2832,6.2927,7.4171,7.412,7.384,7.3584,7.3292,7.3292,7.3233,7.3188,7.3214,7.3214,7.3188,7.3214,7.3188,7.324,7.324,7.3292,7.3292,7.3318,7.3499,7.3687,7.3764,7.3892,7.4044,7.412,7.4146,7.4196,7.4196,7.4196,7.4196,7.4196,7.4097,7.4064,7.3865,7.3997,7.3898,7.3633,7.3409,7.3011,7.2581,7.2216,7.1985,7.1852,7.1554,7.0991,7.0759,7.0527,6.9864,6.9931,7.0229,7.0759,7.0825,7.0825,7.0891,7.1223,7.0991,7.047,7.0545,7.044,7.0079,6.9474,6.9067,6.9091,6.9213,6.9358,6.9382,6.9631,6.9751,6.9727,6.9774,6.9798,6.9798,6.9798,6.9798,6.9798,6.9798,6.9798,6.9798,6.9765,6.9675,6.9765,6.9655,6.943,6.9358,6.8654,6.8152,6.754,6.7646,6.7908,6.7867,6.7702,6.7765,6.7763,6.7777,6.7608,6.7496,6.7208,6.6684,6.6441,6.6371,6.616,6.6007,6.5758,6.556,6.5241,6.5172,6.481,6.4506,6.4121,6.39,6.4058,6.4058,6.3716,6.3779,6.3963,6.4001,7.4196,7.4196,7.407,7.3866,7.3609,7.3609,7.3473,7.3344,7.3318,7.3318,7.3318,7.3318,7.3318,7.337,7.3558,7.3609,7.3635,7.3782,7.3917,7.3993,7.407,7.412,7.4196,7.4196,7.4196,7.4196,7.4196,7.4196,7.4196,7.4196,7.4196,7.4196,7.4196,7.4163,7.4163,7.4196,7.3997,7.3832,7.3434,7.3202,7.2713,7.2647,7.2316,7.1653,7.1024,7.109,7.1057,7.0693,7.0991,7.1355,7.1554,7.1587,7.162,7.1951,7.172,7.1189,7.1421,7.1322,7.0924,7.0169,6.9511,6.9478,6.9607,6.9655,6.9631,6.9751,6.9798,6.9798,6.9798,6.9798,6.9798,6.9798,6.9798,6.9798,6.9798,6.9798,6.9798,6.9798,6.9798,6.9798,6.9798,6.9703,6.9679,6.9589,6.9138,6.8749,6.901,6.914,6.8969,6.8847,6.8748,6.8625,6.8575,6.8401,6.8201,6.8025,6.7873,6.7695,6.7516,6.7158,6.6825,6.6876,6.662,6.6185,6.5877,6.5793,6.5583,6.5184,6.4911,6.4784,6.4563,6.4247,6.45,6.4942,6.4974,7.4196,7.4196,7.4196,7.407,7.395,7.395,7.3789,7.3602,7.3602,7.3577,7.3577,7.3577,7.3577,7.3628,7.3789,7.3892,7.3943,7.407,7.4146,7.4171,7.4171,7.4196,7.4196,7.4196,7.4196,7.4196,7.4196,7.4196,7.4196,7.4196,7.4196,7.4196,7.4196,7.4196,7.4196,7.4196,7.4196,7.4196,7.413,7.3997,7.3442,7.3409,7.3078,7.2415,7.1918,7.1686,7.1753,7.1488,7.1653,7.2084,7.2316,7.2349,7.2415,7.2448,7.2382,7.225,7.2183,7.225,7.1786,7.1223,7.0361,7.0214,7.0148,7.0039,6.9864,6.9798,6.9798,6.9798,6.9798,6.9798,6.9798,6.9798,6.9798,6.9798,6.9798,6.9798,6.9798,6.9798,6.9798,6.9798,6.9798,6.9774,6.9774,6.9751,6.9607,6.9285,6.9382,6.9478,6.9454,6.9334,6.9261,6.914,6.9042,6.8822,6.86,6.8575,6.8501,6.8151,6.7975,6.7746,6.7548,6.7568,6.7414,6.6894,6.6739,6.6837,6.6511,6.5963,6.5595,6.5322,6.5195,6.5132,6.5353,6.5732,6.5638,7.4196,7.4196,7.4196,7.4196,7.4146,7.4171,7.4146,7.4095,7.412,7.4128,7.4194,7.4187,7.4187,7.4187,7.422,7.412,7.412,7.4171,7.4196,7.4196,7.4196,7.4196,7.4262,7.4262,7.4362,7.4229,7.4329,7.4395,7.4395,7.4561,7.4461,7.4262,7.4296,7.4196,7.4196,7.4196,7.4196,7.4196,7.4196,7.413,7.4064,7.3997,7.3608,7.321,7.2813,7.2515,7.2415,7.215,7.2382,7.2945,7.3078,7.3078,7.3111,7.36,7.3335,7.2382,7.2846,7.2746,7.215,7.1985,7.162,7.0958,7.0759,7.0527,7.0063,6.9864,6.9898,6.9997,6.9864,6.9831,6.9831,6.9864,6.9931,7.0096,7.0163,6.9997,7.003,6.9798,6.9798,6.9798,6.9798,6.9798,6.9798,6.9798,6.9798,6.9727,6.9774,6.9798,6.9774,6.9727,6.9607,6.9535,6.9415,6.931,6.914,6.9237,6.9116,6.8724,6.8376,6.8151,6.7924,6.7772,6.7593,6.7414,6.7317,6.7187,6.6979,6.6707,6.6253,6.5922,6.6175,6.627,6.6428,6.6396,6.6207,7.4196,7.4196,7.4196,7.4196,7.4196,7.4196,7.4196,7.4196,7.4229,7.4461,7.476,7.4461,7.4528,7.466,7.4395,7.4196,7.4196,7.4196,7.4196,7.4196,7.4196,7.4561,7.4627,7.4528,7.4693,7.5231,7.5264,7.519,7.5662,7.543,7.5198,7.5025,7.4428,7.4196,7.4196,7.4196,7.4196,7.4196,7.4196,7.4196,7.4196,7.4163,7.4064,7.3765,7.3376,7.321,7.3268,7.2945,7.3111,7.3633,7.3707,7.374,7.3765,7.4163,7.3931,7.3434,7.3799,7.3732,7.35,7.3368,7.2846,7.1985,7.1256,7.1156,7.1156,7.0229,7.0196,7.0319,7.0163,7.0229,7.0394,7.0527,7.0693,7.1123,7.1123,7.0726,7.0494,7.003,6.9798,6.9798,6.9798,6.9798,6.9798,6.9798,6.9798,6.9798,6.9798,6.9798,6.9798,6.9798,6.9727,6.9727,6.9679,6.9703,6.9679,6.9583,6.9382,6.9018,6.8724,6.8476,6.8251,6.7975,6.7848,6.7695,6.7568,6.7439,6.7109,6.6822,6.6665,6.6554,6.6586,6.6586,6.6554,6.6554,6.6491,7.4196,7.4196,7.4196,7.4196,7.4196,7.4196,7.4196,7.4196,7.4196,7.4494,7.4726,7.4395,7.4395,7.4627,7.4461,7.4196,7.4196,7.4196,7.4196,7.4196,7.4196,7.4428,7.4594,7.4793,7.5091,7.5728,7.5927,7.5894,7.6159,7.6258,7.6026,7.5496,7.4726,7.4494,7.4428,7.4461,7.4196,7.4196,7.4196,7.4196,7.4196,7.4196,7.4196,7.403,7.3865,7.3674,7.3931,7.3898,7.3674,7.4064,7.4196,7.4196,7.4196,7.4196,7.4196,7.4196,7.4196,7.4163,7.4097,7.4097,7.3533,7.297,7.2084,7.1819,7.1918,7.1123,7.1024,7.0991,7.0726,7.0891,7.1156,7.1256,7.1455,7.1885,7.1753,7.1355,7.0891,7.0394,7.0096,7.0063,6.9864,6.9864,6.9831,6.9798,6.9798,6.9798,6.9798,6.9798,6.9798,6.9798,6.9798,6.9798,6.9798,6.9774,6.9751,6.9679,6.9478,6.9285,6.8994,6.8699,6.8401,6.8101,6.805,6.7975,6.7772,6.7516,6.7161,6.6875,6.6744,6.6638,6.6586,6.6586,6.6586,6.6586,6.6586,7.4221,7.4196,7.4196,7.4196,7.4196,7.4196,7.4196,7.4196,7.4196,7.4229,7.4296,7.4296,7.4362,7.4329,7.4229,7.4196,7.4196,7.4196,7.4196,7.4196,7.4196,7.4362,7.4693,7.5025,7.5588,7.5761,7.6059,7.649,7.6424,7.6523,7.649,7.6092,7.5165,7.5032,7.5025,7.4925,7.4494,7.4329,7.4196,7.4196,7.4196,7.4196,7.4196,7.413,7.4097,7.4064,7.413,7.4097,7.4097,7.4196,7.4196,7.4196,7.4196,7.4196,7.4196,7.4196,7.4196,7.4196,7.4196,7.4196,7.4163,7.3732,7.3343,7.2813,7.2316,7.1985,7.1786,7.1819,7.172,7.1852,7.2018,7.2051,7.2117,7.2216,7.2183,7.1786,7.1322,7.0924,7.0626,7.0394,7.0129,7.003,7.003,6.9964,6.9798,6.9798,6.9798,6.9798,6.9798,6.9798,6.9798,6.9798,6.9798,6.9798,6.9774,6.9727,6.9487,6.9213,6.9067,6.8822,6.8526,6.8251,6.8151,6.805,6.7899,6.767,6.7394,6.7109,6.6875,6.677,6.6665,6.6586,6.6586,6.6586,6.6586,7.4372,7.4196,7.4196,7.4196,7.4196,7.4196,7.4196,7.4196,7.4196,7.4461,7.4958,7.4428,7.4428,7.4925,7.4461,7.4229,7.4196,7.4196,7.4196,7.4196,7.4296,7.4892,7.5264,7.5562,7.6258,7.692,7.7258,7.7258,7.759,7.7417,7.7053,7.6861,7.5993,7.5894,7.5827,7.5794,7.5091,7.4561,7.4362,7.4229,7.4196,7.4196,7.4196,7.4196,7.4196,7.4196,7.4196,7.4196,7.4196,7.4196,7.4196,7.4196,7.4196,7.4196,7.4196,7.4196,7.4196,7.4196,7.4196,7.4196,7.4196,7.4196,7.3931,7.3931,7.3368,7.278,7.2382,7.2548,7.2515,7.2515,7.268,7.278,7.2945,7.3069,7.2945,7.2548,7.2117,7.1753,7.1455,7.1057,7.0792,7.0394,7.0361,6.9964,6.9798,6.9798,6.9798,6.9798,6.9798,6.9798,6.9798,6.9798,6.9798,6.9798,6.9798,6.9774,6.9463,6.9164,6.9042,6.8871,6.8526,6.8301,6.8226,6.8126,6.8,6.7848,6.7702,6.742,6.7109,6.6901,6.677,6.6665,6.6586,6.6586,6.6586,7.4647,7.4523,7.4523,7.4448,7.4347,7.4247,7.4196,7.4196,7.4196,7.4494,7.4793,7.4395,7.4461,7.4693,7.4362,7.4196,7.4196,7.4196,7.4196,7.4229,7.4528,7.5058,7.5562,7.6159,7.6887,7.7623,7.802,7.7987,7.8252,7.7855,7.7424,7.7722,7.6894,7.6596,7.6556,7.6357,7.5827,7.5231,7.4826,7.4494,7.4329,7.4196,7.4196,7.4196,7.4196,7.4196,7.4196,7.4196,7.4196,7.4196,7.4196,7.4196,7.4196,7.4196,7.4196,7.4196,7.4196,7.4196,7.4196,7.4196,7.4196,7.4196,7.4196,7.4163,7.3964,7.3467,7.3376,7.3409,7.3177,7.3078,7.331,7.36,7.3832,7.4097,7.3765,7.3409,7.3045,7.268,7.2283,7.1885,7.1455,7.0991,7.0593,7.0129,6.9798,6.9798,6.9798,6.9798,6.9798,6.9798,6.9798,6.9798,6.9798,6.9798,6.9798,6.9774,6.9559,6.9261,6.9067,6.8871,6.8526,6.8326,6.8276,6.8176,6.8075,6.7975,6.7873,6.7593,6.7368,6.7135,6.6901,6.677,6.6665,6.6586,6.6586,7.5018,7.4968,7.5027,7.4821,7.4597,7.4398,7.4297,7.4247,7.4272,7.4221,7.4313,7.4229,7.428,7.448,7.4322,7.4371,7.4471,7.4537,7.4645,7.442,7.5091,7.5628,7.6125,7.6689,7.7318,7.7715,7.802,7.8351,7.8252,7.802,7.7954,7.8384,7.7351,7.702,7.7358,7.7053,7.6622,7.6225,7.5621,7.5124,7.4528,7.4296,7.4196,7.4196,7.4196,7.4196,7.4196,7.4196,7.4196,7.4196,7.4196,7.4196,7.4196,7.4196,7.4196,7.4196,7.4196,7.4196,7.4196,7.4196,7.4196,7.4196,7.4196,7.4196,7.403,7.3931,7.3898,7.3898,7.3666,7.3633,7.3832,7.3898,7.4064,7.4163,7.3997,7.3765,7.3475,7.3243,7.3078,7.2647,7.2183,7.1686,7.1147,7.0684,7.0173,7.0026,6.9941,6.9941,6.9974,6.9974,6.9969,6.9936,6.9822,6.9822,6.9798,6.9751,6.9655,6.9406,6.9188,6.9018,6.8797,6.855,6.8301,6.8351,6.8426,6.8201,6.805,6.7848,6.7619,6.7317,6.7109,6.6901,6.6744,6.6638,6.6586,7.5106,7.4993,7.5027,7.4944,7.4895,7.4845,7.4796,7.4796,7.4573,7.4531,7.4481,7.4347,7.4448,7.4697,7.4548,7.4672,7.5138,7.5121,7.5451,7.5606,7.5952,7.6192,7.6722,7.7185,7.7689,7.8119,7.8418,7.8484,7.8418,7.8285,7.8252,7.8451,7.7821,7.7921,7.8086,7.7755,7.7583,7.7152,7.6424,7.5794,7.5223,7.4528,7.4196,7.4196,7.4196,7.4196,7.4196,7.4196,7.4196,7.4196,7.4196,7.4196,7.4196,7.4196,7.4196,7.4196,7.4196,7.4196,7.4196,7.4196,7.4196,7.4196,7.4196,7.4196,7.4163,7.4196,7.4196,7.4196,7.4196,7.4196,7.4196,7.4196,7.4196,7.4196,7.4196,7.403,7.3898,7.3832,7.3765,7.3343,7.2879,7.234,7.1793,7.1235,7.0724,7.0476,7.0383,7.0363,7.0407,7.0393,7.0381,7.0301,6.9903,6.9846,6.9846,6.9846,6.9774,6.9574,6.9358,6.9213,6.9042,6.8896,6.8724,6.8773,6.8797,6.855,6.8351,6.8201,6.7949,6.7593,6.7265,6.7031,6.6849,6.6717,6.6638,7.5422,7.5301,7.5189,7.5164,7.514,7.5042,7.5027,7.4968,7.4821,7.4821,7.4845,7.4597,7.4622,7.4968,7.4854,7.518,7.5698,7.5664,7.5662,7.5934,7.6575,7.6689,7.7119,7.759,7.802,7.8451,7.8484,7.8484,7.8484,7.8484,7.8451,7.8484,7.8484,7.8484,7.8484,7.8451,7.8285,7.7855,7.7126,7.6556,7.5927,7.5058,7.4296,7.4196,7.4196,7.4196,7.4196,7.4196,7.4196,7.4196,7.4196,7.4196,7.4196,7.4196,7.4196,7.4196,7.4196,7.4196,7.4196,7.4196,7.4196,7.4196,7.4196,7.4196,7.4196,7.4196,7.4196,7.4196,7.4196,7.4196,7.4196,7.4196,7.4196,7.4196,7.4196,7.4097,7.4064,7.403,7.3997,7.3898,7.3451,7.3093,7.2501,7.178,7.1341,7.1165,7.1028,7.1074,7.1064,7.111,7.1035,7.0927,7.0666,7.0262,7.0166,7.0129,6.9964,6.9774,6.9583,6.9285,6.9116,6.9164,6.9164,6.9091,6.9018,6.8896,6.8699,6.855,6.8301,6.7975,6.7542,6.713,6.7005,6.6849,6.6691,7.5652,7.5652,7.5446,7.5349,7.5325,7.5155,7.5115,7.5115,7.5067,7.5155,7.5252,7.4895,7.487,7.5018,7.5243,7.5679,7.6031,7.6208,7.6115,7.642,7.7044,7.7264,7.7484,7.7855,7.8252,7.8451,7.8484,7.8484,7.8484,7.8484,7.8484,7.8484,7.8484,7.8484,7.8484,7.8484,7.8384,7.8153,7.7689,7.7292,7.6457,7.5455,7.4726,7.4395,7.4262,7.4262,7.4296,7.4229,7.4229,7.4296,7.4296,7.4196,7.4196,7.4196,7.4196,7.4196,7.4196,7.4196,7.4196,7.4196,7.4196,7.4196,7.4196,7.4196,7.4196,7.4196,7.4196,7.4196,7.4196,7.4196,7.4196,7.4196,7.4196,7.4196,7.4196,7.4196,7.4196,7.4221,7.4221,7.4221,7.3999,7.3673,7.3144,7.2419,7.218,7.1992,7.1905,7.1905,7.1952,7.2102,7.2146,7.2042,7.1861,7.1412,7.085,7.062,7.0556,7.0106,6.986,6.9478,6.9237,6.9391,6.9382,6.9237,6.9164,6.914,6.9018,6.8847,6.8575,6.8301,6.7949,6.7542,6.7265,6.7083,6.6744,7.5676,7.5676,7.5628,7.5638,7.5614,7.5566,7.5566,7.5518,7.5325,7.5373,7.5494,7.5349,7.5301,7.5576,7.6056,7.6454,7.6741,7.6919,7.7278,7.7563,7.7666,7.7834,7.8,7.8086,7.8418,7.8511,7.8537,7.8511,7.8617,7.8564,7.8511,7.8537,7.8484,7.8484,7.8484,7.8484,7.8451,7.8285,7.7888,7.7358,7.6655,7.5794,7.5323,7.4892,7.4528,7.4693,7.476,7.4461,7.4627,7.4726,7.4528,7.4262,7.4196,7.4196,7.4196,7.4196,7.4196,7.4196,7.4196,7.4196,7.4196,7.4196,7.4196,7.4196,7.4196,7.4196,7.4196,7.4196,7.4196,7.4196,7.4196,7.4196,7.4196,7.4196,7.4196,7.4196,7.4196,7.4247,7.4297,7.4398,7.4473,7.4179,7.3882,7.3448,7.3278,7.3147,7.3029,7.3019,7.3019,7.3099,7.3156,7.3099,7.3008,7.235,7.1704,7.1523,7.1349,7.0764,7.02,6.9869,6.9679,6.9703,6.9655,6.9478,6.9454,6.9454,6.931,6.9148,6.8896,6.8625,6.8326,6.7975,6.7619,6.7291,6.6927]}]]